[[{"header":{"parameterUnit":"m.s-1","parameterCategory":1,"la1":30.6,"la2":28.766,"lo1":-90.7593,"lo2":-88.6598,"dy":0.0162,"dx":0.0183,"nx":116,"ny":114,"refTime":"2024-05-06T12:00:00:Z","depth":0,"parameterNumber":2,"parameterNumberName":"U-component_of_WINDS"},"data":[0.0,0.0,0.0,0.0,0.0,0.0,0.0,0.0,0.0,0.0,0.0,0.0,0.0,0.0,0.0,0.0,0.0,0.0,0.0,0.0,0.0,0.0,0.0,0.0,0.0,0.0,0.0,0.0,0.0,0.0,0.0,0.0,0.0,0.0,0.0,0.0,0.0,0.0,0.0,0.0,0.0,0.0,0.0,0.0,0.0,0.0,0.0,0.0,0.0,0.0,0.0,0.0,0.0,0.0,0.0,0.0,0.0,0.0,0.0,0.0,0.0,0.0,0.0,0.0,0.0,0.0,0.0,0.0,0.0,0.0,0.0,0.0,0.0,0.0,0.0,0.0,0.0,0.0,0.0,0.0,0.0,0.0,0.0,0.0,0.0,0.0,0.0,0.0,0.0,0.0,0.0,0.0,0.0,0.0,0.0,0.0,0.0,0.0,0.0,0.0,0.0,0.0,0.0,0.0,0.0,0.0,0.0,0.0,0.0,0.0,0.0,0.0,0.0,0.0,0.0,0.0,0.0,0.0,0.0,0.0,0.0,0.0,0.0,0.0,0.0,0.0,0.0,0.0,0.0,0.0,0.0,0.0,0.0,0.0,0.0,0.0,0.0,0.0,0.0,0.0,0.0,0.0,0.0,0.0,0.0,0.0,0.0,0.0,0.0,0.0,0.0,0.0,0.0,0.0,0.0,0.0,0.0,0.0,0.0,0.0,0.0,0.0,0.0,0.0,0.0,0.0,0.0,0.0,0.0,0.0,0.0,0.0,0.0,0.0,0.0,0.0,0.0,0.0,0.0,0.0,0.0,0.0,0.0,0.0,0.0,0.0,0.0,0.0,0.0,0.0,0.0,0.0,0.0,0.0,0.0,0.0,0.0,0.0,0.0,0.0,0.0,0.0,0.0,0.0,0.0,0.0,0.0,0.0,0.0,0.0,0.0,0.0,0.0,0.0,0.0,0.0,0.0,0.0,0.0,0.0,0.0,0.0,0.0,0.0,0.0,0.0,0.0,0.0,0.0,0.0,0.0,0.0,0.0,0.0,0.0,0.0,0.0,0.0,0.0,0.0,0.0,0.0,0.0,0.0,0.0,0.0,0.0,0.0,0.0,0.0,0.0,0.0,0.0,0.0,0.0,0.0,0.0,0.0,0.0,0.0,0.0,0.0,0.0,0.0,0.0,0.0,0.0,0.0,0.0,0.0,0.0,0.0,0.0,0.0,0.0,0.0,0.0,0.0,0.0,0.0,0.0,0.0,0.0,0.0,0.0,0.0,0.0,0.0,0.0,0.0,0.0,0.0,0.0,0.0,0.0,0.0,0.0,0.0,0.0,0.0,0.0,0.0,0.0,0.0,0.0,0.0,0.0,0.0,0.0,0.0,0.0,0.0,0.0,0.0,0.0,0.0,0.0,0.0,0.0,0.0,0.0,0.0,0.0,0.0,0.0,0.0,0.0,0.0,0.0,0.0,0.0,0.0,0.0,0.0,0.0,0.0,0.0,0.0,0.0,0.0,0.0,0.0,0.0,0.0,0.0,0.0,0.0,0.0,0.0,0.0,0.0,0.0,0.0,0.0,0.0,0.0,0.0,0.0,0.0,0.0,0.0,0.0,0.0,0.0,0.0,0.0,0.0,0.0,0.0,0.0,0.0,0.0,0.0,0.0,0.0,0.0,0.0,0.0,0.0,0.0,0.0,0.0,0.0,0.0,0.0,0.0,0.0,0.0,0.0,0.0,0.0,0.0,0.0,0.0,0.0,0.0,0.0,0.0,0.0,0.0,0.0,0.0,0.0,0.0,0.0,0.0,0.0,0.0,0.0,0.0,0.0,0.0,0.0,0.0,0.0,0.0,0.0,0.0,0.0,0.0,0.0,0.0,0.0,0.0,0.0,0.0,0.0,0.0,0.0,0.0,0.0,0.0,0.0,0.0,0.0,0.0,0.0,0.0,0.0,0.0,0.0,0.0,0.0,0.0,0.0,0.0,0.0,0.0,0.0,0.0,0.0,0.0,0.0,0.0,0.0,0.0,0.0,0.0,0.0,0.0,0.0,0.0,0.0,0.0,0.0,0.0,0.0,0.0,0.0,0.0,0.0,0.0,0.0,0.0,0.0,0.0,0.0,0.0,0.0,0.0,0.0,0.0,0.0,0.0,0.0,0.0,0.0,0.0,0.0,0.0,0.0,0.0,0.0,0.0,0.0,0.0,0.0,0.0,0.0,0.0,0.0,0.0,0.0,0.0,0.0,0.0,0.0,0.0,0.0,0.0,0.0,0.0,0.0,0.0,0.0,0.0,0.0,0.0,0.0,0.0,0.0,0.0,0.0,0.0,0.0,0.0,0.0,0.0,0.0,0.0,0.0,0.0,0.0,0.0,0.0,0.0,0.0,0.0,0.0,0.0,0.0,0.0,0.0,0.0,0.0,0.0,0.0,0.0,0.0,0.0,0.0,0.0,0.0,0.0,0.0,0.0,0.0,0.0,0.0,0.0,0.0,0.0,0.0,0.0,0.0,0.0,0.0,0.0,0.0,0.0,0.0,0.0,0.0,0.0,0.0,0.0,0.0,0.0,0.0,0.0,0.0,0.0,0.0,0.0,0.0,0.0,0.0,0.0,0.0,0.0,0.0,0.0,0.0,0.0,0.0,0.0,0.0,0.0,0.0,0.0,0.0,0.0,0.0,0.0,0.0,0.0,0.0,0.0,0.0,0.0,0.0,0.0,0.0,0.0,0.0,0.0,0.0,0.0,0.0,0.0,0.0,0.0,0.0,0.0,0.0,0.0,0.0,0.0,0.0,0.0,0.0,0.0,0.0,0.0,0.0,0.0,0.0,0.0,0.0,0.0,0.0,0.0,0.0,0.0,0.0,0.0,0.0,0.0,0.0,0.0,0.0,0.0,0.0,0.0,0.0,0.0,0.0,0.0,0.0,0.0,0.0,0.0,0.0,0.0,0.0,0.0,0.0,0.0,0.0,0.0,0.0,0.0,0.0,0.0,0.0,0.0,0.0,0.0,0.0,0.0,0.0,0.0,0.0,0.0,0.0,0.0,0.0,0.0,0.0,0.0,0.0,0.0,0.0,0.0,0.0,0.0,0.0,0.0,0.0,0.0,0.0,0.0,0.0,0.0,0.0,0.0,0.0,0.0,0.0,0.0,0.0,0.0,0.0,0.0,0.0,0.0,0.0,0.0,0.0,0.0,0.0,0.0,0.0,0.0,0.0,0.0,0.0,0.0,0.0,0.0,0.0,0.0,0.0,0.0,0.0,0.0,0.0,0.0,0.0,0.0,0.0,0.0,0.0,0.0,0.0,0.0,0.0,0.0,0.0,0.0,0.0,0.0,0.0,0.0,0.0,0.0,0.0,0.0,0.0,0.0,0.0,0.0,0.0,0.0,0.0,0.0,0.0,0.0,0.0,0.0,0.0,0.0,0.0,0.0,0.0,0.0,0.0,0.0,0.0,0.0,0.0,0.0,0.0,0.0,0.0,0.0,0.0,0.0,0.0,0.0,0.0,0.0,0.0,0.0,0.0,0.0,0.0,0.0,0.0,0.0,0.0,0.0,0.0,0.0,0.0,0.0,0.0,0.0,0.0,0.0,0.0,0.0,0.0,0.0,0.0,0.0,0.0,0.0,0.0,0.0,0.0,0.0,0.0,0.0,0.0,0.0,0.0,0.0,0.0,0.0,0.0,0.0,0.0,0.0,0.0,0.0,0.0,0.0,0.0,0.0,0.0,0.0,0.0,0.0,0.0,0.0,0.0,0.0,0.0,0.0,0.0,0.0,0.0,0.0,0.0,0.0,0.0,0.0,0.0,0.0,0.0,0.0,0.0,0.0,0.0,0.0,0.0,0.0,0.0,0.0,0.0,0.0,0.0,0.0,0.0,0.0,0.0,0.0,0.0,0.0,0.0,0.0,0.0,0.0,0.0,0.0,0.0,0.0,0.0,0.0,0.0,0.0,0.0,0.0,0.0,0.0,0.0,0.0,0.0,0.0,0.0,0.0,0.0,0.0,0.0,0.0,0.0,0.0,0.0,0.0,0.0,0.0,0.0,0.0,0.0,0.0,0.0,0.0,0.0,0.0,0.0,0.0,0.0,0.0,0.0,0.0,0.0,0.0,0.0,0.0,0.0,0.0,0.0,0.0,0.0,0.0,0.0,0.0,0.0,0.0,0.0,0.0,0.0,0.0,0.0,0.0,0.0,0.0,0.0,0.0,0.0,0.0,0.0,0.0,0.0,0.0,0.0,0.0,0.0,0.0,0.0,0.0,0.0,0.0,0.0,0.0,0.0,0.0,0.0,0.0,0.0,0.0,0.0,0.0,0.0,0.0,0.0,0.0,0.0,0.0,0.0,0.0,0.0,0.0,0.0,0.0,0.0,0.0,0.0,0.0,0.0,0.0,0.0,0.0,0.0,0.0,0.0,0.0,0.0,0.0,0.0,0.0,0.0,0.0,0.0,0.0,0.0,0.0,0.0,0.0,0.0,0.0,0.0,0.0,0.0,0.0,0.0,0.0,0.0,0.0,0.0,0.0,0.0,0.0,0.0,0.0,0.0,0.0,0.0,0.0,0.0,0.0,0.0,0.0,0.0,0.0,0.0,0.0,0.0,0.0,0.0,0.0,0.0,0.0,0.0,0.0,0.0,0.0,0.0,0.0,0.0,0.0,0.0,0.0,0.0,0.0,0.0,0.0,0.0,0.0,0.0,0.0,0.0,0.0,0.0,0.0,0.0,0.0,0.0,0.0,0.0,0.0,0.0,0.0,0.0,0.0,0.0,0.0,0.0,0.0,0.0,0.0,0.0,0.0,0.0,0.0,0.0,0.0,0.0,0.0,0.0,0.0,0.0,0.0,0.0,0.0,0.0,0.0,0.0,0.0,0.0,0.0,0.0,0.0,0.0,0.0,0.0,0.0,0.0,0.0,0.0,0.0,0.0,0.0,0.0,0.0,0.0,0.0,0.0,0.0,0.0,0.0,0.0,0.0,0.0,0.0,0.0,0.0,0.0,0.0,0.0,0.0,0.0,0.0,0.0,0.0,0.0,0.0,0.0,0.0,0.0,0.0,0.0,0.0,0.0,0.0,0.0,0.0,0.0,0.0,0.0,0.0,0.0,0.0,0.0,0.0,0.0,0.0,0.0,0.0,0.0,0.0,0.0,0.0,0.0,0.0,0.0,0.0,0.0,0.0,0.0,0.0,0.0,0.0,0.0,0.0,0.0,0.0,0.0,0.0,0.0,0.0,0.0,0.0,0.0,0.0,0.0,0.0,0.0,0.0,0.0,0.0,0.0,0.0,0.0,0.0,0.0,0.0,0.0,0.0,0.0,0.0,0.0,0.0,0.0,0.0,0.0,0.0,0.0,0.0,0.0,0.0,0.0,0.0,0.0,0.0,0.0,0.0,0.0,0.0,0.0,0.0,0.0,0.0,0.0,0.0,0.0,0.0,0.0,0.0,0.0,0.0,0.0,0.0,0.0,0.0,0.0,0.0,0.0,0.0,0.0,0.0,0.0,0.0,0.0,0.0,0.0,0.0,0.0,0.0,0.0,0.0,0.0,0.0,0.0,0.0,0.0,0.0,0.0,0.0,0.0,0.0,0.0,0.0,0.0,0.0,0.0,0.0,0.0,0.0,0.0,0.0,0.0,0.0,0.0,0.0,0.0,0.0,0.0,0.0,0.0,0.0,0.0,0.0,0.0,0.0,0.0,0.0,0.0,0.0,0.0,0.0,0.0,0.0,0.0,0.0,0.0,0.0,0.0,0.0,0.0,0.0,0.0,0.0,0.0,0.0,0.0,0.0,0.0,0.0,0.0,0.0,0.0,0.0,0.0,0.0,0.0,0.0,0.0,0.0,0.0,0.0,0.0,0.0,0.0,0.0,0.0,0.0,0.0,0.0,0.0,0.0,0.0,0.0,0.0,0.0,0.0,0.0,0.0,0.0,0.0,0.0,0.0,0.0,0.0,0.0,0.0,0.0,0.0,0.0,0.0,0.0,0.0,0.0,0.0,0.0,0.0,0.0,0.0,0.0,0.0,0.0,0.0,0.0,0.0,0.0,0.0,0.0,0.0,0.0,0.0,0.0,0.0,0.0,0.0,0.0,0.0,0.0,0.0,0.0,-5.793,-5.6562,0.0,0.0,0.0,0.0,0.0,0.0,0.0,0.0,0.0,0.0,0.0,0.0,0.0,0.0,0.0,0.0,0.0,0.0,0.0,0.0,0.0,0.0,0.0,-3.4977,-3.5992,-3.5992,-3.5992,-3.5992,-3.5992,0.0,0.0,0.0,0.0,0.0,-3.7912,-3.8389,-3.8588,-3.859,-3.8593,-3.8594,-3.8594,-3.7656,-3.6992,-3.6523,0.0,0.0,0.0,0.0,0.0,0.0,0.0,0.0,0.0,0.0,0.0,0.0,0.0,0.0,0.0,0.0,0.0,0.0,0.0,0.0,0.0,0.0,0.0,0.0,0.0,0.0,0.0,0.0,0.0,0.0,0.0,0.0,0.0,0.0,0.0,0.0,0.0,0.0,0.0,0.0,0.0,0.0,0.0,0.0,0.0,0.0,0.0,0.0,0.0,0.0,0.0,0.0,0.0,0.0,0.0,0.0,0.0,0.0,0.0,0.0,0.0,0.0,0.0,0.0,0.0,0.0,0.0,0.0,0.0,0.0,-6.0234,-5.8828,0.0,0.0,0.0,0.0,0.0,0.0,0.0,0.0,0.0,0.0,0.0,0.0,0.0,0.0,0.0,0.0,0.0,0.0,0.0,0.0,0.0,-3.3416,-3.3416,-3.4977,-3.5992,-3.5992,-3.5992,-3.607,-3.6226,-3.6891,-3.736,-3.7516,-3.8337,-3.8809,-3.8815,-3.8976,-3.9098,-3.9257,-3.9414,-3.9492,-3.9492,-3.9492,-3.9492,-3.9414,-3.7343,0.0,0.0,0.0,0.0,0.0,0.0,0.0,0.0,0.0,0.0,0.0,0.0,0.0,0.0,0.0,0.0,0.0,0.0,0.0,0.0,0.0,0.0,0.0,0.0,0.0,0.0,0.0,0.0,0.0,0.0,0.0,0.0,0.0,0.0,0.0,0.0,0.0,0.0,0.0,0.0,0.0,0.0,0.0,0.0,0.0,0.0,0.0,0.0,0.0,0.0,0.0,0.0,0.0,0.0,0.0,0.0,0.0,0.0,0.0,0.0,0.0,0.0,0.0,-6.5117,-6.5195,-6.5195,-6.5195,-6.5195,-6.5078,-6.2773,-6.1484,-6.1015,-6.0195,0.0,0.0,0.0,0.0,0.0,0.0,0.0,0.0,0.0,0.0,0.0,0.0,0.0,0.0,0.0,0.0,0.0,0.0,0.0,-3.3416,-3.3416,-3.4977,-3.5992,-3.5992,-3.5992,-3.6305,-3.7087,-3.7243,-3.7633,-3.8415,-3.9195,-3.9668,-3.9714,-4.0422,-4.1129,-4.1912,-4.2656,-4.3047,-4.3047,-4.3047,-4.3047,-4.2891,-3.9687,-3.8242,-3.8124,0.0,0.0,0.0,0.0,0.0,0.0,0.0,0.0,0.0,0.0,0.0,0.0,0.0,0.0,0.0,0.0,0.0,0.0,0.0,0.0,0.0,0.0,0.0,0.0,0.0,0.0,0.0,0.0,0.0,0.0,0.0,0.0,0.0,0.0,0.0,0.0,0.0,0.0,0.0,0.0,0.0,-4.6367,-4.832,0.0,0.0,0.0,0.0,0.0,0.0,0.0,0.0,0.0,0.0,0.0,0.0,0.0,-6.4219,-6.5078,-6.5937,-6.6836,-6.7695,-6.8437,-6.8828,-6.8828,-6.875,-6.8711,-6.8672,-6.7617,0.0,-6.3711,-6.2851,0.0,0.0,0.0,0.0,0.0,0.0,0.0,0.0,0.0,0.0,0.0,0.0,0.0,0.0,0.0,0.0,0.0,0.0,0.0,0.0,0.0,-3.4977,-3.5992,-3.5992,-3.6461,-3.6891,-3.7282,-3.818,-3.8882,-3.9273,-4.0093,-4.0763,-4.128,-4.1634,-4.2262,-4.3124,-4.3515,-4.3711,-4.3711,-4.3711,-4.3711,-4.3633,-4.2148,-4.0937,-3.9961,-3.8202,0.0,0.0,0.0,0.0,0.0,0.0,0.0,0.0,0.0,0.0,0.0,0.0,0.0,0.0,0.0,0.0,0.0,0.0,0.0,0.0,0.0,0.0,0.0,0.0,0.0,0.0,0.0,0.0,0.0,0.0,0.0,0.0,0.0,0.0,0.0,0.0,0.0,0.0,0.0,-4.6601,-4.8945,-5.0156,-5.1836,-5.3398,0.0,0.0,0.0,0.0,0.0,0.0,0.0,0.0,0.0,-6.4414,-6.5312,-6.6172,-6.7031,-6.793,-6.8555,-6.8945,-6.9297,-6.9687,-7.0156,-6.9648,-6.9687,-7.0078,-6.9297,-6.8242,-6.7031,-6.5195,-6.4452,-6.4326,0.0,0.0,0.0,0.0,-6.0744,-5.9924,0.0,0.0,0.0,0.0,0.0,0.0,0.0,0.0,0.0,0.0,0.0,0.0,-3.3416,-3.4977,-3.5992,-3.5992,-3.6813,-3.7399,-3.7633,-3.9,-3.9897,-4.0132,-4.0955,-4.1742,-4.2377,-4.2848,-4.3397,-4.4023,-4.4492,-4.4687,-4.4687,-4.4922,-4.5039,-4.5,-4.457,-4.3437,-4.1719,-4.0,-3.9257,-3.9101,0.0,0.0,0.0,0.0,0.0,0.0,0.0,0.0,0.0,0.0,0.0,0.0,0.0,0.0,0.0,0.0,0.0,0.0,0.0,0.0,0.0,0.0,0.0,0.0,0.0,0.0,0.0,0.0,0.0,0.0,0.0,0.0,0.0,0.0,0.0,0.0,0.0,-4.9297,-5.1055,-5.2539,-5.3867,-5.543,0.0,0.0,0.0,0.0,0.0,0.0,-6.3945,-6.4609,-6.5469,-6.6523,-6.7226,-6.8086,-6.914,-6.9805,-7.0351,-7.0781,-7.0742,-7.1055,-7.168,-7.1015,-7.1094,-7.164,-7.1055,-7.0781,-7.0508,-6.7734,-6.6561,-6.6476,-6.5616,-6.4864,-6.4262,-6.3828,-6.3243,-6.2579,0.0,0.0,0.0,0.0,0.0,0.0,0.0,0.0,0.0,0.0,0.0,-3.3416,-3.3416,-3.4977,-3.5992,-3.5992,-3.6813,-3.7633,-3.8494,-3.9312,-4.0171,-4.0992,-4.1857,-4.2372,-4.2416,-4.4023,-4.4883,-4.4922,-4.6601,-4.7383,-4.7422,-4.8242,-4.8633,-4.8555,-4.6914,-4.5195,-4.3476,-4.1797,-4.1055,-4.0937,-3.918,0.0,0.0,0.0,0.0,0.0,0.0,0.0,0.0,0.0,0.0,0.0,0.0,0.0,0.0,0.0,0.0,0.0,0.0,0.0,0.0,0.0,0.0,0.0,0.0,0.0,0.0,0.0,0.0,0.0,0.0,0.0,0.0,0.0,0.0,0.0,0.0,0.0,0.0,-5.5937,-5.6406,0.0,0.0,0.0,0.0,-6.2812,-6.3672,-6.4922,-6.6601,-6.6758,-6.7539,-6.914,-6.9297,-7.0156,-7.1797,-7.1836,-7.2695,-7.4336,-7.4336,-7.4375,-7.4414,-7.4375,-7.4375,-7.4414,-7.4375,-7.4336,-7.4062,-7.0625,-6.9218,-6.9137,-6.8234,-6.7874,-6.7631,-6.6058,-6.5429,-6.5273,0.0,0.0,0.0,0.0,0.0,-2.8381,-2.8732,-2.9904,-3.08,-3.08,-3.2323,-3.3416,-3.3416,-3.4977,-3.6226,-3.6774,-3.7633,-3.8494,-3.9312,-4.0171,-4.1033,-4.1896,-4.2211,-4.2919,-4.4059,-4.5781,-4.668,-4.668,-4.7851,-4.8437,-4.8437,-4.875,-4.8906,-4.8867,-4.8242,-4.7617,-4.6875,-4.4023,-4.2812,-4.2656,-4.0976,-4.0078,0.0,0.0,0.0,0.0,0.0,0.0,0.0,0.0,0.0,0.0,0.0,0.0,0.0,0.0,0.0,0.0,0.0,0.0,0.0,0.0,0.0,0.0,0.0,0.0,0.0,0.0,0.0,0.0,0.0,0.0,0.0,0.0,0.0,0.0,0.0,0.0,0.0,-5.7226,-5.8867,0.0,-6.1133,-6.2539,-6.3984,-6.539,-6.5781,-6.6719,-6.8437,-6.8555,-6.9336,-7.1015,-7.1094,-7.1914,-7.3672,-7.3672,-7.3984,-7.4609,-7.4609,-7.4883,-7.543,-7.4844,-7.4922,-7.539,-7.4844,-7.4609,-7.4492,-7.3242,-7.2109,-7.0935,-6.9488,-6.8937,-6.8852,-6.8256,-6.8056,-6.7939,0.0,0.0,0.0,-2.5687,-2.7132,-2.8303,-2.8303,-2.9707,-3.08,-3.08,-3.2323,-3.3416,-3.3416,-3.4977,-3.6344,-3.7204,-3.8104,-3.8965,-3.9785,-4.0646,-4.1509,-4.2372,-4.2959,-4.4096,-4.5859,-4.6992,-4.7734,-4.8047,-4.8906,-4.9336,-4.9336,-4.9609,-4.9726,-4.9726,-4.9453,-4.9336,-4.918,-4.6562,-4.5117,-4.4414,-4.2734,-4.2031,-4.1875,0.0,0.0,0.0,0.0,0.0,0.0,0.0,0.0,0.0,0.0,0.0,0.0,0.0,0.0,0.0,0.0,0.0,0.0,0.0,0.0,0.0,0.0,0.0,0.0,0.0,0.0,0.0,0.0,0.0,0.0,0.0,0.0,0.0,0.0,0.0,-5.789,-5.9062,-6.0937,-6.25,-6.3359,-6.4492,-6.5898,-6.7617,-6.7773,-6.8515,-7.0195,-7.0312,-7.1133,-7.2812,-7.289,-7.3555,-7.5039,-7.5039,-7.5195,-7.5469,-7.5469,-7.5781,-7.6328,-7.5742,-7.5781,-7.6328,-7.5742,-7.5469,-7.5469,-7.5156,-7.4375,-7.3163,-7.1716,-7.0972,-7.0695,-7.0375,-7.0097,-6.9703,0.0,-2.5687,-2.5687,-2.5687,-2.7132,-2.8303,-2.8303,-2.9707,-3.08,-3.08,-3.2323,-3.3416,-3.3416,-3.4977,-3.6345,-3.7243,-3.8108,-3.8972,-3.987,-4.0695,-4.1557,-4.2455,-4.4138,-4.5859,-4.7578,-4.7656,-4.8086,-4.8945,-4.9805,-5.0234,-5.0234,-5.1055,-5.1406,-5.1367,-5.0586,-5.0234,-5.0195,-4.9297,-4.7969,-4.6289,-4.4492,-4.3789,-4.3594,0.0,0.0,0.0,0.0,0.0,0.0,0.0,0.0,0.0,0.0,0.0,0.0,0.0,0.0,0.0,0.0,0.0,0.0,0.0,0.0,0.0,0.0,0.0,0.0,0.0,0.0,0.0,0.0,0.0,0.0,0.0,0.0,0.0,-5.6719,-5.8203,-5.9883,-6.1562,-6.2578,-6.4101,-6.664,-6.6953,-6.7656,-6.9336,-6.9531,-7.0312,-7.1992,-7.207,-7.2851,-7.4609,-7.4648,-7.5078,-7.5937,-7.5937,-7.6367,-7.7226,-7.7226,-7.7265,-7.7265,-7.7265,-7.7265,-7.7226,-7.7226,-7.7226,-7.7148,-7.6289,-7.5937,-7.5859,-7.496,-7.4099,-7.3239,-7.2375,-7.1549,-7.064,-2.5687,-2.5687,-2.5687,-2.5687,-2.7132,-2.8303,-2.8303,-2.9707,-3.08,-3.08,-3.2327,-3.3384,-3.3384,-3.495,-3.6593,-3.8115,-3.8468,-3.9211,-4.0656,-4.1556,-4.269,-4.4216,-4.5976,-4.7109,-4.7578,-4.8828,-4.9609,-4.9844,-5.0664,-5.1055,-5.1055,-5.1289,-5.1406,-5.1406,-5.1172,-5.1055,-5.1016,-5.0195,-4.957,-4.8906,-4.6523,-4.5586,-4.5391,0.0,0.0,0.0,0.0,0.0,0.0,0.0,0.0,0.0,0.0,0.0,0.0,0.0,0.0,0.0,0.0,0.0,0.0,0.0,0.0,0.0,0.0,0.0,0.0,0.0,0.0,0.0,0.0,0.0,0.0,0.0,-5.7851,-5.9375,-5.9375,-6.0312,-6.164,-6.3398,-6.4922,-6.6094,-6.6836,-6.8008,-6.9414,-7.1172,-7.1289,-7.207,-7.3789,-7.3906,-7.4375,-7.5508,-7.5547,-7.5976,-7.6836,-7.6836,-7.7265,-7.8125,-7.8125,-7.8437,-7.9023,-7.9023,-7.8672,-7.8125,-7.8125,-7.7773,-7.7187,-7.6953,-7.6836,-7.668,-7.5195,-7.4453,-7.4218,-7.3981,-7.3313,-7.2367,-2.5687,-2.5687,-2.5687,-2.5687,-2.7132,-2.8303,-2.8303,-2.975,-3.0844,-3.0844,-3.2333,-3.339,-3.339,-3.4954,-3.6713,-3.8431,-3.8589,-3.9293,-4.0972,-4.2263,-4.3553,-4.4921,-4.6679,-4.7773,-4.8125,-4.9492,-5.0351,-5.0703,-5.1523,-5.1953,-5.1953,-5.2305,-5.25,-5.25,-5.25,-5.2305,-5.1914,-5.1445,-5.1055,-5.0547,-4.8672,-4.75,-4.668,-4.5312,-4.3945,-4.2734,-4.2383,-4.1133,-3.9687,-3.9687,0.0,0.0,0.0,0.0,0.0,0.0,0.0,0.0,0.0,0.0,0.0,0.0,0.0,0.0,0.0,0.0,0.0,0.0,0.0,0.0,0.0,0.0,0.0,0.0,-5.9961,-6.1328,-6.2422,-6.3008,-6.3867,-6.5234,-6.6601,-6.7734,-6.8437,-6.9687,-7.1055,-7.2422,-7.289,-7.3672,-7.5078,-7.5156,-7.5547,-7.6406,-7.6445,-7.6875,-7.7734,-7.7734,-7.8164,-7.8984,-7.8984,-7.9258,-7.9687,-7.9687,-7.9453,-7.8984,-7.8633,-7.8203,-7.7734,-7.7344,-7.7187,-7.7109,0.0,0.0,0.0,0.0,-7.4292,-7.3703,-2.5687,-2.5687,-2.5726,-2.5844,-2.721,-2.8342,-2.842,-2.9831,-3.0928,-3.1006,-3.2416,-3.3432,-3.355,-3.4996,-3.6714,-3.8432,-3.8591,-3.9374,-4.1287,-4.2851,-4.4141,-4.5117,-4.6836,-4.8125,-4.8867,-4.9844,-5.0703,-5.1406,-5.2266,-5.2695,-5.2734,-5.3594,-5.3984,-5.3984,-5.3984,-5.3555,-5.2851,-5.2734,-5.2266,-5.1484,-5.0664,-4.9336,-4.7773,-4.6836,-4.5898,-4.5039,-4.4141,-4.2812,-4.1484,-4.1484,0.0,0.0,0.0,0.0,0.0,0.0,0.0,0.0,0.0,0.0,0.0,0.0,0.0,0.0,0.0,0.0,0.0,0.0,0.0,0.0,0.0,0.0,0.0,0.0,-6.1953,-6.2969,-6.539,-6.582,-6.6172,-6.6953,-6.789,-6.9101,-7.0703,-7.164,-7.2539,-7.3515,-7.4297,-7.5117,-7.6015,0.0,0.0,0.0,0.0,-7.7734,-7.8476,-7.8594,-7.9023,-7.9844,-7.9844,-7.9883,-8.0,-8.0,-7.9922,-7.9805,-7.9101,-7.8672,-7.8437,-7.7656,-7.7305,-7.7187,-7.7187,-7.6719,-7.5937,-7.5077,-7.4763,-7.4724,-2.5687,-2.5687,-2.5922,-2.6625,-2.76,-2.8538,-2.9245,-3.0223,-3.1124,-3.1791,-3.2771,-3.367,-3.4373,-3.539,-3.6718,-3.8437,-3.8594,-3.9922,-4.3008,-4.3515,-4.4414,-4.5976,-4.7734,-4.8711,-4.8906,-5.0391,-5.125,-5.1406,-5.2266,-5.2695,-5.2734,-5.3594,-5.3984,-5.3984,-5.3984,-5.3906,-5.3711,-5.3008,-5.2617,-5.2383,-5.1523,-5.0586,-4.9531,-4.7969,-4.6797,-4.5937,-4.5078,-4.4101,-4.3203,-4.3203,-4.3008,-4.2578,-4.1875,-4.168,0.0,0.0,0.0,0.0,0.0,0.0,0.0,0.0,0.0,0.0,0.0,0.0,0.0,0.0,0.0,0.0,0.0,0.0,0.0,-6.1601,-6.3476,-6.5273,-6.6484,-6.7265,-6.7773,-6.793,-6.9297,-7.0625,-7.164,-7.2539,-7.3711,-7.5273,-7.5547,-7.6015,-7.6914,-7.6953,-7.7031,-7.7187,-7.789,-7.832,-7.8515,-7.914,-7.9883,-8.0742,-8.0742,0.0,-8.1797,-8.1797,-8.1406,-8.0742,-8.0586,-7.9765,-7.8476,-7.832,-7.7812,-7.7187,-7.7187,-7.7109,-7.6836,-7.5976,-7.5664,-7.5547,-2.5687,-2.5687,-2.5961,-2.686,-2.772,-2.8581,-2.9481,-3.0344,-3.1207,-3.1989,-3.2851,-3.3711,-3.4609,-3.5469,-3.6719,-3.8437,-3.9414,-4.0976,-4.3516,-4.3711,-4.4492,-4.6211,-4.7969,-4.8906,-4.8906,-5.0547,-5.1406,-5.1406,-5.2695,-5.3359,-5.3398,-5.4687,-5.5312,-5.5312,-5.5312,-5.5078,-5.4609,-5.418,-5.3516,-5.2656,-5.2226,-5.1562,-5.0664,-4.9375,-4.8086,-4.6875,-4.6445,-4.5469,-4.4336,-4.4336,-4.4062,-4.3633,-4.3203,-4.3047,-4.2969,0.0,0.0,0.0,0.0,0.0,0.0,0.0,0.0,0.0,0.0,0.0,0.0,0.0,0.0,-5.7109,-5.8828,0.0,-6.2148,-6.3437,-6.5117,-6.6562,-6.7422,-6.8633,-6.9453,-6.9453,-7.0586,-7.168,-7.2578,-7.3828,-7.4961,-7.582,-7.6289,-7.6758,-7.7187,-7.7187,-7.7383,-7.7851,-7.8281,-7.8906,-7.9726,-8.0156,-8.0781,-8.164,-8.164,-8.1875,-8.2304,-8.2304,-8.207,-8.164,-8.1172,-8.0273,-7.9023,-7.8203,-7.7578,-7.7187,-7.7187,-7.7187,-7.7148,-7.6719,-7.6562,-7.6484,-2.5922,-2.5961,-2.6235,-2.7096,-2.7957,-2.8858,-2.9718,-3.0465,-3.1249,-3.2226,-3.2968,-3.3789,-3.4844,-3.5742,-3.6953,-3.8711,-4.043,-4.207,-4.3594,-4.3867,-4.4648,-4.6211,-4.7969,-4.8906,-4.8906,-5.0547,-5.1406,-5.1406,-5.3164,-5.3984,-5.4023,-5.5781,-5.6601,-5.6601,-5.6601,-5.6211,-5.5547,-5.5351,-5.4375,-5.293,-5.2773,-5.2187,-5.1328,-5.0664,-4.9453,-4.8086,-4.7891,-4.6953,-4.5742,-4.5547,-4.5156,-4.4687,-4.4492,-4.457,-4.4726,-4.4726,-4.5195,0.0,0.0,0.0,0.0,0.0,0.0,0.0,0.0,0.0,-5.5,-5.6758,-5.7226,-5.8242,-6.1172,-6.1992,-6.2969,-6.5234,-6.6484,-6.7461,-6.832,-6.9726,-7.082,-7.1172,-7.1836,-7.2578,-7.3476,-7.4961,-7.5976,-7.6133,-7.6797,-7.7187,-7.7187,-7.7344,-7.7773,-7.8476,-7.8828,-7.9648,-8.0976,-8.1172,-8.1601,-8.2304,-8.2304,-8.2304,-8.2304,-8.2304,-8.2304,-8.2226,-8.1211,-8.0351,-7.957,-7.789,-7.7187,-7.7187,-7.7187,-7.7187,-7.7187,-7.7187,-7.7187,-7.7187,-2.6703,-2.686,-2.7135,-2.7998,-2.8896,-2.9758,-3.0622,-3.0857,-3.1483,-3.3047,-3.3359,-3.4023,-3.5664,-3.6641,-3.7851,-3.9609,-4.1289,-4.2656,-4.3633,-4.4414,-4.5273,-4.625,-4.7969,-4.8906,-4.8906,-5.0547,-5.1406,-5.1406,-5.3164,-5.3984,-5.4023,-5.5781,-5.6601,-5.6601,-5.6601,-5.6562,-5.6406,-5.5625,-5.4726,-5.3789,-5.3008,-5.2187,-5.1406,-5.1289,-5.0703,-4.9805,-4.9023,-4.8633,-4.8359,-4.7578,-4.7773,-4.8164,-4.7422,-4.7695,-4.832,-4.832,-4.8398,-4.8476,-4.8476,-4.9687,-5.1211,-5.2187,-5.3086,-5.4141,0.0,0.0,-5.6797,-5.8555,-5.9492,-6.0312,-6.1484,-6.2969,-6.4375,-6.543,-6.6992,-6.8359,-6.914,-7.0078,-7.1289,-7.2812,-7.3086,-7.3515,-7.4375,-7.5312,-7.6211,-7.6992,-7.7148,-7.7187,-7.7187,-7.793,-7.8398,-7.8515,-7.9922,-8.082,-8.1015,-8.1758,-8.2187,-8.2304,-8.2304,-8.2304,-8.2304,-8.2304,-8.2304,-8.2226,-8.0547,-7.9805,-7.957,-7.789,-7.7187,-7.7187,-7.7187,-7.7187,-7.7187,-7.7187,-7.7187,-7.7187,-2.6938,-2.7836,-2.8619,-2.8977,-2.9369,-2.9878,-3.0779,-3.1327,-3.207,-3.3242,-3.3828,-3.4648,-3.5859,-3.7226,-3.8555,-3.9805,-4.1445,-4.2773,-4.3633,-4.4531,-4.5391,-4.625,-4.7969,-4.8906,-4.8906,-5.0547,-5.1406,-5.1406,-5.3164,-5.3984,-5.4023,-5.5781,-5.6601,-5.6601,-5.6601,-5.6601,-5.6562,-5.6211,-5.5273,-5.3984,-5.3594,-5.2617,-5.1406,-5.1406,-5.1172,-5.0781,-4.9961,-4.9336,0.0,-4.8476,-4.8594,-4.8828,-4.8476,-4.8594,-4.8906,-4.8906,-4.9609,-5.0586,-5.1601,-5.2383,0.0,0.0,-5.5234,-5.5976,-5.7734,-5.8125,-5.8437,-5.9648,-6.0586,-6.1562,-6.2969,-6.4219,-6.5351,0.0,-6.7812,-6.9062,-6.9375,-7.0586,-7.1914,-7.3164,-7.375,-7.4414,-7.5273,-7.6133,-7.6797,-7.7187,-7.7187,-7.7187,-7.7187,-7.8047,-7.8711,-7.918,-8.0351,-8.125,-8.1758,-8.2109,-8.2304,-8.2304,-8.2304,-8.2304,-8.2304,-8.2304,-8.2304,-8.2187,-8.0469,-7.9687,-7.957,-7.789,-7.7187,-7.7187,-7.7187,-7.7187,-7.7187,-7.7187,-7.7187,-7.7187,-2.7601,-2.8733,-2.9674,-2.9917,-3.0152,-3.0505,-3.1171,-3.1797,-3.2578,-3.3633,-3.4297,-3.5234,-3.6562,-3.7851,-3.9062,-4.0156,-4.1797,-4.3047,-4.3672,-4.4726,-4.5625,-4.6289,-4.7969,-4.8906,-4.8906,-5.0547,-5.1406,-5.1406,-5.2891,-5.375,-5.4023,-5.5547,-5.6367,-5.6601,-5.6601,-5.6601,-5.6562,-5.6328,-5.5351,-5.3984,-5.375,-5.2734,-5.1406,-5.1406,-5.1406,-5.1328,-5.0742,-5.0117,-4.957,-4.9336,-4.9414,-4.9531,-4.9336,-4.957,-4.9961,-4.9961,-5.0976,-5.25,-5.4258,0.0,0.0,-5.6875,-5.7305,-5.7695,-5.918,-5.9531,-5.9844,-6.0898,-6.1601,-6.2578,-6.4336,-6.5156,-6.5898,-6.6758,-6.8359,-6.9453,-6.9414,-7.0898,-7.2422,-7.3515,-7.4219,-7.5039,-7.6133,-7.6836,-7.7187,-7.7187,-7.7187,-7.7305,-7.7539,-7.8359,-7.9219,-8.0039,-8.0898,-8.164,-8.2304,-8.2304,-8.2304,-8.2304,-8.2304,-8.2304,-8.2304,-8.2304,-8.2304,-8.2187,-8.0469,-7.9687,-7.957,-7.789,-7.7187,-7.7187,-7.7187,-7.7187,-7.7187,-7.7187,-7.7187,-7.7187,-2.9202,-2.9553,-2.987,-3.0698,-3.1519,-3.2068,-3.2148,-3.2187,-3.2773,-3.4453,-3.4687,-3.5664,-3.8242,-3.8555,-3.9297,-4.1016,-4.2695,-4.3672,-4.3711,-4.5312,-4.6289,-4.6289,-4.7969,-4.8906,-4.8906,-5.0547,-5.1406,-5.1406,-5.2305,-5.3164,-5.4023,-5.4922,-5.5781,-5.6601,-5.6601,-5.6601,-5.6523,-5.5703,-5.4805,-5.3945,-5.3086,-5.2187,-5.1406,-5.1406,-5.1406,-5.1406,-5.1367,-5.1367,-5.1211,-5.043,-5.0664,-5.1172,-5.0391,-5.1289,-5.2578,-5.2578,-5.3203,-5.4297,-5.6055,0.0,-5.6953,-5.8672,-5.9101,-5.9336,-6.0156,-6.0351,-6.0859,-6.2578,-6.293,-6.3476,-6.5234,-6.5586,-6.5898,-6.6758,-6.832,-6.9414,-6.9414,-7.0898,-7.2656,-7.4375,-7.457,-7.5273,0.0,-7.7187,-7.7187,-7.7187,-7.7187,-7.7578,-7.8437,-7.9219,-8.0078,-8.0937,-8.1797,-8.2265,-8.2304,-8.2304,-8.2304,-8.2304,-8.2304,-8.2304,-8.2304,-8.2304,-8.2304,-8.2187,-8.0469,-7.9687,-7.957,-7.789,-7.7187,-7.7187,-7.7187,-7.7187,-7.7187,-7.7187,-7.7187,-7.7187,-2.9475,-3.0021,-3.0687,-3.1552,-3.1908,-3.2497,-3.3671,-3.3867,-3.4062,-3.4648,-3.5703,0.0,0.0,0.0,0.0,0.0,-4.2734,-4.3711,-4.3711,-4.5312,-4.6289,-4.6289,-4.7969,-4.8906,-4.8906,-5.0547,-5.1406,-5.1406,-5.2266,-5.2851,-5.3164,-5.4023,-5.4609,-5.4883,-5.4883,-5.4883,-5.4844,-5.457,-5.3945,-5.3125,-5.2812,-5.2187,-5.1406,-5.1406,-5.1406,-5.1406,0.0,-5.1406,-5.1367,-5.1094,-5.1562,-5.2226,-5.1953,-5.2656,-5.3789,-5.4961,-5.5508,-5.6094,-5.7851,0.0,-5.8594,-5.9726,-6.0,-6.0234,-6.1055,-6.125,-6.1601,-6.2773,-6.3476,-6.4219,-6.539,-6.6055,-6.6562,-6.6836,-6.8359,-6.9453,-6.9453,-7.0937,-7.2656,-7.4375,-7.4609,0.0,0.0,0.0,0.0,-7.7187,-7.7187,-7.7578,-7.8437,-7.9258,-8.0117,-8.0976,-8.1836,-8.2304,-8.2304,-8.2304,-8.2304,-8.2304,-8.2304,-8.2304,-8.2304,-8.2304,-8.2304,-8.2187,-8.0469,-7.9687,-7.957,-7.789,-7.7187,-7.7187,-7.7187,-7.7187,-7.7187,-7.7187,-7.7187,-7.7187,0.0,-3.0684,-3.1427,-3.2018,-3.2609,0.0,0.0,0.0,0.0,0.0,0.0,0.0,0.0,0.0,0.0,0.0,0.0,-4.3711,-4.3711,-4.5312,-4.6289,-4.6289,-4.7969,-4.8906,-4.8906,-5.0547,-5.1406,-5.1406,-5.1953,-5.2383,-5.2695,-5.3281,-5.3711,-5.3984,-5.3984,-5.3984,-5.3984,-5.3672,-5.3203,-5.2656,-5.2344,-5.1914,-5.1406,-5.1406,-5.1406,0.0,-5.1406,-5.1406,-5.1406,-5.1406,-5.1992,-5.2695,-5.2695,-5.3711,-5.5195,-5.664,-5.7305,-5.7851,-5.9258,-5.9648,-5.9844,-6.0664,-6.0859,-6.1015,-6.1562,-6.1719,-6.1953,-6.2812,-6.3672,-6.457,-6.543,-6.6328,-6.6914,-6.6914,-6.8359,-6.9453,-6.9453,-7.0937,-7.2656,-7.4375,-7.4609,-7.5273,0.0,0.0,0.0,-7.7187,-7.7187,-7.7695,-7.8867,-7.9414,-8.0234,-8.1445,-8.1992,-8.2304,-8.2304,-8.2304,-8.2304,-8.2304,-8.2304,-8.2304,-8.2304,-8.2304,-8.2304,-8.2187,-8.0469,-7.9687,-7.957,-7.789,-7.7187,-7.7187,-7.7187,-7.7187,-7.7187,-7.7187,-7.7187,-7.7187,0.0,0.0,-3.2092,0.0,0.0,0.0,0.0,0.0,0.0,0.0,0.0,0.0,0.0,0.0,0.0,0.0,0.0,0.0,-4.375,-4.5351,-4.6289,-4.6289,-4.7969,-4.8906,-4.8906,-5.0547,-5.1406,-5.1406,-5.1406,-5.1836,-5.2617,-5.2617,-5.3086,-5.3867,-5.3867,-5.3867,-5.3828,-5.2969,-5.2617,-5.2578,-5.1719,-5.1406,-5.1406,-5.1406,-5.1406,-5.1406,-5.1406,-5.1406,-5.1406,-5.1445,-5.207,-5.2851,-5.293,0.0,0.0,0.0,0.0,-5.9453,-6.0234,-6.0469,-6.0664,-6.1484,-6.1719,-6.1719,-6.1719,-6.1719,-6.1953,-6.2812,-6.3672,-6.4492,0.0,-6.625,-6.6836,-6.6836,-6.8242,-6.9336,-6.9414,-7.0859,-7.2578,0.0,0.0,0.0,0.0,0.0,0.0,-7.7187,0.0,-7.793,-7.9609,-7.9687,-8.0508,-8.2226,-8.2304,-8.2304,-8.2304,-8.2304,-8.2304,-8.2304,-8.2304,-8.2304,-8.2304,-8.2304,-8.2265,-8.2148,-8.0429,-7.9687,-7.9492,-7.7851,-7.7187,-7.7187,-7.7187,-7.7187,-7.7187,-7.7187,-7.7187,-7.7187,0.0,0.0,0.0,0.0,0.0,0.0,0.0,0.0,0.0,0.0,0.0,0.0,0.0,0.0,0.0,0.0,0.0,0.0,-4.4648,-4.5703,-4.6289,-4.6289,-4.7969,-4.8906,-4.8906,-5.0547,-5.1406,-5.1406,-5.1406,-5.1523,-5.1719,-5.1719,-5.1836,-5.207,-5.207,-5.207,-5.2031,-5.1836,-5.1719,-5.1719,-5.1484,-5.1406,-5.1406,-5.1406,-5.1406,-5.1406,-5.1406,-5.1406,-5.1484,-5.2148,0.0,0.0,0.0,0.0,-5.7851,0.0,0.0,-6.0273,-6.1133,-6.1367,-6.1406,-6.164,-6.1719,-6.1719,-6.1719,-6.1719,-6.1953,-6.2812,-6.3164,-6.3594,-6.4453,-6.5351,-6.5937,-6.5937,-6.7383,0.0,-6.9375,-7.0351,0.0,-7.3437,0.0,-7.5039,-7.6133,-7.6836,0.0,0.0,-7.7187,-7.793,-7.9609,-7.9687,-8.0508,-8.2226,-8.2304,-8.2304,-8.2304,-8.2304,-8.2304,-8.2304,-8.2304,-8.2304,-8.2304,-8.2304,-8.1953,-8.1289,-8.0156,-7.9375,-7.8711,-7.7656,-7.7187,-7.7187,-7.7187,-7.7187,-7.7187,-7.7187,-7.7187,-7.7187,0.0,0.0,0.0,0.0,0.0,0.0,0.0,0.0,0.0,0.0,0.0,0.0,0.0,0.0,0.0,0.0,0.0,0.0,0.0,-4.582,-4.6289,-4.6289,-4.7969,-4.8906,-4.8906,-5.0547,-5.1406,-5.1406,-5.1406,-5.1406,-5.1406,-5.1406,-5.1406,-5.1406,-5.1406,-5.1406,-5.1406,-5.1406,-5.1406,0.0,0.0,-5.1406,-5.1406,-5.1406,-5.1406,-5.1406,-5.1406,-5.1875,-5.2617,0.0,0.0,-5.5586,-5.7344,-5.8164,-5.8711,-6.0039,0.0,-6.1094,-6.1562,-6.1719,-6.1719,-6.1719,-6.1719,-6.1719,-6.1719,-6.1719,-6.1836,-6.2344,-6.2734,0.0,-6.3633,-6.4453,0.0,0.0,0.0,0.0,-6.9297,-7.0156,-7.1367,0.0,-7.4062,0.0,-7.582,-7.668,-7.7187,0.0,-7.7187,-7.793,-7.9609,-7.9687,-8.0508,-8.2226,-8.2304,-8.2304,-8.2304,-8.2304,-8.2304,-8.2304,-8.2304,-8.2304,-8.2304,-8.2304,-8.1836,-8.0937,-8.0078,-7.9258,-7.8437,-7.7578,-7.7187,-7.7187,-7.7187,-7.7187,-7.7187,-7.7187,-7.7187,-7.7187,0.0,0.0,0.0,0.0,0.0,0.0,0.0,0.0,0.0,0.0,-4.0078,-4.0391,0.0,0.0,0.0,0.0,0.0,0.0,0.0,0.0,-4.6367,-4.6484,-4.8047,-4.8945,-4.9062,-5.0586,-5.1406,-5.1406,-5.1406,-5.1406,-5.1406,-5.1406,-5.1406,-5.1406,-5.1406,-5.1406,-5.1406,-5.1406,-5.1406,-5.1406,-5.1406,-5.1406,-5.1406,0.0,-5.1406,-5.1406,-5.1406,-5.2539,0.0,0.0,-5.4648,-5.5781,-5.7539,-5.8594,-5.9375,-6.0312,-6.1094,-6.1719,-6.1719,-6.1719,-6.1719,-6.1719,-6.1719,-6.1719,-6.1719,-6.1719,-6.1719,-6.1719,0.0,-6.2812,-6.2812,-6.3555,-6.4414,-6.5273,0.0,-6.7344,-6.914,-7.0078,-7.1172,-7.293,-7.3984,-7.4883,-7.5664,-7.6601,-7.7187,-7.7187,-7.7187,-7.793,-7.9609,-7.9687,-8.0508,-8.2226,-8.2304,-8.2304,-8.2304,-8.2304,-8.2304,-8.2304,-8.2304,-8.2304,-8.2304,-8.2304,-8.1758,-8.0781,-8.0039,-7.918,-7.8281,-7.75,-7.7187,-7.7187,-7.7187,-7.7187,-7.7187,-7.7187,-7.7187,-7.7187,0.0,0.0,0.0,0.0,0.0,0.0,0.0,0.0,0.0,0.0,-4.0976,-4.1289,0.0,0.0,0.0,0.0,0.0,0.0,0.0,0.0,0.0,-4.7344,-4.8359,-4.9258,-4.9961,-5.0898,-5.1406,-5.1406,-5.1406,-5.1406,-5.1406,-5.1406,-5.1406,-5.1406,-5.1406,-5.1406,-5.1406,-5.1406,-5.1406,-5.1406,-5.1406,-5.1406,-5.1406,-5.1406,0.0,0.0,-5.1406,-5.2539,-5.3984,-5.3984,-5.5078,-5.668,-5.8437,-5.9062,-5.9492,-6.1015,-6.1562,-6.1719,-6.1719,-6.1719,-6.1719,-6.1719,-6.1719,-6.1719,-6.1719,-6.1719,0.0,0.0,-6.1836,-6.1914,-6.1914,-6.2656,0.0,-6.4375,0.0,0.0,0.0,0.0,-7.0312,0.0,0.0,0.0,0.0,0.0,0.0,0.0,0.0,-7.793,-7.9609,-7.9687,-8.0508,-8.2226,-8.2304,-8.2304,-8.2304,-8.2304,-8.2304,-8.2304,-8.2304,-8.2304,-8.2304,-8.2304,-8.1445,-7.9922,-7.9765,0.0,-7.7422,-7.7265,-7.7187,-7.7187,-7.7187,-7.7187,-7.7187,-7.7187,-7.7187,-7.7187,0.0,0.0,0.0,0.0,0.0,0.0,0.0,-4.0267,-4.0856,-4.1718,-4.1835,-4.1953,-4.2344,-4.3203,-4.4101,0.0,0.0,0.0,0.0,0.0,0.0,-4.7578,-4.8867,-4.9766,-5.0195,-5.0976,-5.1406,-5.1406,0.0,-5.1406,-5.1406,-5.1406,-5.1406,-5.1406,-5.1406,-5.1406,-5.1406,-5.1406,-5.1406,-5.1406,-5.1406,-5.1406,-5.1406,0.0,0.0,0.0,0.0,0.0,-5.3398,-5.3867,-5.4844,-5.6211,-5.7969,-5.8828,-5.9453,-6.0664,-6.1328,-6.1719,-6.1719,-6.1719,-6.1719,-6.1719,-6.1719,-6.1719,-6.1719,0.0,0.0,0.0,-6.0703,-6.0547,-6.0937,0.0,0.0,0.0,0.0,0.0,0.0,0.0,0.0,0.0,0.0,0.0,0.0,0.0,0.0,0.0,0.0,-7.793,-7.9609,-8.0547,-8.1445,-8.2265,-8.2304,-8.2304,-8.2304,-8.2304,-8.2304,-8.2304,-8.2304,-8.2304,-8.2304,-8.2304,-8.1367,-7.9687,-7.9687,-7.875,-7.7187,-7.7187,-7.7187,-7.7187,-7.7187,-7.7187,-7.7187,-7.7187,-7.7187,-7.7187,0.0,0.0,0.0,0.0,0.0,0.0,-4.0025,-4.085,-4.1634,-4.2302,-4.2732,-4.2967,-4.2969,-4.418,-4.5078,0.0,0.0,0.0,0.0,0.0,0.0,0.0,0.0,0.0,0.0,0.0,0.0,0.0,-5.1406,0.0,0.0,0.0,0.0,0.0,0.0,-5.1406,-5.1406,-5.1406,-5.1406,0.0,0.0,-5.1406,0.0,0.0,0.0,0.0,0.0,0.0,0.0,0.0,-5.457,-5.5586,-5.7148,-5.8359,-5.9375,-6.0156,-6.1015,-6.1719,-6.1719,-6.1719,-6.1719,-6.1719,-6.1562,-6.1406,-6.1406,-6.0742,0.0,0.0,-5.9648,-5.9453,-6.0234,0.0,0.0,0.0,0.0,0.0,0.0,0.0,0.0,0.0,0.0,0.0,0.0,0.0,0.0,0.0,0.0,0.0,-7.9609,-8.1367,-8.2304,-8.2304,-8.2304,-8.2304,-8.2304,-8.2304,-8.2304,-8.2304,-8.2304,-8.2304,-8.2304,-8.2109,-8.1172,-7.9687,-7.9531,-7.8594,-7.7187,-7.7187,-7.7187,-7.7187,-7.7187,-7.7187,-7.7187,-7.7187,-7.7187,-7.7187,0.0,0.0,0.0,0.0,0.0,0.0,-4.0844,-4.1704,-4.2293,-4.2375,-4.3782,-4.476,-4.4764,-4.4882,-4.5312,0.0,0.0,0.0,0.0,0.0,0.0,0.0,0.0,0.0,0.0,0.0,0.0,0.0,0.0,0.0,0.0,0.0,0.0,0.0,0.0,0.0,-5.1406,-5.1406,0.0,0.0,0.0,0.0,0.0,0.0,0.0,0.0,0.0,0.0,0.0,0.0,0.0,-5.5469,-5.6406,-5.7851,-5.9375,-6.0156,0.0,0.0,-6.1719,-6.1719,-6.1719,-6.1719,-6.1094,-6.0508,-6.0508,0.0,-5.9297,-5.9297,-5.9258,-5.9453,-6.0234,-6.039,-6.0976,0.0,0.0,-6.4922,0.0,0.0,0.0,0.0,0.0,0.0,0.0,0.0,0.0,0.0,0.0,0.0,-7.9648,-8.1367,-8.2304,-8.2304,-8.2304,-8.2304,-8.2304,-8.2304,-8.2304,-8.2304,-8.2304,-8.2304,-8.2265,-8.1484,-8.0586,-7.9648,-7.8945,-7.8086,0.0,-7.7187,-7.7187,-7.7187,-7.7187,-7.7187,-7.7187,-7.7187,-7.7187,-7.7187,0.0,0.0,0.0,0.0,0.0,0.0,-4.1657,-4.2166,-4.2794,-4.3815,-4.4559,-4.5186,-4.5737,-4.6246,-4.6717,-4.7031,-4.7383,0.0,0.0,0.0,0.0,0.0,0.0,0.0,0.0,0.0,-5.1406,-5.1406,-5.1406,0.0,0.0,0.0,0.0,0.0,0.0,0.0,-5.1406,-5.1406,0.0,0.0,0.0,0.0,0.0,0.0,0.0,0.0,0.0,0.0,0.0,0.0,0.0,0.0,-5.5547,-5.6992,0.0,0.0,-5.9844,-6.0937,-6.0937,-6.0937,-6.0937,-6.0937,-6.0273,-5.9687,-5.9687,-5.9023,-5.8437,-5.8437,-5.8008,-5.789,-5.875,-5.9336,-6.0078,-6.125,-6.3047,0.0,0.0,0.0,0.0,0.0,0.0,0.0,0.0,0.0,0.0,0.0,0.0,0.0,-7.9648,-8.0859,-8.1758,-8.2265,-8.2304,-8.2304,-8.2304,-8.2304,-8.2304,-8.2304,-8.2304,-8.2304,-8.2265,-8.1406,-8.0508,-7.9648,-7.8867,-7.8008,0.0,-7.7187,-7.7187,-7.7187,-7.7187,-7.7187,-7.7187,-7.7187,-7.7187,-7.7187,0.0,0.0,0.0,0.0,0.0,-4.0678,-4.2162,-4.263,-4.3334,-4.4824,-4.5215,-4.5609,-4.624,-4.7099,-4.7688,-4.7968,-4.8203,0.0,0.0,0.0,0.0,0.0,0.0,0.0,0.0,0.0,-5.1523,-5.1797,-5.1797,-5.1914,0.0,0.0,0.0,0.0,0.0,0.0,0.0,0.0,0.0,0.0,0.0,0.0,0.0,0.0,0.0,0.0,0.0,0.0,0.0,0.0,0.0,0.0,0.0,-5.5937,-5.7226,0.0,-5.8906,-6.0039,-6.0039,-6.0039,-6.0039,-6.0039,-5.9414,-5.8828,0.0,-5.8125,-5.7539,-5.7539,-5.7031,-5.6875,-5.7734,-5.8594,-5.9453,-6.0273,-6.2578,-6.4297,0.0,0.0,0.0,0.0,0.0,0.0,0.0,0.0,0.0,0.0,0.0,0.0,-7.9648,-8.0273,-8.1133,-8.2265,-8.2304,-8.2304,-8.2304,-8.2304,-8.2304,-8.2304,-8.2304,-8.2304,-8.2265,-8.1133,-8.0273,-7.9648,-7.8594,-7.7773,0.0,-7.7187,-7.7187,-7.7187,-7.7187,-7.7187,-7.7187,-7.7187,-7.7187,-7.7187,0.0,0.0,0.0,0.0,0.0,-4.1381,-4.2279,-4.3138,-4.3997,-4.4894,-4.5753,-4.6303,-4.6312,-4.7093,-4.7954,-4.882,-4.9684,0.0,0.0,0.0,0.0,0.0,0.0,0.0,-5.1406,-5.1406,-5.1836,-5.2695,-5.2695,-5.3125,-5.3945,-5.3086,-5.2695,-5.2656,0.0,0.0,0.0,0.0,-5.1406,0.0,0.0,0.0,-5.1406,0.0,0.0,0.0,0.0,0.0,0.0,0.0,0.0,0.0,0.0,-5.4609,-5.5664,-5.7383,-5.8515,-5.9219,-5.9219,-5.9219,-5.9219,-5.9219,-5.8555,-5.789,0.0,-5.7226,-5.6601,-5.6601,-5.6601,-5.6875,-5.7734,-5.8594,-5.9453,-6.0273,-6.2578,0.0,0.0,0.0,0.0,0.0,0.0,0.0,0.0,0.0,0.0,0.0,0.0,0.0,-7.9609,-7.9726,-8.0508,-8.2265,-8.2304,-8.2304,-8.2304,-8.2304,-8.2304,-8.2304,-8.2304,-8.2304,-8.2226,-8.0508,-7.9726,-7.9609,-7.793,-7.7226,0.0,-7.7187,-7.7187,-7.7187,-7.7187,-7.7187,-7.7187,-7.7187,-7.7187,-7.7187,0.0,0.0,0.0,0.0,0.0,0.0,-4.306,-4.3528,-4.4231,-4.5714,-4.6144,-4.6536,-4.7123,-4.7943,-4.8766,-4.9634,-4.9952,0.0,0.0,0.0,0.0,0.0,0.0,0.0,-5.2266,-5.2305,-5.2734,-5.3594,-5.3594,-5.3711,-5.3984,-5.3711,-5.3594,-5.3555,-5.2695,-5.2305,0.0,-5.1641,-5.1406,0.0,0.0,-5.1406,-5.1406,0.0,0.0,0.0,0.0,0.0,0.0,0.0,0.0,0.0,0.0,0.0,0.0,-5.5078,-5.6719,-5.832,-5.832,-5.832,-5.832,-5.832,-5.7656,-5.6992,-5.6992,-5.6797,-5.6601,-5.6601,-5.6601,-5.668,-5.6953,-5.8203,-5.9297,-5.9531,-6.2226,0.0,0.0,0.0,0.0,0.0,0.0,0.0,0.0,0.0,0.0,0.0,0.0,0.0,-7.9609,-7.9687,-8.0508,-8.2226,-8.2304,-8.2304,-8.2304,-8.2304,-8.2304,-8.2304,-8.2304,-8.1992,-8.1367,-8.0234,-7.9414,-7.8828,-7.7695,-7.7187,-7.7187,-7.7187,-7.7187,-7.7187,-7.7187,-7.7187,-7.7187,-7.7187,-7.7187,-7.7187,0.0,0.0,0.0,0.0,0.0,0.0,-4.3413,-4.3686,-4.4348,-4.6066,-4.63,-4.6612,-4.7508,-4.833,-4.9151,-5.0016,-5.0412,0.0,0.0,0.0,0.0,0.0,0.0,0.0,-5.3164,-5.3203,-5.3633,-5.4492,-5.4492,-5.4648,-5.4961,-5.4648,-5.4492,-5.4453,-5.3594,-5.3008,0.0,-5.1758,-5.1406,-5.1406,-5.1406,-5.1406,-5.1406,0.0,0.0,0.0,0.0,0.0,0.0,0.0,0.0,0.0,0.0,0.0,0.0,0.0,-5.4883,-5.6484,-5.6836,-5.7148,-5.7422,-5.7422,-5.6992,-5.6601,-5.6601,-5.6601,-5.6601,-5.6601,-5.6601,-5.6719,-5.7031,-5.8242,-5.9414,-6.0039,-6.2461,0.0,0.0,0.0,0.0,0.0,0.0,0.0,0.0,0.0,0.0,0.0,0.0,0.0,-7.918,-7.9531,-8.0351,-8.1758,-8.2148,-8.2304,-8.2304,-8.2304,-8.2304,-8.2304,-8.2304,-8.1836,-8.0976,-8.0117,-7.9258,-7.8437,-7.7578,-7.7187,0.0,-7.7187,-7.7187,-7.7187,-7.7187,-7.7187,-7.7187,-7.7187,-7.7187,-7.7187,0.0,0.0,0.0,0.0,0.0,0.0,0.0,-4.3762,-4.4387,-4.6066,-4.63,-4.6651,-4.7586,-4.8369,-4.9189,-5.0124,-5.0945,0.0,0.0,0.0,0.0,0.0,0.0,-5.3123,-5.406,-5.4101,-5.4531,-5.539,-5.539,-5.582,-5.6562,-5.5781,-5.539,-5.5351,-5.4492,-5.3555,-5.2656,-5.1758,-5.1406,-5.1406,-5.1406,-5.1406,0.0,0.0,0.0,0.0,0.0,0.0,0.0,0.0,0.0,0.0,0.0,0.0,0.0,0.0,0.0,0.0,0.0,-5.5781,-5.6523,-5.6523,-5.6562,-5.6601,-5.6601,-5.6601,0.0,-5.6601,-5.664,-5.6953,-5.7734,-5.8672,-5.9805,-6.1445,0.0,0.0,0.0,0.0,0.0,0.0,0.0,0.0,0.0,0.0,0.0,0.0,0.0,0.0,-7.8437,-7.9219,-8.0,-8.0898,-8.1679,-8.2187,-8.2304,-8.2304,-8.2265,-8.2226,-8.2226,-8.1719,-8.0781,-7.9961,-7.918,0.0,-7.7539,-7.7187,-7.7187,-7.7187,-7.7187,-7.7187,-7.7187,-7.7187,-7.7187,-7.7187,-7.7187,-7.7187,0.0,0.0,0.0,0.0,0.0,0.0,0.0,0.0,0.0,0.0,-4.63,-4.6885,-4.8369,-4.8681,-4.9423,0.0,0.0,0.0,0.0,0.0,0.0,0.0,-5.2686,-5.3431,-5.4953,-5.4997,-5.5428,-5.6288,-5.6289,-5.6406,-5.6601,-5.6406,-5.6289,-5.625,-5.539,-5.4141,-5.2656,-5.1758,-5.1406,-5.1406,-5.1406,-5.1406,0.0,0.0,0.0,0.0,-4.9453,-4.9062,0.0,0.0,0.0,0.0,0.0,0.0,0.0,0.0,-5.2305,-5.3047,-5.3242,0.0,-5.5625,-5.5625,-5.6094,-5.6601,0.0,-5.6601,-5.6601,-5.6601,-5.7148,-5.7656,-5.7851,-5.9101,-6.0469,0.0,0.0,0.0,0.0,0.0,0.0,0.0,0.0,0.0,0.0,0.0,0.0,0.0,0.0,-7.7578,-7.8437,-7.8672,-7.914,-7.9961,-8.0195,-8.0937,-8.2304,-8.2304,-8.1953,-8.1328,-8.1328,-8.0547,-7.9062,-7.8867,-7.832,-7.75,-7.7305,-7.7187,-7.7187,-7.7187,-7.7187,-7.7187,-7.7187,-7.7187,-7.7187,-7.7187,-7.7187,-7.7187,0.0,0.0,0.0,0.0,0.0,0.0,0.0,0.0,0.0,0.0,-4.63,-4.6924,-4.8603,-4.8798,-4.9501,0.0,0.0,0.0,0.0,0.0,0.0,-5.3256,-5.3695,-5.4518,-5.5885,-5.5891,-5.6128,-5.6597,-5.6599,-5.66,-5.6601,-5.6601,-5.6601,-5.6562,-5.5703,-5.4531,-5.3242,-5.2383,-5.1758,-5.1406,-5.1406,0.0,0.0,0.0,0.0,0.0,-4.8476,-4.8047,0.0,-4.8164,-4.8281,-4.8476,0.0,0.0,0.0,0.0,-5.1445,-5.2109,-5.2109,-5.3672,-5.5312,-5.5312,-5.5976,-5.6601,-5.6601,-5.6601,-5.6719,-5.7109,0.0,0.0,-5.8906,0.0,0.0,0.0,0.0,0.0,0.0,0.0,0.0,0.0,0.0,0.0,0.0,0.0,0.0,0.0,0.0,-7.7422,-7.789,-7.8281,-7.8711,-7.914,-7.9492,-8.0156,-8.1094,-8.1094,-8.0859,-8.039,-8.039,-7.9726,-7.8515,-7.8515,-7.8008,-7.7187,-7.7187,-7.7187,-7.7187,-7.7187,-7.7187,-7.7187,-7.7187,-7.7187,-7.7187,-7.7187,-7.7187,-7.7187,0.0,0.0,0.0,0.0,0.0,0.0,0.0,0.0,0.0,0.0,0.0,0.0,0.0,0.0,0.0,0.0,0.0,0.0,0.0,0.0,0.0,-5.3951,-5.482,-5.5721,-5.6579,-5.6588,-5.6592,-5.6592,-5.6592,-5.6595,-5.6599,-5.6599,-5.66,-5.6562,-5.5703,-5.4805,-5.3945,-5.3086,-5.2187,-5.1406,-5.1406,0.0,0.0,0.0,0.0,0.0,0.0,0.0,0.0,-4.7148,-4.7383,-4.7539,-4.8437,0.0,0.0,0.0,0.0,0.0,-5.1367,-5.3203,-5.5117,-5.5117,-5.5859,-5.6601,-5.6601,-5.6719,0.0,0.0,0.0,0.0,0.0,-6.1328,0.0,0.0,0.0,0.0,0.0,0.0,0.0,0.0,0.0,0.0,0.0,0.0,0.0,0.0,0.0,-7.7187,-7.7187,-7.789,-7.8281,-7.8281,-7.8945,-7.9336,-7.9336,-7.957,-7.9648,-7.9531,-7.9531,-7.9101,-7.8281,-7.8281,-7.789,-7.7187,0.0,0.0,-7.7187,-7.7187,-7.7187,-7.7187,-7.7187,-7.7187,-7.7187,-7.7184,-7.7184,-7.7144,0.0,0.0,0.0,0.0,0.0,0.0,0.0,0.0,0.0,0.0,0.0,0.0,0.0,0.0,0.0,0.0,0.0,0.0,0.0,0.0,0.0,-5.3951,-5.4812,-5.571,-5.6569,-5.6618,-5.6584,-5.6584,-5.6591,-5.6593,-5.6594,-5.6594,-5.6597,-5.6561,-5.5703,-5.4805,-5.3945,-5.3086,-5.2187,-5.1406,-5.1406,0.0,0.0,0.0,0.0,0.0,0.0,0.0,0.0,-4.6445,-4.6484,-4.6641,-4.7539,0.0,0.0,0.0,0.0,0.0,-5.1211,-5.2773,-5.4219,-5.4219,-5.539,-5.6601,-5.6601,-5.7187,-5.7734,0.0,0.0,0.0,0.0,-6.2226,0.0,0.0,0.0,0.0,0.0,0.0,0.0,0.0,0.0,0.0,0.0,0.0,0.0,0.0,0.0,-7.7187,-7.7187,-7.7344,-7.7383,-7.7383,-7.7539,-7.7578,-7.7578,-7.8984,-7.9375,-7.8672,-7.8672,-7.8242,-7.7383,-7.7383,-7.7344,-7.7187,0.0,-7.7187,-7.7187,-7.7187,-7.7187,-7.7185,-7.7185,-7.7183,-7.7101,-7.7139,-7.7139,-7.7021,0.0,0.0,0.0,0.0,0.0,0.0,0.0,0.0,0.0,0.0,0.0,0.0,0.0,0.0,0.0,0.0,0.0,0.0,0.0,-5.2234,-5.3093,-5.3951,-5.481,-5.5708,-5.6567,-5.661,-5.6612,-5.6612,-5.6618,-5.6584,-5.6587,-5.6591,-5.6596,-5.6599,-5.6171,-5.5273,-5.3984,-5.3555,-5.2617,-5.1406,0.0,0.0,0.0,0.0,0.0,0.0,0.0,0.0,0.0,0.0,-4.6289,-4.6367,-4.6758,0.0,0.0,0.0,0.0,0.0,-5.1172,-5.2656,-5.3984,-5.3984,-5.5312,-5.6719,-5.7187,-5.7617,-5.8164,0.0,0.0,0.0,0.0,0.0,0.0,0.0,0.0,0.0,0.0,0.0,0.0,0.0,0.0,0.0,0.0,0.0,0.0,0.0,0.0,0.0,-7.7187,-7.7185,-7.7145,-7.7145,-7.7145,-7.7145,-7.7145,-7.7927,-7.8123,-7.7812,-7.7812,-7.7576,-7.7145,-7.7145,-7.7145,-7.7145,0.0,-7.7145,-7.7145,-7.7145,-7.7144,-7.7142,-7.7142,-7.7139,-7.7097,-7.7093,-7.6814,-7.6263,0.0,0.0,0.0,0.0,0.0,0.0,0.0,0.0,0.0,0.0,0.0,0.0,0.0,0.0,0.0,0.0,0.0,0.0,0.0,-5.2038,-5.278,-5.3678,-5.4537,-5.5513,-5.6567,-5.6606,-5.6606,-5.6606,-5.6606,-5.661,-5.6618,-5.6587,-5.6593,-5.6597,-5.6597,-5.5623,-5.3984,-5.3984,-5.3008,-5.1406,0.0,0.0,0.0,0.0,0.0,0.0,0.0,0.0,0.0,0.0,0.0,0.0,0.0,0.0,0.0,-4.8594,-4.9375,-5.0117,-5.1133,-5.2656,-5.3984,-5.3984,-5.5469,-5.707,-5.7734,-5.8203,-5.8906,-6.039,-6.1406,0.0,0.0,0.0,0.0,0.0,0.0,0.0,0.0,0.0,0.0,0.0,0.0,0.0,0.0,0.0,0.0,0.0,0.0,0.0,-7.7183,-7.7141,-7.7099,-7.7099,-7.7099,-7.7099,-7.7099,-7.7099,-7.7139,-7.7183,-7.7183,-7.7142,-7.7099,-7.7099,-7.7099,-7.7099,-7.7099,-7.7099,-7.7099,-7.7099,-7.7097,-7.7096,-7.7096,-7.7094,-7.7091,-7.7083,-7.6566,-7.5699,0.0,0.0,0.0,0.0,0.0,0.0,0.0,0.0,0.0,0.0,0.0,0.0,0.0,0.0,0.0,0.0,0.0,0.0,0.0,-5.1453,-5.1882,-5.2743,-5.3639,-5.4888,-5.6567,-5.6606,-5.6606,-5.6606,-5.6606,-5.6606,-5.6606,-5.6618,-5.6584,-5.6584,-5.6591,-5.5619,-5.3982,-5.3982,-5.3007,-5.1406,-5.1406,0.0,0.0,0.0,0.0,0.0,0.0,0.0,0.0,0.0,0.0,0.0,0.0,0.0,-4.6719,-4.8398,-4.8945,-4.9336,-5.0976,-5.2656,-5.3984,-5.3984,-5.5937,-5.7812,-5.789,-5.9101,-6.0469,-6.1406,-6.2305,0.0,0.0,0.0,0.0,0.0,0.0,0.0,0.0,0.0,0.0,0.0,0.0,0.0,0.0,0.0,0.0,0.0,0.0,0.0,-7.7099,-7.7099,-7.7099,-7.7099,-7.7099,-7.7099,-7.7099,-7.7099,-7.7099,-7.7099,-7.7099,-7.7099,-7.7099,-7.7099,-7.7099,-7.7099,-7.7099,-7.7099,-7.7099,-7.7099,-7.7093,-7.7085,-7.7085,-7.7117,-7.7104,-7.7104,-7.6558,-7.5699,0.0,0.0,0.0,0.0,0.0,0.0,0.0,0.0,0.0,0.0,0.0,0.0,0.0,0.0,0.0,0.0,0.0,0.0,-5.1414,-5.1414,-5.1804,-5.2665,-5.3522,-5.4576,-5.5786,-5.6333,-5.6606,-5.6606,-5.6606,-5.6606,-5.6606,-5.661,-5.6614,-5.6582,-5.6585,-5.5614,-5.4018,-5.3981,-5.3006,-5.1406,-5.1406,-5.0391,0.0,0.0,0.0,0.0,0.0,0.0,0.0,0.0,-4.6289,-4.6289,-4.6289,-4.6289,-4.6641,-4.8398,-4.8906,-4.9258,-5.0937,-5.2656,-5.3984,-5.3984,-5.6367,-5.8711,-5.8711,-6.0,-6.1445,-6.2344,-6.3633,-6.5156,0.0,0.0,0.0,0.0,0.0,0.0,0.0,0.0,0.0,0.0,0.0,0.0,0.0,0.0,0.0,0.0,0.0,0.0,-7.7089,-7.7083,-7.7117,-7.7117,-7.7117,-7.7117,-7.7117,-7.7117,-7.7117,-7.7117,-7.7087,-7.7087,-7.7117,-7.7117,-7.7117,-7.7117,-7.7117,-7.7117,-7.7117,-7.7117,-7.7115,-7.711,-7.711,-7.7107,-7.7023,-7.6477,-7.5735,-7.4876,0.0,0.0,0.0,0.0,0.0,0.0,0.0,0.0,0.0,0.0,0.0,0.0,0.0,0.0,0.0,0.0,0.0,0.0,-5.1414,-5.1414,-5.1687,-5.2273,-5.3132,-5.399,-5.4888,-5.5747,-5.6333,-5.6606,-5.6606,-5.6606,-5.6606,-5.6606,-5.661,-5.6616,-5.6616,-5.5645,-5.4013,-5.4016,-5.3004,-5.1405,-5.1406,-5.039,0.0,0.0,0.0,0.0,0.0,0.0,0.0,0.0,-4.6289,-4.6289,-4.6289,-4.6289,-4.6601,-4.8047,-4.8672,-4.9219,-5.0625,-5.2461,-5.4062,-5.4336,-5.6836,-5.9336,-5.9883,-6.1094,-6.2344,-6.3242,-6.5039,-6.6875,-6.832,0.0,0.0,0.0,0.0,0.0,0.0,0.0,0.0,0.0,0.0,0.0,0.0,0.0,0.0,0.0,0.0,0.0,0.0,-7.7107,-7.7101,-7.7101,-7.7101,-7.7101,-7.7101,-7.7101,-7.7101,-7.7101,-7.7112,-7.7112,-7.7101,-7.7101,-7.7101,-7.7101,-7.7101,-7.7101,-7.7101,-7.7101,-7.7101,-7.7101,-7.7101,-7.7101,-7.6984,-7.6125,-7.5266,-7.4369,0.0,0.0,0.0,0.0,0.0,0.0,0.0,0.0,-4.63,-4.63,-4.63,0.0,0.0,0.0,0.0,0.0,0.0,0.0,-5.1414,-5.1414,-5.1414,-5.1414,-5.2234,-5.3093,-5.3951,-5.4849,-5.5747,-5.6606,-5.6606,-5.6606,-5.6606,-5.6606,-5.6606,-5.6606,-5.6606,-5.5636,-5.4005,-5.4005,-5.2997,-5.1405,-5.1405,-5.039,-4.8906,0.0,0.0,0.0,0.0,0.0,0.0,0.0,-4.6289,-4.6289,-4.6289,-4.6289,-4.6484,-4.7344,-4.8203,-4.9101,-4.9961,-5.207,-5.4219,-5.5078,-5.7265,-5.9648,-6.1326,-6.2382,-6.3242,-6.414,-6.6406,-6.8476,-6.9256,-7.0114,0.0,-7.1864,0.0,0.0,0.0,0.0,0.0,0.0,0.0,0.0,0.0,0.0,0.0,0.0,0.0,0.0,-7.7101,-7.7101,-7.7101,-7.7101,-7.7101,-7.7101,-7.7101,-7.7101,-7.7101,-7.7101,-7.7101,-7.7101,-7.7101,-7.7101,-7.7101,-7.7101,-7.7101,-7.7101,-7.7101,-7.7101,-7.7101,-7.7101,-7.7101,-7.7101,-7.6984,-7.6125,-7.5227,-7.4369,0.0,0.0,0.0,0.0,0.0,0.0,0.0,0.0,-4.629,-4.629,-4.6296,0.0,0.0,0.0,0.0,0.0,0.0,0.0,-5.1375,-5.1414,-5.1414,-5.1414,-5.2234,-5.2821,-5.3093,-5.4537,-5.5747,-5.6606,-5.6606,-5.6606,-5.6606,-5.6606,-5.6606,-5.6606,-5.6606,-5.5632,-5.3996,-5.4003,-5.2992,-5.1396,-5.1399,-5.0388,-4.8905,0.0,0.0,0.0,0.0,0.0,0.0,0.0,0.0,0.0,-4.6289,-4.6289,-4.6484,-4.7344,-4.8203,-4.9101,-4.996,-5.2069,0.0,-5.5074,0.0,0.0,-6.1321,-6.2848,-6.449,-6.6558,-6.8081,-6.9291,-7.0148,-7.1046,0.0,-7.2762,-7.366,-7.452,0.0,0.0,0.0,0.0,0.0,0.0,0.0,0.0,0.0,0.0,0.0,-7.7101,-7.7101,-7.7101,-7.7101,-7.7101,-7.7101,-7.7101,-7.7101,-7.7101,-7.7101,-7.7101,-7.7101,-7.7101,-7.7101,-7.7101,-7.7101,-7.7101,-7.7101,-7.7101,-7.7101,-7.7101,-7.7101,-7.7101,-7.7101,-7.6711,-7.6086,-7.5227,-7.4369,-7.3549,0.0,0.0,0.0,0.0,0.0,0.0,0.0,0.0,-4.6277,-4.6277,-4.6245,-4.6444,0.0,0.0,0.0,0.0,0.0,0.0,-5.0867,-5.1219,-5.1414,-5.1414,-5.1882,-5.2351,-5.2704,-5.4422,-5.5552,-5.6098,-5.645,-5.6606,-5.6606,-5.6606,-5.6606,-5.6606,-5.6606,-5.563,-5.399,-5.3996,-5.2986,-5.139,-5.1394,-5.0383,-4.8903,0.0,0.0,0.0,0.0,0.0,0.0,0.0,0.0,0.0,-4.6289,-4.6289,-4.6406,-4.6914,-4.7968,-4.9022,-4.9528,-5.1793,0.0,-5.5071,-5.7218,-5.9756,-6.2174,0.0,0.0,0.0,-6.8778,-6.9675,-7.0532,-7.1428,0.0,-7.3143,-7.4002,-7.4861,0.0,0.0,0.0,0.0,0.0,0.0,0.0,0.0,0.0,0.0,-7.7101,-7.7101,-7.7101,-7.7101,-7.7101,-7.7101,-7.7101,-7.7101,-7.7101,-7.7101,-7.7101,-7.7101,-7.7101,-7.7101,-7.7101,-7.7101,-7.7101,-7.7101,-7.7101,-7.7101,-7.7101,-7.7101,-7.7101,-7.7062,-7.6711,-7.6242,-7.566,-7.4447,-7.3705,-7.3197,0.0,0.0,-4.2594,-4.3551,0.0,0.0,0.0,0.0,-4.6187,-4.6187,-4.6187,-4.6187,0.0,0.0,0.0,0.0,0.0,0.0,0.0,-5.0826,-5.1334,-5.1412,-5.1414,-5.1804,-5.2665,-5.4266,-5.5125,-5.532,-5.6177,-5.6606,-5.6606,-5.6606,-5.6606,-5.6606,-5.6606,-5.5669,-5.4108,-5.4029,-5.3059,-5.1506,-5.1428,-5.0455,-4.9014,-4.8936,0.0,0.0,0.0,0.0,0.0,0.0,0.0,0.0,-4.6289,-4.6288,-4.6287,-4.6287,-4.7534,-4.8898,-4.8898,-5.1397,0.0,-5.507,-5.7334,0.0,-6.3533,-6.4983,-6.6081,-6.7877,0.0,-6.9672,-7.064,-7.1458,-7.2273,-7.3158,-7.3978,-7.4798,-7.5699,0.0,0.0,0.0,0.0,0.0,0.0,0.0,0.0,-7.7101,-7.7101,-7.7101,-7.7101,-7.7101,-7.7101,-7.7101,-7.7101,-7.7101,-7.7101,-7.7101,-7.7101,-7.7101,-7.7101,-7.7101,-7.7101,-7.7101,-7.7101,-7.7101,-7.7101,-7.7101,-7.7101,-7.7101,-7.7101,-7.7023,-7.6125,-7.5738,-7.5501,-7.39,-7.3236,-7.308,0.0,0.0,-4.2786,-4.4351,0.0,0.0,0.0,0.0,0.0,-4.6209,-4.6181,0.0,0.0,0.0,0.0,0.0,0.0,0.0,0.0,-5.0262,-5.0698,-5.1362,-5.141,-5.1804,-5.2665,-5.3055,-5.3914,-5.532,-5.6177,-5.6606,-5.6606,-5.6606,-5.6606,-5.6606,-5.6606,-5.602,-5.4966,-5.4303,-5.3407,-5.2355,-5.1691,-5.0759,-4.9751,-4.9086,-4.8192,0.0,0.0,0.0,0.0,0.0,0.0,0.0,-4.6285,-4.6284,-4.6284,-4.6284,-4.7533,-4.8897,-4.8853,-5.1352,0.0,0.0,-5.8252,-6.1688,-6.3833,-6.4967,-6.6256,-6.864,-6.9264,-6.9887,-7.1446,-7.1875,0.0,0.0,0.0,0.0,0.0,0.0,0.0,0.0,0.0,0.0,0.0,0.0,0.0,-7.7101,-7.7101,-7.7101,-7.7101,-7.7101,-7.7101,-7.7101,-7.7101,-7.7101,-7.7101,-7.7101,-7.7101,-7.7101,-7.7101,-7.7101,-7.7101,-7.7101,-7.7101,-7.7101,-7.7101,-7.7101,-7.7101,-7.7101,-7.7101,-7.7023,-7.6125,-7.5384,-7.4642,-7.3666,-7.2885,-7.226,0.0,0.0,0.0,0.0,0.0,0.0,0.0,0.0,0.0,0.0,0.0,0.0,0.0,0.0,0.0,0.0,0.0,0.0,0.0,-4.9628,-5.0489,-5.135,-5.1394,-5.1596,-5.2071,-5.2501,-5.3166,-5.4071,-5.5357,-5.6177,-5.6606,-5.6606,-5.6606,-5.6606,-5.6606,-5.6138,-5.5279,-5.481,-5.3873,-5.2665,-5.2195,-5.1261,-5.0055,-4.9586,-4.8654,-4.7526,-4.7098,0.0,0.0,0.0,0.0,0.0,0.0,0.0,-4.6317,-4.6317,-4.7525,-4.8849,-4.8807,0.0,0.0,-5.6608,0.0,-6.1642,-6.3831,-6.496,-6.6209,0.0,0.0,0.0,0.0,0.0,0.0,0.0,0.0,0.0,0.0,0.0,0.0,0.0,0.0,0.0,0.0,0.0,0.0,-7.7101,-7.7101,-7.7101,-7.7101,-7.7101,-7.7101,-7.7101,-7.7101,-7.7101,-7.7101,-7.7101,-7.7101,-7.7101,-7.7101,-7.7101,-7.7101,-7.7101,-7.7101,-7.7101,-7.7101,-7.7101,-7.7101,-7.7101,-7.6867,-7.6399,-7.5501,-7.4642,-7.3819,-7.2954,-7.2327,-7.1937,0.0,0.0,0.0,0.0,0.0,0.0,0.0,0.0,0.0,0.0,0.0,0.0,0.0,0.0,0.0,0.0,0.0,0.0,0.0,0.0,0.0,-5.1141,-5.118,-5.1263,-5.1394,-5.2096,-5.253,-5.2698,-5.4144,-5.5355,-5.6367,-5.6526,-5.6606,-5.6606,-5.6606,-5.6216,-5.5513,-5.5357,-5.4461,-5.3134,-5.2821,-5.1843,-5.0514,-5.0202,-4.9231,-4.8027,-4.7871,-4.7251,-4.6513,-4.6513,0.0,0.0,0.0,0.0,-4.6311,-4.6311,-4.7478,-4.8798,-4.8798,0.0,-5.4732,-5.7894,0.0,0.0,0.0,0.0,0.0,0.0,0.0,0.0,0.0,0.0,0.0,0.0,0.0,0.0,0.0,0.0,0.0,0.0,0.0,0.0,0.0,0.0,0.0,-7.7101,-7.7101,-7.7101,-7.7101,-7.7101,-7.7101,-7.7101,-7.7101,-7.7101,-7.7101,-7.7101,-7.7101,-7.7101,-7.7101,-7.7101,-7.7101,-7.7101,-7.7101,-7.7101,-7.7101,-7.7101,-7.7101,-7.6945,-7.6438,-7.5696,-7.4678,-7.3855,-7.3153,-7.2239,-7.1881,-7.1916,0.0,0.0,0.0,0.0,0.0,0.0,0.0,0.0,0.0,0.0,-4.6219,-4.6219,0.0,0.0,-4.6183,-4.6183,-4.63,-4.6693,-4.743,0.0,0.0,-5.0243,-5.0282,-5.0636,-5.1378,-5.1495,-5.1927,-5.271,-5.2916,-5.3857,-5.5418,-5.6211,-5.6606,-5.6606,-5.6606,-5.6528,-5.6372,-5.563,-5.5164,-5.4812,-5.3329,-5.2548,-5.2195,-5.067,-4.9967,-4.9657,-4.8917,-4.8136,-4.7434,-4.7434,-4.6928,0.0,0.0,0.0,-4.6302,-4.6302,-4.7473,-4.8798,0.0,0.0,0.0,0.0,0.0,0.0,0.0,0.0,0.0,0.0,0.0,0.0,0.0,0.0,0.0,0.0,0.0,0.0,0.0,0.0,0.0,0.0,0.0,0.0,0.0,0.0,0.0,-7.7023,-7.7101,-7.7101,-7.7101,-7.7101,-7.7101,-7.7101,-7.7101,-7.7101,-7.7101,-7.7101,-7.7101,-7.7101,-7.7101,-7.7101,-7.7101,-7.7101,-7.7101,-7.7101,-7.7101,-7.7101,-7.7023,-7.6281,-7.5894,-7.5657,-7.4002,-7.3293,-7.3094,-7.2217,-7.1897,-7.1897,0.0,0.0,0.0,0.0,0.0,0.0,0.0,0.0,0.0,0.0,0.0,-4.6219,-4.6219,-4.6219,-4.6219,-4.6219,-4.6219,-4.6569,-4.7423,-4.7859,-4.8454,-4.9318,-4.9786,-5.0258,-5.0657,-5.1128,-5.1561,-5.196,-5.2476,-5.3298,-5.4507,-5.5379,-5.6092,-5.6606,-5.6606,-5.6606,-5.6567,-5.6177,-5.5747,-5.5242,-5.4461,-5.3873,-5.3327,-5.2585,-5.1685,-5.0789,-5.0399,-4.9384,-4.8252,-4.8252,-4.7705,-4.7042,-4.7042,0.0,0.0,0.0,-4.7471,-4.9111,-5.0594,0.0,0.0,0.0,0.0,0.0,0.0,0.0,0.0,0.0,0.0,0.0,0.0,0.0,0.0,0.0,0.0,0.0,0.0,0.0,0.0,0.0,0.0,0.0,0.0,0.0,0.0,0.0,-7.5657,-7.5657,-7.5657,-7.6125,-7.636,-7.636,-7.6867,-7.7101,-7.7101,-7.7101,-7.7101,-7.7101,-7.7101,-7.7101,-7.7101,-7.7092,-7.7092,-7.7101,-7.7101,-7.6822,-7.6347,-7.5957,-7.5209,-7.4261,-7.3513,-7.2885,-7.2413,-7.2037,-7.1911,-7.1872,0.0,0.0,0.0,0.0,0.0,0.0,0.0,0.0,0.0,0.0,0.0,-4.6842,-4.6842,0.0,0.0,0.0,-4.653,-4.6725,-4.715,-4.715,-4.754,-4.8436,-4.9021,-4.9574,-5.0052,-5.0641,-5.1115,-5.1362,-5.2032,-5.2776,-5.3595,-5.4468,-5.5377,-5.6246,-5.6484,-5.6606,-5.6606,-5.6606,-5.6216,-5.5591,-5.5396,-5.4927,-5.4303,-5.4068,-5.321,-5.2078,-5.2078,-5.0945,-4.9462,-4.9462,-4.8759,-4.7899,-4.7899,-4.7315,0.0,0.0,0.0,0.0,0.0,0.0,0.0,0.0,0.0,0.0,0.0,0.0,0.0,0.0,0.0,0.0,0.0,0.0,0.0,0.0,0.0,0.0,0.0,0.0,0.0,0.0,0.0,0.0,0.0,0.0,0.0,0.0,-7.4486,-7.4486,-7.4486,-7.511,-7.5462,-7.5462,-7.632,-7.6789,-7.6789,-7.6981,-7.7095,-7.7095,-7.7092,-7.7089,-7.7089,-7.7075,-7.6958,-7.6777,-7.6777,-7.6418,-7.578,-7.5311,-7.4367,-7.3181,-7.2942,-7.247,-7.1881,-7.1897,-7.1887,-7.1882,0.0,0.0,0.0,0.0,0.0,0.0,0.0,0.0,0.0,0.0,0.0,-4.867,-4.867,-4.867,-4.8319,-4.7501,-4.7423,-4.7111,-4.6336,-4.6258,-4.6647,-4.754,-4.7618,0.0,-4.9956,-5.0034,-5.0463,-5.1324,-5.1342,-5.1821,-5.2678,-5.3553,-5.442,-5.5318,-5.6204,-5.6606,-5.6606,-5.6606,-5.6567,-5.645,-5.563,-5.5279,-5.5123,-5.4303,-5.3951,-5.3873,-5.3873,-5.2741,-5.1258,-5.1258,-5.0126,-4.8759,-4.8759,-4.8174,-4.7547,0.0,0.0,0.0,0.0,0.0,0.0,0.0,0.0,0.0,0.0,0.0,0.0,0.0,0.0,0.0,0.0,0.0,0.0,0.0,0.0,0.0,0.0,0.0,0.0,0.0,0.0,0.0,0.0,0.0,0.0,0.0,-7.4486,-7.4486,-7.4486,-7.4525,-7.4564,-7.4564,-7.5423,-7.5855,-7.5855,-7.6695,-7.7114,-7.7114,-7.7055,-7.7008,-7.7008,-7.7008,-7.6579,-7.5881,-7.5881,-7.5842,-7.5681,-7.4004,-7.3263,-7.3103,-7.2301,-7.1936,-7.1897,-7.1833,-7.1822,-7.1783,0.0,0.0,0.0,0.0,0.0,0.0,0.0,0.0,0.0,0.0,0.0,0.0,0.0,-4.8787,-4.867,-4.8358,-4.8319,-4.7969,-4.7072,-4.7033,-4.6917,-4.6686,-4.7189,-4.7774,-4.8397,-4.9449,-5.0151,-5.0463,-5.1016,-5.176,-5.2618,-5.3494,-5.4362,-5.5259,-5.6152,-5.6553,-5.6555,-5.6563,-5.6918,-5.7348,-5.7035,-5.7231,-5.7699,-5.7387,-5.6606,-5.5669,-5.5669,-5.4537,-5.3053,-5.3053,-5.1921,-5.0477,-5.0477,-4.9501,-4.8486,-4.9031,-4.9421,-4.9891,0.0,0.0,0.0,0.0,0.0,0.0,0.0,0.0,0.0,0.0,0.0,0.0,0.0,0.0,0.0,0.0,0.0,0.0,0.0,0.0,0.0,0.0,0.0,0.0,0.0,0.0,0.0,0.0,0.0,-7.2885,-7.2885,-7.3432,-7.3699,-7.3651,-7.4509,-7.4974,-7.496,-7.5265,-7.5729,-7.6275,-7.5681,-7.5677,-7.6228,-7.5625,-7.5191,-7.4875,-7.4314,-7.408,-7.4099,-7.3475,-7.2837,-7.2277,-7.1955,-7.1833,-7.1833,-7.1822,-7.1817,-7.1817,0.0,0.0,0.0,0.0,0.0,-4.7579,-4.7891,-4.867,-4.9216,-4.9216,0.0,0.0,0.0,0.0,-4.9527,-4.9216,-4.8943,-4.8553,-4.7969,-4.793,-4.754,-4.6686,-4.7189,-4.7501,-4.7501,-4.8865,-4.9722,-4.9995,-5.0852,-5.1593,-5.2177,-5.3046,-5.3911,-5.4808,-5.5659,-5.6221,-5.65,-5.6868,-5.7302,-5.7812,-5.8126,-5.8597,-5.9102,-5.9102,-5.84,-5.7426,-5.7426,-5.6333,-5.4888,-5.4888,-5.3717,-5.2234,-5.1921,-5.0633,-4.9345,-4.9928,-5.0085,-5.028,-5.118,0.0,0.0,0.0,0.0,0.0,0.0,0.0,0.0,0.0,0.0,0.0,0.0,0.0,0.0,0.0,0.0,0.0,0.0,0.0,0.0,0.0,0.0,0.0,0.0,0.0,0.0,0.0,0.0,0.0,-7.1933,-7.2516,-7.2942,-7.3204,-7.375,-7.4211,-7.4507,-7.4459,-7.4771,-7.5317,-7.4723,-7.4758,-7.5303,-7.466,-7.4226,-7.3914,-7.3347,-7.3114,-7.3134,-7.2862,-7.2345,-7.1817,-7.1817,-7.1817,-7.1817,-7.1817,-7.1817,-7.1817,0.0,0.0,-4.653,-4.7345,-4.754,-4.7852,-4.8709,-4.9527,-5.0034,-5.0034,0.0,0.0,0.0,0.0,0.0,-5.0151,-4.9333,-4.8865,-4.8826,-4.8826,-4.8436,-4.7579,-4.7501,-4.7501,-4.7501,-4.8319,-4.9177,-4.9956,-5.0852,-5.1281,-5.132,-5.2177,-5.3073,-5.3931,-5.4808,-5.5684,-5.6599,-5.744,-5.7835,-5.7955,-5.8785,-5.918,-5.9219,-5.9219,-5.9219,-5.9219,-5.918,-5.8126,-5.6721,-5.6684,-5.5513,-5.3912,-5.3014,-5.157,-5.0163,-5.0163,-5.0163,-5.0319,0.0,0.0,0.0,0.0,0.0,0.0,0.0,0.0,0.0,0.0,0.0,0.0,0.0,0.0,0.0,0.0,0.0,0.0,0.0,0.0,0.0,0.0,0.0,0.0,0.0,0.0,0.0,0.0,-7.0675,-7.1015,-7.1815,-7.1889,-7.2283,-7.3142,-7.3142,-7.3571,-7.4429,-7.4368,-7.4353,-7.4353,-7.4327,-7.435,-7.435,-7.435,-7.3843,-7.3064,-7.3064,-7.3064,-7.2986,-7.2167,-7.1817,-7.1817,-7.1817,-7.1817,-7.1817,-7.1817,-7.1817,-7.1817,0.0,-4.6725,-4.7228,-4.7462,-4.8514,-4.9372,-4.9644,-5.0385,-5.093,0.0,0.0,0.0,-5.2255,-5.2255,-5.2138,-5.1904,-5.1086,-5.0346,-4.9722,-4.9683,-4.9294,-4.8475,-4.7852,-4.7501,-4.7501,-4.7735,-4.828,-4.9138,-4.9956,-5.0696,-5.132,-5.2177,-5.3073,-5.3931,-5.4792,-5.6008,-5.7381,-5.7687,-5.852,-5.969,-5.9928,-6.0789,-6.1843,-6.1843,-6.1843,-6.1765,-6.1192,-6.03,-5.9246,-5.8631,-5.727,-5.563,-5.4108,-5.2897,-5.196,-5.196,-5.1531,-5.1102,-5.1336,0.0,0.0,0.0,0.0,0.0,-5.4459,-5.5396,0.0,0.0,0.0,0.0,0.0,0.0,0.0,0.0,0.0,0.0,0.0,0.0,0.0,0.0,0.0,0.0,0.0,0.0,0.0,0.0,-6.9678,-7.0068,-7.0918,-7.1564,-7.2023,-7.2257,-7.2204,-7.2311,-7.2545,-7.2534,-7.2846,-7.3464,-7.2835,-7.283,-7.3453,-7.2791,-7.2401,-7.2167,-7.2167,-7.2167,-7.2128,-7.1895,-7.1817,-7.1817,-7.1817,-7.1817,-7.1817,-7.1817,-7.1817,-7.1817,-4.6686,-4.715,-4.7735,-4.8436,-4.9333,-5.0268,-5.0969,-5.1515,-5.1982,0.0,0.0,0.0,-5.3151,-5.3151,-5.3151,-5.3151,-5.2684,-5.2021,-5.1125,-5.1086,-5.0541,-4.9333,-4.8826,-4.8397,-4.8047,-4.8358,-4.8787,-4.9294,-5.0112,-5.0813,-5.132,-5.1826,-5.2723,-5.3927,-5.4433,-5.5996,-5.8221,-5.8281,-5.9116,-6.041,-6.1162,-6.2024,-6.2921,-6.3311,-6.3425,-6.3386,-6.2893,-6.2194,-6.1296,-6.0447,-5.8772,-5.6862,-5.5496,-5.4443,-5.3662,-5.3311,-5.2569,-5.1906,-5.1906,-5.1672,-5.1516,-5.2025,0.0,0.0,-5.3352,-5.4094,-5.4875,0.0,0.0,0.0,0.0,0.0,0.0,0.0,0.0,0.0,0.0,0.0,0.0,0.0,0.0,0.0,0.0,-6.7489,-6.7833,-6.8175,-6.8565,-6.9302,-7.0541,-7.1073,-7.1492,-7.1843,-7.1827,-7.1817,-7.1817,-7.1817,-7.205,-7.2557,-7.205,-7.205,-7.2557,-7.2011,-7.1817,-7.1817,-7.1817,-7.1817,-7.1817,-7.1817,-7.1817,-7.1817,-7.1817,-7.1817,-7.1817,-7.1817,-7.1817,-7.1817,0.0,-4.7657,-4.8241,-4.9722,-5.0151,-5.0813,-5.2372,-5.2684,-5.3034,0.0,-5.4087,-5.4242,-5.4437,-5.4398,-5.4281,-5.4203,-5.4087,-5.3654,-5.2801,-5.2723,-5.2021,-5.0346,-5.019,-4.9761,-4.8943,-4.9566,-4.9917,-4.9995,-5.0774,-5.1203,-5.132,-5.132,-5.2216,-5.3888,-5.3888,-5.5801,-5.8996,-5.8996,-5.9594,-6.0703,-6.2282,-6.2992,-6.3265,-6.4045,-6.4396,-6.4474,-6.4396,-6.385,-6.3031,-6.1943,-6.0109,-5.8042,-5.7106,-5.6131,-5.5191,-5.4414,-5.3517,-5.2737,-5.2737,-5.2155,-5.1531,-5.1531,-5.2038,0.0,-5.2548,-5.3172,-5.3754,0.0,0.0,0.0,0.0,0.0,0.0,0.0,0.0,0.0,0.0,0.0,0.0,0.0,0.0,0.0,-6.4166,-6.4907,-6.5636,-6.6356,-6.733,-6.8569,-7.0224,-7.0414,-7.0842,-7.1622,-7.1661,-7.17,-7.1817,-7.1817,-7.1817,-7.1817,-7.1817,-7.1817,-7.1817,-7.1817,-7.1817,-7.1817,-7.1817,-7.1817,-7.1817,-7.1817,-7.1817,-7.1817,-7.1817,-7.1817,-7.1817,-7.1817,-7.1817,-7.1817,-4.7462,-4.8592,-4.9605,-4.9956,-5.1164,-5.2216,-5.2567,-5.319,-5.3697,-5.3888,-5.5139,-5.6503,-5.7866,-5.736,-5.6697,-5.5957,-5.5333,-5.4589,-5.3693,-5.3658,-5.319,-5.2138,-5.1437,-5.0657,-4.9761,-4.9294,-4.9333,-4.9995,-5.0151,-5.0618,-5.132,-5.132,-5.2216,-5.3888,-5.3888,-5.5801,-5.8996,-5.8996,-6.0326,-6.2435,-6.2751,-6.3726,-6.4934,-6.509,-6.5597,-6.6142,-6.5463,-6.5156,-6.4653,-6.2368,-6.1279,-6.0577,-5.9059,-5.7499,-5.6209,-5.6053,-5.4882,-5.3634,-5.3634,-5.3049,-5.2425,-5.2386,-5.1999,0.0,-5.1648,-5.2314,-5.2938,0.0,0.0,0.0,0.0,0.0,0.0,0.0,0.0,0.0,0.0,0.0,0.0,0.0,0.0,0.0,-6.4003,-6.4271,-6.4427,-6.4613,-6.6054,-6.7418,-6.8465,-6.9167,-6.9952,-7.0804,-7.0842,-7.1154,-7.1778,-7.1817,-7.1817,-7.1817,-7.1817,-7.1817,-7.1817,-7.1817,-7.1817,-7.1817,-7.1817,-7.1817,-7.1817,-7.1817,-7.1817,-7.1817,-7.1817,-7.1817,-7.1817,-7.1817,-7.1817,-7.1817,-4.8592,-4.941,-5.0268,-5.1125,-5.2021,-5.2879,-5.3771,-5.4632,-5.5333,-5.5723,-5.6931,-5.8066,-5.8918,-5.8607,-5.8178,-5.7715,-5.7321,-5.6541,-5.5295,-5.5217,-5.4593,-5.3307,-5.2411,-5.1749,-5.132,-5.0463,-5.0229,-5.0657,-5.0657,-5.0852,-5.132,-5.132,-5.2216,-5.3888,-5.3888,-5.5801,-5.8996,-5.8996,-6.075,-6.3517,-6.3517,-6.453,-6.6088,-6.6517,-6.7257,-6.792,-6.7545,-6.6849,-6.5913,-6.4597,-6.3588,-6.2535,-6.0863,-5.9732,-5.887,-5.8016,-5.6535,-5.5209,-5.5209,-5.427,-5.3178,-5.271,-5.2285,0.0,0.0,-5.17,-5.2015,0.0,0.0,0.0,0.0,0.0,0.0,0.0,0.0,0.0,0.0,0.0,0.0,0.0,0.0,0.0,-6.1451,-6.2348,-6.3205,-6.4023,-6.5309,-6.6439,-6.7291,-6.8193,-6.905,-6.9913,-7.0375,-7.0804,-7.1193,-7.1583,-7.1817,-7.1817,-7.1817,-7.1817,-7.1817,-7.1817,-7.1817,-7.1817,-7.1817,-7.1817,-7.1817,-7.1817,-7.1817,-7.1817,-7.1817,-7.1817,-7.1817,-7.1817,-7.1817,-7.1817,-4.9722,-5.0268,-5.093,-5.2333,-5.3034,-5.3814,-5.5256,-5.6308,-5.7325,-5.8334,-5.9191,-5.9815,-5.9971,-5.9971,-5.9932,-5.9776,-5.9581,-5.8841,-5.7325,-5.7052,-5.6191,-5.4476,-5.3736,-5.319,-5.2879,-5.1982,-5.1554,-5.1554,-5.1398,-5.132,-5.132,-5.1476,-5.2372,-5.3927,-5.4242,-5.6113,-5.9035,-5.9347,-6.1295,-6.414,-6.4452,-6.5543,-6.7019,-6.772,-6.8543,-6.9289,-6.9289,-6.8388,-6.7141,-6.6829,-6.5777,-6.4296,-6.262,-6.1841,0.0,0.0,0.0,0.0,0.0,0.0,0.0,0.0,0.0,-5.2606,0.0,0.0,0.0,0.0,0.0,0.0,0.0,0.0,0.0,0.0,0.0,0.0,0.0,0.0,0.0,0.0,0.0,0.0,-5.8724,-6.0321,-6.1997,-6.3517,-6.4413,-6.5387,-6.64,-6.7135,-6.7998,-6.9011,-6.9712,-7.0258,-7.0609,-7.1232,-7.1661,-7.1817,-7.1817,-7.1817,-7.1817,-7.1817,-7.1817,-7.1817,-7.1817,-7.1817,-7.1817,-7.1817,-7.1817,-7.1817,-7.1817,-7.1817,-7.1817,-7.1817,-7.1817,-7.1811,-4.9956,-5.1242,-5.2372,-5.2567,-5.4515,-5.6117,-5.6312,-5.7715,-5.9308,-6.0945,-6.1919,-6.2737,-6.3439,-6.3517,-6.3244,-6.2503,-6.1763,-6.0906,-5.9932,-5.9152,-5.7949,-5.6273,-5.6117,-5.5333,-5.3775,-5.2918,-5.245,-5.245,-5.1671,-5.132,-5.132,-5.2099,-5.2957,-5.397,-5.5528,-5.7247,-5.9113,-6.0633,-6.2387,0.0,-6.5777,-6.698,-6.7876,-6.7954,-6.8543,-6.9289,-6.9289,-6.9172,-6.8777,-6.7219,-6.6556,-6.6088,0.0,-6.2815,-6.1568,-6.1373,0.0,0.0,0.0,0.0,0.0,0.0,-5.4316,0.0,0.0,0.0,-5.2216,-5.1476,0.0,0.0,0.0,0.0,0.0,0.0,0.0,0.0,0.0,0.0,0.0,0.0,0.0,0.0,0.0,-5.9425,-6.0867,-6.1802,-6.2698,-6.3867,-6.5465,-6.566,-6.6439,-6.8115,-6.8232,-6.905,-7.057,-7.0687,-7.1076,-7.1817,-7.1817,-7.1817,-7.1817,-7.1817,-7.1817,-7.1817,-7.1817,-7.1817,-7.1817,-7.1817,-7.1817,-7.1817,-7.1817,-7.1817,-7.1817,-7.1817,-7.18,-7.1809,-5.1515,-5.2099,-5.3073,-5.4593,-5.5766,-5.6819,-5.7793,-5.9425,-6.1295,-6.3517,-6.414,-6.4686,-6.5504,-6.5621,-6.527,-6.4413,-6.4023,-6.3244,-6.188,-6.0984,-5.9971,-5.8763,-5.7247,-5.6117,-5.5411,-5.4048,-5.3346,-5.3346,-5.2995,-5.2801,-5.284,-5.319,-5.381,-5.4706,-5.5957,-5.7442,-5.9113,-6.0867,-6.2581,0.0,0.0,-6.753,0.0,-6.9323,-7.0024,-7.0765,-7.0765,-7.0453,-6.9946,-6.9206,-6.831,-6.7252,0.0,0.0,0.0,-6.2659,0.0,0.0,0.0,0.0,0.0,0.0,0.0,0.0,-5.2918,0.0,-5.2333,0.0,0.0,0.0,0.0,0.0,0.0,0.0,-5.0852,0.0,0.0,0.0,0.0,0.0,0.0,0.0,0.0,0.0,0.0,0.0,-6.1373,-6.2465,-6.3166,-6.4608,-6.5738,-6.6478,-6.7486,-6.8349,-6.9089,-7.0102,-7.0765,-7.1115,-7.1583,-7.1817,-7.1817,-7.1817,-7.1817,-7.1817,-7.1817,-7.1817,-7.1817,-7.1817,-7.1806,-7.1788,-7.1788,-7.1788,-7.1788,-7.1788,-7.177,-7.1738,-5.358,-5.3658,-5.4281,-5.6156,-5.7286,-5.8455,-6.0126,-6.188,-6.3672,-6.5504,-6.6166,-6.6712,-6.7335,-6.7413,-6.718,-6.6517,-6.6244,-6.5621,-6.4374,-6.3244,-6.2231,-6.1373,-5.9074,-5.7754,-5.7559,-5.5606,-5.4593,-5.4593,-5.4126,-5.3888,-5.3927,-5.4121,-5.4589,-5.5251,-5.658,-5.7871,-5.9152,0.0,-6.2971,-6.4296,-6.6517,-6.846,-7.0058,-7.0687,-7.1271,-7.1817,-7.1817,-7.1421,-7.0909,-7.0637,-6.9735,-6.8477,-6.7387,-6.6413,-6.5439,0.0,0.0,0.0,-6.0887,0.0,0.0,0.0,0.0,0.0,0.0,0.0,0.0,0.0,0.0,0.0,0.0,0.0,-5.0758,-5.0096,0.0,-4.9434,0.0,0.0,0.0,0.0,0.0,0.0,0.0,0.0,0.0,0.0,0.0,-6.1101,-6.1568,-6.3361,-6.4686,-6.5387,-6.6634,-6.7525,-6.7993,-6.9245,-7.0141,-7.0609,-7.1193,-7.1583,-7.1817,-7.1817,-7.1817,-7.1817,-7.1817,-7.1811,-7.1806,-7.1806,-7.1788,-7.1751,-7.1751,-7.1784,-7.1777,-7.179,-7.1732,-7.1704,-5.6039,-5.639,-5.639,-5.6507,-5.923,-6.1997,-6.3672,-6.5426,-6.6556,-6.6634,-6.8115,-6.9211,-6.9211,-6.9211,-6.9211,-6.9172,-6.8388,-6.7876,-6.7837,-6.6244,-6.488,-6.4023,-6.2348,-6.1023,-6.0204,-5.7715,-5.6429,-5.6429,-5.4749,-5.3888,-5.3927,-5.4745,-5.5173,-5.529,-5.7827,-5.8957,-5.923,-6.2581,-6.4062,-6.4413,-6.7842,-7.0203,-7.1698,0.0,-7.1778,-7.1817,-7.1817,-7.18,-7.1614,-7.0797,-7.046,-7.0123,-6.841,-6.7243,0.0,0.0,0.0,0.0,0.0,0.0,0.0,-5.7982,0.0,0.0,0.0,0.0,-5.3512,0.0,0.0,0.0,0.0,-5.0554,-5.0014,-5.0014,-4.9274,0.0,0.0,0.0,0.0,0.0,0.0,0.0,0.0,0.0,0.0,0.0,-5.8144,-5.9815,-6.149,-6.1685,-6.2854,-6.5309,-6.5465,-6.6283,-6.7993,-6.8071,-6.8933,-7.0609,-7.0609,-7.1037,-7.1817,-7.1817,-7.1817,-7.1817,-7.1817,-7.18,-7.1809,-7.1815,-7.1751,-7.1718,-7.1718,-7.1697,-7.1707,-7.1704,-7.1697,-7.1699,-5.7832,-5.9074,-5.9893,-5.9893,-6.0828,-6.2538,-6.54,-6.7247,-6.8753,-6.9844,-7.1012,-7.1985,-7.253,-7.2608,-7.2374,-7.179,-7.1472,-7.0849,-6.9727,-6.8559,-6.7274,-6.5834,-6.4115,-6.2524,-6.1123,-5.9682,-5.8398,-5.723,-5.6646,-5.6101,-5.5556,-5.5867,-5.6295,-5.6835,-5.8281,-5.9566,0.0,0.0,0.0,0.0,0.0,-7.0227,-7.1738,0.0,-7.2121,-7.253,-7.1946,-7.2095,-7.2471,-7.1576,-7.0947,-7.0395,-6.9805,-6.8637,-6.7275,-6.6419,-6.5336,-6.4169,-6.2729,-6.1717,-6.0783,-5.961,-5.8443,0.0,0.0,0.0,0.0,0.0,0.0,0.0,0.0,-5.0977,-5.0432,-4.9304,-4.8876,-4.8292,0.0,0.0,0.0,0.0,0.0,0.0,0.0,0.0,0.0,0.0,-5.6636,0.0,-5.9776,-6.0984,-6.227,-6.3711,-6.4803,-6.5699,-6.6283,-6.7408,-6.831,-6.8894,-7.0063,-7.0726,-7.0998,-7.1544,-7.1806,-7.1788,-7.1788,-7.1764,-7.1732,-7.1738,-7.1718,-7.1722,-7.1722,-7.1653,-7.163,-7.1668,-7.1653,-7.1622,-5.9567,-6.0775,-6.1554,-6.1554,-6.2557,-6.441,-6.7547,-6.9202,-7.0583,-7.1984,-7.319,-7.4124,-7.4714,-7.5026,-7.498,-7.4435,-7.4085,-7.3462,-7.2373,-7.0933,-6.9571,-6.8443,-6.6186,-6.4435,-6.3346,-6.1562,-6.0116,-5.8988,-5.8365,-5.7781,-5.7281,-5.7281,-5.7553,-5.8093,-5.8988,-6.0155,-6.16,-6.3352,-6.4753,0.0,0.0,-7.0459,0.0,0.0,-7.2542,-7.2963,-7.273,-7.2801,-7.2903,-7.2358,-7.1612,-7.082,-7.0548,-6.9653,-6.8525,-6.7359,-6.6425,-6.5414,-6.4014,-6.2808,-6.1719,-6.0825,-5.9542,-5.8219,-5.7091,0.0,-5.5108,0.0,0.0,0.0,0.0,-5.1141,-5.0286,-4.8886,-4.8419,-4.7719,0.0,-4.6557,-4.6907,0.0,0.0,0.0,0.0,0.0,0.0,-5.4076,-5.5288,-5.6578,0.0,-5.9713,-6.1188,-6.2362,-6.4031,-6.5088,-6.5411,-6.6813,-6.767,-6.7982,-6.9423,-7.0275,-7.0581,-7.1399,-7.1776,-7.1751,-7.1751,-7.1732,-7.1697,-7.1697,-7.1675,-7.1676,-7.1676,-7.1622,-7.1606,-7.1669,-7.1622,-7.1598,-6.1373,-6.1751,-6.1829,-6.1985,-6.4687,-6.7665,-7.0077,-7.1322,-7.2256,-7.3066,-7.47,-7.5789,-7.5789,-7.6529,-7.7034,-7.7034,-7.6256,-7.575,-7.5673,-7.3345,-7.1867,-7.1711,-6.8592,-6.6763,-6.6607,-6.3423,-6.1672,-6.1556,-5.9844,-5.8982,-5.8949,-5.891,-5.891,-5.8988,-5.9883,0.0,-6.1711,-6.3423,-6.5135,-6.6958,-6.9454,-7.099,-7.1855,-7.2749,-7.3083,-7.3229,-7.4007,-7.3791,-7.3099,-7.3021,-7.2415,-7.152,-7.0626,-7.0316,-7.0005,-6.8373,-6.7285,-6.6353,-6.5491,-6.4061,-6.2585,-6.1684,-6.0798,-5.9749,-5.8085,0.0,-5.6136,0.0,0.0,0.0,0.0,-5.1086,-4.9732,-4.8794,-4.79,-4.7007,-4.6118,-4.6002,-4.6002,0.0,0.0,0.0,0.0,0.0,0.0,-5.2378,-5.4051,-5.5413,0.0,-5.7982,-5.9694,-6.1373,-6.3118,-6.4459,-6.5345,-6.6201,-6.7019,-6.7837,-6.8727,-6.961,-7.048,-7.1251,-7.1679,-7.1711,-7.1711,-7.169,-7.1699,-7.1699,-7.1676,-7.1598,-7.1598,-7.1598,-7.1598,-7.1598,-7.1598,-7.1598,-6.398,-6.5324,-6.6782,-6.8727,-6.9816,-7.0625,-7.1287,-7.3667,-7.5508,-7.5702,-7.7265,-7.8354,-7.8354,-7.8548,-7.8665,-7.8665,-7.847,-7.7809,-7.648,-7.578,-7.4273,-7.1746,-7.0775,-6.9142,-6.6577,-6.5683,-6.4284,-6.238,-6.1285,-6.0436,-5.9776,-5.9115,-5.9154,-5.9815,-6.0708,-6.1952,-6.3429,-6.4478,-6.6305,-6.8552,-6.9842,-7.1233,-7.2702,0.0,-7.4303,-7.4817,-7.4389,-7.4498,-7.4645,-7.3362,-7.2771,-7.2413,-7.152,-7.0821,-7.0238,-6.9772,-6.8606,-6.7285,-6.6392,-6.5382,-6.4216,-6.274,-6.173,-6.0798,-5.971,-5.8318,-5.7036,0.0,0.0,0.0,0.0,-5.2057,-5.128,-4.9809,-4.8289,-4.7007,-4.6118,0.0,0.0,-4.6002,0.0,0.0,0.0,0.0,-5.062,-5.1452,-5.3164,-5.4808,-5.6308,0.0,-5.9382,-6.0517,-6.2223,-6.3552,-6.4414,-6.5232,-6.6088,-6.6944,-6.7801,-6.8689,-6.9578,-7.0434,-7.1121,-7.1714,-7.1714,-7.1653,-7.1614,-7.1614,-7.1614,-7.1598,-7.1598,-7.1598,-7.1598,-7.1598,-7.1598,-7.1598,-6.605,-6.8037,-7.0036,-7.1902,-7.3146,-7.3884,-7.3884,-7.55,-7.6959,-7.7736,-7.9367,-8.0455,-8.0455,-8.1077,-8.1543,-8.1543,-8.0844,-8.0028,-7.9057,0.0,0.0,-7.3929,-7.3113,-7.1481,-6.8801,-6.7635,0.0,-6.4372,-6.3129,-6.2274,-6.1769,-6.1303,-6.1342,-6.1847,0.0,-6.3284,-6.4644,-6.6237,-6.7946,-6.9694,-7.0549,-7.1675,0.0,-7.389,-7.4744,-7.5482,-7.5327,-7.5366,-7.5288,-7.3929,-7.3229,-7.2763,-7.187,-7.1248,-7.0782,-7.0393,-6.9383,-6.8179,-6.7324,-6.6159,-6.4986,-6.4022,-6.2857,-6.173,-6.0875,-5.9632,-5.8357,-5.7114,-5.6175,-5.5048,-5.33,-5.264,-5.1863,-5.0159,-4.8444,-4.7123,0.0,0.0,0.0,0.0,-4.6002,0.0,0.0,-4.8327,-4.9698,-5.057,-5.2203,-5.3763,0.0,0.0,-5.833,-5.9542,-6.1285,-6.2808,-6.4033,-6.4889,-6.5745,-6.6601,-6.7457,-6.8299,-6.9172,-7.0035,-7.0883,-7.1676,-7.1676,-7.1622,-7.1598,-7.1598,-7.1598,-7.1598,-7.1598,-7.1598,-7.1598,-7.1598,-7.1598,-7.1598,-6.8154,-7.0417,-7.2375,-7.3268,-7.5327,-7.6998,-7.7347,-7.7386,-7.793,-7.9445,-8.1154,-8.2242,-8.2242,-8.3524,-8.4418,-8.4418,-8.3058,-8.2126,-8.1892,-7.9756,-7.8008,-7.692,-7.5366,-7.3734,-7.1986,-6.9539,-6.7868,-6.7014,-6.5188,-6.4333,-6.4333,-6.41,-6.3983,-6.3983,0.0,0.0,0.0,-6.8218,-6.9655,-7.0393,-7.1365,-7.2297,-7.319,-7.4045,-7.49,-7.5754,-7.6454,-7.6259,-7.5521,-7.4667,-7.3773,-7.2918,-7.2064,-7.1675,-7.1442,-7.0704,-6.9888,-6.9072,-6.8171,-6.6773,-6.5483,-6.5243,-6.4007,-6.2609,-6.1747,-6.0784,-5.9657,-5.8072,-5.7055,-5.5929,-5.4181,-5.3055,-5.1851,0.0,0.0,0.0,0.0,0.0,0.0,0.0,0.0,0.0,0.0,0.0,-4.891,-4.9654,-5.1396,0.0,0.0,0.0,-5.7068,-5.8739,-6.037,-6.2133,-6.4001,-6.4733,-6.5627,-6.6599,-6.7299,-6.8139,-6.9111,-6.9811,-7.0665,-7.1598,-7.1598,-7.1598,-7.1598,-7.1598,-7.1598,-7.1598,-7.1598,-7.1598,-7.1598,-7.1714,-7.1753,-7.1753,-7.1684,-7.351,0.0,0.0,0.0,-7.8513,-8.0649,-8.0999,-8.1116,-8.1387,-8.2903,-8.3951,-8.3951,-8.4223,-8.4418,-8.4418,-8.4146,0.0,0.0,0.0,0.0,-7.7852,-7.6803,-7.5482,-7.3773,-7.1908,-7.051,-6.9616,-6.7247,-6.6042,-6.6042,-6.4644,-6.3983,0.0,0.0,0.0,-6.748,-6.9306,0.0,-7.0432,-7.2025,-7.319,-7.4084,-7.4939,-7.5793,-7.6531,-7.6648,-7.6609,-7.6376,-7.556,-7.4706,-7.3812,-7.2957,-7.218,-7.1559,-7.1403,-7.0743,-6.9919,-6.9032,-6.8053,-6.6911,-6.548,-6.4347,-6.3377,-6.2516,-6.112,-5.9731,-5.8723,-5.7831,-5.6699,-5.4992,-5.3409,-5.178,0.0,0.0,0.0,0.0,0.0,0.0,0.0,0.0,-4.6002,0.0,0.0,0.0,0.0,0.0,0.0,0.0,0.0,-5.7068,0.0,-5.9788,-6.1504,0.0,0.0,-6.5008,-6.6516,-6.6671,-6.7565,-6.9111,-6.9267,-7.016,-7.1598,-7.1598,-7.1598,-7.1598,-7.1598,-7.1598,-7.1598,-7.1598,-7.1598,-7.1675,-7.2413,-7.2685,-7.2685,-7.4628,0.0,0.0,0.0,0.0,-8.0572,-8.2281,-8.3291,-8.3718,-8.3252,-8.4301,-8.5078,-8.5078,-8.5467,-8.5738,-8.5738,-8.535,-8.4728,-8.3913,-8.3019,-8.1776,-8.0105,-7.9173,-7.7697,-7.556,-7.4278,-7.2763,-7.0976,-6.9306,-6.8257,-6.7829,-6.7014,-6.6664,-6.6664,0.0,-6.7907,0.0,0.0,-7.0821,-7.1714,-7.2569,-7.3695,-7.49,-7.5327,-7.5988,-7.6687,-7.6687,-7.6687,-7.657,-7.5754,-7.49,-7.4037,-7.3126,-7.2263,-7.1594,-7.1577,-7.0947,-7.0046,-6.9174,-6.8312,-6.7334,-6.6075,-6.5136,-6.4244,-6.3352,-6.2189,-6.0948,-5.963,-5.87,-5.742,-5.528,-5.3466,-5.2031,-5.1217,0.0,0.0,0.0,0.0,0.0,0.0,0.0,0.0,0.0,0.0,0.0,0.0,0.0,-5.2329,-5.3617,0.0,-5.6136,0.0,0.0,0.0,-6.3983,0.0,-6.4838,-6.6508,-6.6508,-6.7402,-6.9111,-6.9111,-7.0005,-7.1598,-7.1598,-7.1598,-7.1598,-7.1598,-7.1598,-7.1598,-7.1598,-7.187,-7.2336,-7.2763,-7.3462,-7.4162,-7.7347,-7.8241,0.0,0.0,-8.1854,-8.2708,-8.3524,-8.4962,-8.5738,-8.5039,-8.57,-8.6321,-8.6477,-8.7098,-8.7525,-8.7525,-8.6749,-8.6166,-8.5972,-8.4534,-8.3213,-8.2203,-8.1349,-7.9834,-7.758,-7.6376,-7.4744,-7.2685,-7.1287,-7.0238,-6.9616,-6.9267,-6.9111,0.0,0.0,0.0,0.0,-7.0704,-7.1636,-7.2918,-7.3307,-7.4278,-7.5521,-7.5677,-7.6143,-7.6687,-7.6687,-7.6717,-7.6591,-7.5979,-7.5046,-7.4067,-7.3324,-7.2374,-7.158,-7.1504,-7.1029,-7.0292,-6.9382,-6.8529,-6.7676,-6.6853,-6.5846,-6.4838,-6.3985,-6.3094,-6.2,-6.0334,-5.9133,-5.7738,-5.5529,-5.3863,-5.2707,-5.2359,0.0,0.0,0.0,0.0,0.0,0.0,0.0,0.0,-4.6523,0.0,0.0,0.0,0.0,-5.194,-5.3617,-5.3695,-5.5281,0.0,0.0,-6.0487,-6.3983,0.0,-6.4838,-6.6508,-6.6508,-6.7402,-6.9111,-6.9111,-7.0005,-7.1598,-7.1598,-7.1598,-7.1598,-7.1598,-7.1598,-7.1598,-7.1598,-7.2142,-7.2918,-7.3113,-7.4162,-7.5444,0.0,0.0,0.0,0.0,0.0,-8.4456,-8.5311,-8.6282,-8.6826,-8.6749,-8.7525,-8.8341,-8.9041,-8.9235,-8.9274,-8.9274,-8.8536,-8.772,-8.6943,-8.5972,-8.4728,-8.3058,-8.2203,-8.131,-8.0261,-7.7852,-7.6493,-7.6221,-7.3035,-7.1442,-7.1326,-6.9811,-6.9111,-6.915,0.0,-7.0238,-7.0393,-7.1986,-7.2763,-7.3035,-7.4628,-7.5366,-7.556,-7.6298,-7.6648,-7.6687,-7.6687,-7.6699,-7.6701,-7.6623,-7.5497,-7.41,-7.4022,-7.286,-7.1494,-7.1494,-7.1455,-7.1174,-7.0234,-6.9411,-6.8549,-6.7647,-6.6205,-6.4774,-6.3923,-6.3033,-6.194,-6.0247,-5.8574,-5.7104,-5.6098,-5.5169,-5.4056,-5.2469,0.0,0.0,0.0,0.0,0.0,0.0,0.0,0.0,0.0,-4.913,0.0,0.0,-5.0641,-5.194,-5.3617,-5.3695,-5.5281,-5.87,-5.8817,-6.0487,-6.3983,-6.3983,-6.4838,-6.6508,-6.6508,-6.7402,-6.9111,-6.9111,-7.0005,-7.1598,-7.1598,-7.1598,-7.1598,-7.1598,-7.1598,-7.1598,-7.1598,-7.2142,-7.2996,-7.3773,-7.4667,-7.5599,0.0,0.0,0.0,-8.4495,-8.5389,-8.6243,-8.7137,-8.7953,-8.8691,-8.9196,-8.9118,-8.9157,-8.9468,-8.9507,-8.9507,-8.9507,-8.9196,-8.8652,-8.7836,-8.6943,-8.5933,-8.469,-8.333,-8.2242,-8.1387,-7.9834,-7.828,0.0,0.0,-7.4162,-7.3152,-7.2452,-7.218,-7.218,-7.2491,-7.2647,-7.2685,-7.3385,-7.3967,-7.4511,-7.5211,-7.5793,-7.6259,-7.657,-7.6687,-7.6717,-7.669,-7.671,-7.6691,-7.6662,-7.5828,-7.4742,-7.4208,-7.3209,-7.2094,-7.1559,-7.1394,-7.1162,-7.0289,-6.9428,-6.8615,-6.7733,-6.6611,-6.5489,-6.4687,-6.3787,-6.282,-6.166,-5.9648,-5.783,-5.6932,-5.5702,-5.4581,-5.3884,0.0,0.0,0.0,0.0,0.0,0.0,0.0,0.0,0.0,0.0,0.0,0.0,0.0,-5.2427,-5.3656,-5.4194,-5.5825,-5.87,0.0,-6.0487,-6.3983,-6.3983,-6.4838,-6.6508,-6.6508,-6.7402,-6.9111,-6.9111,-7.0005,-7.1598,-7.1598,-7.1598,-7.1598,-7.1598,-7.1598,-7.1636,-7.218,-7.2918,-7.3773,-7.4667,-7.5521,-7.6259,-8.3679,-8.4573,-8.5428,-8.6321,-8.7176,-8.7953,-8.8574,-8.9351,-9.0089,-9.0711,-9.0478,-9.0245,-9.0245,-9.0245,-9.0245,-9.0245,-9.0012,-8.9623,-8.9079,-8.7992,-8.6982,-8.6127,-8.4651,0.0,-8.2281,-8.1426,-7.995,-7.7852,-7.7075,0.0,-7.4939,-7.4434,-7.42,-7.42,-7.42,-7.42,-7.42,-7.4472,-7.4939,-7.5521,-7.5754,-7.6182,-7.6687,-7.6687,-7.6717,-7.6699,-7.671,-7.6672,-7.6642,-7.6602,-7.6144,-7.5436,-7.433,-7.3379,-7.2506,-7.1573,-7.1291,-7.1175,-7.0556,-6.9783,-6.897,-6.8119,-6.723,-6.6301,-6.5218,-6.4532,-6.3748,-6.2627,-6.0576,-5.872,-5.783,-5.6515,-5.5354,-5.489,0.0,0.0,0.0,-5.1177,0.0,0.0,-4.9513,-4.9134,-4.9125,-4.9906,0.0,0.0,0.0,0.0,-5.3657,-5.4757,0.0,0.0,0.0,0.0,-6.3983,-6.3983,-6.4838,-6.6508,-6.6508,-6.7402,-6.9111,-6.9616,-7.0471,-7.1598,-7.1598,-7.1598,-7.1598,-7.1598,-7.1589,-7.1698,-7.2543,-7.3389,-7.4234,-7.5127,-7.5943,-7.6681,-8.5505,-8.636,-8.7254,-8.8108,-8.8924,-8.9468,-8.9468,-9.0206,-9.0789,-9.0789,-9.1527,-9.2071,-9.2071,-9.2071,-9.2071,-9.2071,-9.1294,-9.0789,-9.075,-8.9196,-8.7914,0.0,0.0,-8.4845,-8.3136,-8.2281,-8.1465,-8.0572,0.0,0.0,-7.6648,-7.4977,-7.42,-7.42,-7.42,-7.42,-7.4278,-7.5133,-7.5482,-7.556,-7.6376,-7.6687,-7.6687,-7.6687,-7.6699,-7.6701,-7.6691,-7.6622,-7.6488,-7.6488,-7.6455,-7.61,-7.4502,-7.3358,-7.2413,-7.1562,-7.1291,-7.1291,-7.1291,-7.0634,-6.9783,-6.9009,-6.8119,-6.7036,-6.5373,-6.4986,-6.4483,-6.2781,-6.1079,-5.9609,-5.872,-5.7869,-5.6738,-5.5084,-5.4774,0.0,0.0,-5.219,0.0,-5.0975,-5.0859,-5.0859,-5.0859,-5.1641,0.0,0.0,0.0,0.0,0.0,0.0,0.0,-5.8722,-5.965,0.0,-6.3983,-6.3983,-6.4838,-6.6508,-6.6508,-6.7402,-6.915,-7.0821,-7.1559,-7.1598,-7.1598,-7.1598,-7.1598,-7.1598,-7.1611,-7.1684,-7.25,-7.3287,-7.4092,-7.4984,-7.5837,-7.6612,-8.7992,-8.8497,-8.8807,-8.9079,-8.9818,-9.04,-9.04,-9.1138,-9.1682,-9.1682,-9.1915,-9.211,-9.211,-9.211,-9.211,0.0,-9.1838,-9.141,0.0,-9.0284,-8.9351,-8.7953,-8.7059,-8.6049,-8.4884,-8.3446,-8.232,-8.1504,-8.0067,-7.9057,-7.8474,-7.793,-7.7347,-7.6803,-7.6803,-7.6454,-7.591,-7.6221,-7.6337,-7.6337,-7.6609,-7.6687,-7.6717,-7.669,-7.671,-7.6682,-7.6612,-7.656,-7.6477,-7.6444,-7.6421,-7.6216,-7.5105,-7.4165,-7.3303,-7.2452,-7.1756,-7.1291,-7.1291,-7.0672,-6.9821,-6.9009,-6.8158,-6.7191,-6.6069,-6.4909,-6.3787,-6.2627,-6.1079,-5.9803,-5.9532,-5.8294,-5.7125,-5.6583,-5.5548,0.0,-5.4039,0.0,-5.2995,0.0,-5.2685,-5.2685,-5.2685,-5.2917,0.0,0.0,0.0,0.0,0.0,0.0,0.0,0.0,-6.0166,0.0,-6.3899,-6.4528,-6.5398,-6.6508,-6.7091,-6.8296,-6.9966,-7.1093,-7.1581,-7.1586,-7.1586,-7.1568,-7.1541,-7.1541,-7.1881,-7.2444,-7.3297,-7.4141,-7.4984,-7.5875,-7.6379,-7.6612,-8.9274,-8.974,-8.9973,-8.9973,-9.0711,-9.1294,-9.1294,-9.176,-9.211,-9.211,-9.211,-9.211,-9.211,-9.211,-9.211,-9.211,-9.211,-9.1877,-9.1333,-9.0983,-9.0206,-8.8807,-8.7953,-8.6943,-8.5738,-8.4612,-8.3679,-8.2825,-8.1659,-8.0455,-7.929,-7.929,-7.9018,-7.8474,-7.8474,-7.8202,-7.7697,-7.7697,-7.7697,-7.7697,-7.7697,-7.7697,-7.7649,-7.7642,-7.7419,-7.7118,-7.7024,-7.6737,-7.6455,-7.6409,-7.6397,-7.6281,-7.5779,-7.5005,-7.4115,-7.2955,-7.222,-7.1717,-7.1369,-7.0905,-7.0286,-6.9473,-6.8622,-6.7655,-6.6456,-6.5141,-6.3942,-6.3023,-6.1747,-6.0577,-5.994,-5.8935,-5.7998,-5.7341,-5.6355,-5.5483,-5.4865,0.0,-5.3884,0.0,0.0,-5.3498,0.0,-5.3807,-5.4116,0.0,0.0,0.0,0.0,0.0,-5.8288,-5.9102,-6.0854,-6.243,-6.3859,-6.4713,-6.5583,-6.6461,-6.7665,-6.8946,-7.0305,-7.1159,-7.1568,-7.158,-7.158,-7.1561,-7.1533,-7.1843,-7.225,-7.2811,-7.3984,-7.4777,-7.5337,-7.62,-7.651,-7.651,-8.9662,-9.0323,-9.0866,-9.0866,-9.1566,-9.211,-9.211,-9.211,-9.211,-9.211,-9.211,-9.211,-9.211,-9.211,-9.211,-9.211,-9.211,-9.211,-9.211,-9.1333,-9.0478,-8.9623,-8.8807,-8.7603,-8.5933,-8.5777,-8.5272,-8.4418,-8.2825,-8.1193,-7.9562,-7.9562,-7.9484,-7.9367,-7.9367,-7.9367,-7.929,-7.929,-7.929,-7.929,-7.929,-7.929,-7.928,-7.9224,-7.8669,-7.7958,-7.7855,-7.7218,-7.6475,-7.6397,-7.6397,-7.6397,-7.6397,-7.5856,-7.485,-7.3187,-7.2645,-7.2413,-7.1523,-7.1291,-7.1098,-7.0208,-6.9357,-6.8274,-6.6572,-6.5566,-6.4734,-6.3794,-6.2895,-6.1793,-6.011,-5.9752,-5.9174,-5.7554,-5.7284,-5.6704,-5.5082,-5.4925,-5.465,0.0,0.0,-5.3691,-5.3768,-5.4503,-5.5316,0.0,0.0,0.0,0.0,0.0,-5.9215,-5.9943,-6.1651,-6.2995,-6.3856,-6.4748,-6.564,-6.6579,-6.8237,-6.9439,-7.0331,-7.1145,-7.1494,-7.1485,-7.1485,-7.1485,-7.1562,-7.2366,-7.2724,-7.2953,-7.4541,-7.5205,-7.5276,-7.6088,-7.6397,-7.6397,-9.1333,-9.1643,-9.1799,-9.1799,-9.1954,-9.211,-9.211,-9.211,-9.211,-9.211,-9.211,-9.211,-9.211,-9.211,-9.211,-9.211,-9.211,-9.211,-9.211,-9.1915,-9.141,-9.0517,-8.9662,-8.873,-8.772,-8.6399,-8.5272,-8.4418,-8.399,-8.3252,-8.2203,-8.2203,-8.1504,-8.03,-8.03,-7.9911,-7.929,-7.929,-7.929,-7.929,-7.9253,-7.9233,-7.9224,-7.9093,-7.8923,-7.863,-7.7953,-7.757,-7.7287,-7.663,-7.6397,-7.6397,-7.6397,-7.6243,-7.574,-7.4077,-7.3109,-7.2413,-7.1523,-7.1291,-7.1098,-7.0208,-6.8893,-6.7529,-6.6366,-6.5505,-6.4672,-6.3731,-6.2821,-6.1895,-6.0882,-6.0138,-5.9559,-5.9135,-5.8528,-5.7766,-5.6686,-5.658,-5.6338,0.0,-5.5418,-5.5659,-5.6351,-5.6583,-5.7056,0.0,0.0,-5.8681,-5.9532,-6.0199,-6.0634,-6.0827,-6.25,-6.3844,-6.4704,-6.5586,-6.6805,-6.8315,-6.9362,-7.0331,-7.1184,-7.1417,-7.1475,-7.1435,-7.1435,-7.1376,-7.1412,-7.2263,-7.3027,-7.3712,-7.4707,-7.5519,-7.6127,-7.632,-7.6397,-7.6397,-9.1993,-9.211,-9.211,-9.211,-9.211,-9.211,-9.211,-9.211,-9.211,-9.211,-9.211,-9.211,-9.211,-9.211,-9.211,-9.211,-9.211,-9.211,-9.211,-9.211,-9.1721,-9.0828,-9.0361,-8.9546,-8.8341,-8.737,-8.6282,-8.5,-8.5,-8.4534,-8.3679,-8.3679,-8.3213,-8.232,-8.1931,-8.1465,-8.0999,-8.0649,-8.0485,-8.0417,-8.0388,-8.0368,-8.0337,-8.024,-7.9935,-7.9536,-7.9013,-7.8602,-7.8177,-7.7287,-7.6978,-7.69,-7.6514,-7.6397,-7.6127,-7.485,-7.3844,-7.2993,-7.2142,-7.1601,-7.1098,-7.0208,-6.9037,-6.7806,-6.6913,-6.6041,-6.5159,-6.4243,-6.3345,-6.2486,-6.1654,-6.0795,-6.0063,-5.9678,-5.9237,-5.8641,-5.7793,-5.7698,-5.7602,-5.713,-5.7101,-5.7274,-5.7785,-5.7871,-5.8228,-5.9145,-5.9532,0.0,-6.1002,-6.1814,-6.2124,-6.1698,-6.34,-6.4503,-6.4996,-6.6235,-6.7716,-6.9411,-6.9876,-7.0573,-7.1425,-7.1425,-7.1405,-7.1334,-7.1334,-7.1556,-7.1949,-7.2839,-7.369,-7.4541,-7.5353,-7.5972,-7.6397,-7.6397,-7.6397,-7.6397,-9.211,-9.211,-9.211,-9.211,-9.211,-9.211,-9.211,-9.211,-9.211,-9.211,-9.211,-9.211,-9.211,-9.211,-9.211,-9.211,-9.211,-9.211,-9.211,-9.211,-9.176,-9.1022,-9.0866,-9.0128,-8.873,-8.8419,-8.7525,-8.5894,-8.5894,-8.5467,-8.4612,-8.4612,-8.4534,-8.4379,-8.3641,-8.3291,-8.3252,-8.2427,-8.2048,-8.1969,-8.1833,-8.1723,-8.168,-8.1612,-8.1124,-8.0454,-8.0278,-7.9763,-7.9067,-7.8177,-7.779,-7.7558,-7.6823,-7.6514,-7.6243,-7.5508,-7.4734,-7.3844,-7.2877,-7.1949,-7.1098,-7.0197,-6.943,-6.8613,-6.7586,-6.6769,-6.5901,-6.4879,-6.4097,-6.3315,-6.2447,-6.1589,-6.0742,-6.0012,-5.9826,-5.9463,-5.8616,0.0,-5.8536,-5.8392,-5.8392,-5.8451,-5.8655,-5.879,-5.9273,-6.018,-6.1041,-6.1814,-6.2549,-6.34,-6.3555,-6.282,-6.4213,-6.5102,-6.5373,-6.7036,-6.8584,-6.9976,-7.0131,-7.0595,-7.1291,-7.1291,-7.1291,-7.1291,-7.1446,-7.191,-7.2684,-7.369,-7.4502,-7.5187,-7.6049,-7.6397,-7.6397,-7.6397,-7.6397,-7.6397,-9.211,-9.211,-9.211,-9.211,-9.211,-9.211,-9.211,-9.211,-9.211,-9.211,-9.211,-9.211,-9.211,-9.211,-9.211,-9.211,-9.211,-9.211,-9.211,-9.211,-9.2032,-9.1915,-9.1177,-9.0672,-9.04,-8.9002,-8.7797,-8.6787,-8.6787,-8.636,-8.5505,-8.5505,-8.5117,-8.4379,-8.4262,-8.4185,-8.4136,-8.3281,-8.2901,-8.2813,-8.1979,-8.1624,-8.1612,-8.1541,-8.1439,-8.1206,-8.0459,-8.0111,-7.9879,-7.9067,-7.8293,-7.7674,-7.7519,-7.6978,-7.6359,-7.6243,-7.5585,-7.4579,-7.3032,-7.1949,-7.1087,-7.0142,-6.981,-6.9274,-6.7625,-6.7126,-6.6562,-6.496,-6.4525,-6.414,-6.3281,-6.2435,-6.187,-6.1716,-6.11,-6.0292,-5.9446,0.0,-5.9095,-5.8406,-5.834,-5.8631,-5.9454,-6.0161,-6.0963,-6.1862,-6.2762,-6.3371,-6.3487,-6.4338,-6.4754,-6.4599,-6.487,-6.5682,-6.7114,-6.8777,-6.9744,-7.0015,-7.075,-7.1175,-7.1291,-7.1291,-7.1291,-7.133,-7.2065,-7.2452,-7.2723,-7.427,-7.5005,-7.5187,-7.6049,-7.6397,-7.6397,-7.6397,-7.6397,-7.6397,-9.211,-9.211,-9.2265,-9.2731,-9.2809,-9.2964,-9.343,-9.3081,-9.2809,-9.2809,-9.2382,-9.211,-9.211,-9.211,-9.211,-9.211,-9.211,-9.211,-9.211,-9.211,-9.211,-9.211,-9.1721,-9.1294,-9.0789,-8.9584,-8.8536,-8.7681,-8.7681,-8.7254,-8.6399,-8.6399,-8.6205,-8.5777,-8.5281,-8.5028,-8.4989,-8.4072,-8.3691,-8.358,-8.267,-8.2286,-8.2211,-8.1709,-8.1491,-8.1465,-8.1039,-8.0923,-8.0769,-7.9918,-7.9376,-7.8873,-7.7983,-7.7403,-7.7016,-7.6552,-7.5779,-7.4734,-7.3071,-7.2297,-7.1783,-7.0826,-7.0251,-6.9663,-6.8783,-6.7859,-6.6936,-6.6102,-6.5243,-6.4474,-6.4089,-6.332,-6.2743,-6.2743,-6.2397,-6.2012,-6.1589,-6.155,-6.1396,-6.1047,-6.1008,-6.1185,-6.1638,-6.2056,-6.2474,-6.292,-6.3833,-6.4366,-6.4366,-6.5634,-6.634,-6.634,-6.634,-6.7152,-6.8816,-6.9589,-7.0247,-7.0711,-7.1098,-7.1291,-7.1291,-7.1291,-7.1562,-7.2026,-7.2413,-7.3109,-7.3999,-7.4773,-7.5392,-7.5856,-7.6243,-7.6397,-7.6397,-7.6397,-7.6397,-7.6397,-9.211,-9.2265,-9.2615,-9.3275,-9.3586,-9.3935,-9.4596,-9.3974,-9.3392,-9.3392,-9.2653,-9.211,-9.211,-9.211,-9.211,-9.211,-9.2099,-9.2088,-9.2088,-9.2077,-9.2077,-9.211,-9.211,-9.1682,-9.0828,-9.0128,-8.939,-8.8574,-8.837,-8.7932,-8.7282,-8.7068,-8.6951,-8.6902,-8.62,-8.5868,-8.5818,-8.487,-8.4436,-8.435,-8.3525,-8.3024,-8.2741,-8.2045,-8.1697,-8.1491,-8.1491,-8.1491,-8.1387,-8.073,-8.0382,-7.9995,-7.868,-7.8022,-7.7558,-7.69,-7.6088,-7.5082,-7.3574,-7.2905,-7.2418,-7.1665,-7.0795,-7.0104,-6.9836,-6.8706,-6.759,-6.7167,-6.609,-6.5128,-6.4936,-6.4205,-6.3589,-6.3589,-6.3435,-6.3308,-6.3308,-6.3308,-6.3308,-6.3308,-6.3308,-6.3332,-6.3392,-6.3557,-6.3708,-6.3792,-6.4619,-6.523,-6.5462,-6.6741,-6.7662,-6.806,-6.807,-6.87,-6.9976,-7.0208,-7.0634,-7.1291,-7.1291,-7.1407,-7.1601,-7.1601,-7.2065,-7.2916,-7.3109,-7.3922,-7.5109,-7.5314,-7.5817,-7.6397,-7.6397,-7.6397,-7.6397,-7.6397,-7.6397,-7.6397,-9.211,-9.2731,-9.3314,-9.3392,-9.4052,-9.4635,-9.4684,-9.3974,-9.3392,-9.3392,-9.2653,-9.211,-9.211,-9.211,-9.211,-9.211,-9.2055,-9.2022,-9.2022,-9.1936,-9.1948,-9.2099,-9.211,-9.1682,-9.0828,-9.075,-9.0284,-8.939,-8.86,-8.8151,-8.8074,-8.7231,-8.682,-8.682,-8.6731,-8.6693,-8.6654,-8.5703,-8.533,-8.5241,-8.4366,-8.3528,-8.278,-8.2741,-8.22,-8.1491,-8.1491,-8.1491,-8.1491,-8.1414,-8.0885,-8.0188,-8.0072,-7.895,-7.7674,-7.7635,-7.6978,-7.6088,-7.516,-7.3721,-7.2476,-7.2339,-7.1608,-7.0722,-6.9886,-6.959,-6.9052,-6.7436,-6.7013,-6.6667,-6.5936,-6.5089,-6.4512,-6.4512,-6.382,0.0,-6.3308,-6.3308,-6.3308,-6.3308,-6.3308,-6.332,-6.332,-6.4073,-6.4609,-6.4621,-6.54,-6.6283,-6.7093,-6.7248,-6.8054,-6.9656,-6.98,-6.986,-6.9976,-7.0789,-7.1253,-7.1291,-7.1291,-7.1717,-7.2491,-7.2491,-7.2993,-7.3844,-7.4579,-7.5005,-7.516,-7.5972,-7.632,-7.6397,-7.6397,-7.6397,-7.6397,-7.6397,-7.6397,-7.6397,-9.211,-9.2382,-9.277,-9.3314,-9.3664,-9.4091,-9.4596,-9.3974,-9.3392,-9.3392,-9.2653,-9.2099,-9.2055,-9.2055,-9.2044,-9.196,-9.1936,-9.1924,-9.1924,-9.19,-9.1912,-9.196,-9.1999,-9.1805,-9.1494,-9.1494,-9.1067,-9.0175,-8.9841,-8.9403,-8.886,-8.8022,-8.7623,-8.7584,-8.6994,-8.6749,-8.6711,-8.6288,-8.6146,-8.6068,-8.5191,-8.4637,-8.4289,-8.3786,-8.3051,-8.2316,-8.2316,-8.1968,-8.1491,-8.1491,-8.1259,-8.0923,-8.0382,-7.9763,-7.9067,-7.8022,-7.7094,-7.632,-7.5963,-7.4973,-7.3778,-7.2674,-7.2097,-7.1569,-7.0643,-7.0052,-6.9513,-6.8859,-6.8282,-6.7667,-6.6782,-6.6359,-6.5974,-6.5474,-6.5128,-6.4897,-6.4897,-6.4897,-6.4897,-6.4897,-6.4897,-6.4897,-6.4897,-6.5692,-6.6166,-6.6166,-6.7036,-6.7677,-6.8036,-6.8613,-6.9447,-7.059,-7.0664,-7.0711,-7.0789,-7.1137,-7.1291,-7.1291,-7.1833,-7.2297,-7.2607,-7.3148,-7.3844,-7.4657,-7.4955,-7.543,-7.5933,-7.6243,-7.6397,-7.6397,-7.6397,-7.6397,-7.6397,-7.6397,-7.6397,-7.6397,-9.211,-9.2304,-9.2692,-9.3314,-9.3625,-9.4013,-9.4574,-9.3914,-9.3359,-9.3337,-9.2599,-9.2033,-9.196,-9.1948,-9.1936,-9.1888,-9.1863,-9.185,-9.185,-9.1838,-9.1838,-9.1888,-9.1888,-9.1888,-9.1888,-9.1888,-9.1616,-9.0996,-9.07,-9.0274,-8.9641,-8.8815,-8.8299,-8.8028,-8.7358,-8.6907,-8.6675,-8.6623,-8.661,-8.6571,-8.5952,-8.5526,-8.5256,-8.4675,-8.394,-8.3167,-8.2896,-8.2432,-8.189,-8.1581,-8.1491,-8.1387,-8.0807,-8.042,-7.9879,-7.8177,-7.7275,-7.671,-7.6391,-7.5851,-7.499,-7.3524,-7.2726,-7.2121,-7.1451,-7.0667,-7.0014,-6.9744,-6.9206,-6.8552,-6.7667,-6.7513,-6.7321,-6.6782,-6.6705,-6.6705,-6.6705,-6.6705,-6.6705,-6.6705,-6.6705,-6.6705,-6.6705,-6.7167,-6.7513,-6.7513,-6.8091,-6.8578,-6.8848,-6.9759,-7.049,-7.1068,-7.1363,-7.1567,-7.1661,-7.1684,-7.1695,-7.1695,-7.2595,-7.3148,-7.3419,-7.3999,-7.4734,-7.5508,-7.5508,-7.5856,-7.6397,-7.6397,-7.6397,-7.6397,-7.6397,-7.6397,-7.6397,-7.6397,-7.6397,-7.6397,-9.211,-9.2809,-9.3392,-9.3392,-9.4091,-9.4652,-9.4595,-9.3846,-9.3279,-9.318,-9.2431,-9.1888,-9.1888,-9.1888,-9.1888,-9.1888,-9.1825,-9.1786,-9.1786,-9.1757,-9.1785,-9.1875,-9.1888,-9.1888,-9.1888,-9.1888,-9.1888,-9.1888,-9.0973,-9.0508,-9.0508,-8.9629,-8.8737,-8.7925,-8.7925,-8.7422,-8.661,-8.661,-8.661,-8.661,-8.661,-8.6068,-8.5294,-8.5294,-8.4792,-8.3979,-8.3128,-8.2819,-8.2664,-8.1813,-8.1504,-8.1491,-8.1491,-8.0923,-7.9879,-7.8216,-7.7664,-7.7421,-7.6533,-7.6198,-7.5898,-7.5011,-7.3493,-7.2206,-7.2206,-7.1552,-7.0667,-6.9898,-6.9706,-6.9436,-6.8577,-6.8398,-6.8398,-6.8385,-6.8385,-6.8385,-6.8385,-6.8385,-6.8385,-6.8385,-6.8385,-6.8385,-6.8385,-6.8398,-6.8398,-6.8398,-6.8436,-6.8821,-6.9667,-7.0542,-7.1005,-7.1005,-7.1917,-7.2405,-7.2405,-7.2479,-7.2515,-7.2515,-7.3462,-7.4347,-7.5109,-7.5109,-7.5585,-7.6397,-7.6397,-7.6397,-7.6397,-7.6397,-7.6397,-7.6397,-7.6397,-7.6397,-7.6397,-7.6397,-7.6397,-7.6397,-9.2044,-9.2204,-9.2336,-9.2336,-9.2569,-9.2712,-9.27,-9.2494,-9.23,-9.2276,-9.2043,-9.1863,-9.1825,-9.1812,-9.1799,-9.1746,-9.1719,-9.1744,-9.1744,-9.173,-9.173,-9.1771,-9.1746,-9.1746,-9.1746,-9.1746,-9.1746,-9.1746,-9.1486,-9.1318,-9.1318,-9.0453,-8.9898,-8.9588,-8.8428,-8.777,-8.7461,-8.688,-8.661,-8.661,-8.661,-8.6455,-8.6223,-8.6223,-8.5681,-8.4908,-8.4637,-8.3786,-8.2741,-8.2509,-8.2006,-8.1491,-8.1491,-8.0923,-8.0099,-7.9546,-7.8554,-7.7512,-7.7188,-7.658,-7.5898,-7.5011,-7.4379,-7.3822,-7.3245,-7.2437,-7.1745,-7.1514,-7.0975,-7.0283,-6.9475,-6.9321,-6.9129,-6.85,-6.8385,-6.8385,-6.8385,-6.8385,-6.8385,-6.8385,-6.8385,-6.8385,-6.8385,-6.8936,-6.9321,-6.9321,-6.986,-7.0283,-7.0514,-7.1387,-7.1863,-7.1863,-7.2723,-7.3185,-7.3185,-7.3279,-7.333,-7.333,-7.4204,-7.4706,-7.4976,-7.5594,-7.6019,-7.6263,-7.6263,-7.6263,-7.6263,-7.6263,-7.6263,-7.6263,-7.6263,-7.6263,-7.6263,-7.6313,-7.6338,-7.6338,-9.1948,-9.1912,-9.1888,-9.1888,-9.1888,-9.1875,-9.185,-9.185,-9.1838,-9.1812,-9.1812,-9.1825,-9.1746,-9.1746,-9.1719,-9.1716,-9.1716,-9.1716,-9.1716,-9.1716,-9.1716,-9.1716,-9.1716,-9.1716,-9.1716,-9.1716,-9.1716,-9.1716,-9.1716,-9.1716,-9.1677,-9.1174,-9.0749,-9.0362,-8.9356,-8.8505,-8.7886,-8.7345,-8.6919,-8.661,-8.661,-8.661,-8.661,-8.661,-8.6261,-8.5759,-8.541,-8.4637,-8.3747,-8.3399,-8.2741,-8.1968,-8.162,-8.113,-8.0602,-8.0216,-7.9352,-7.8436,-7.7992,-7.7218,-7.6433,-7.5933,-7.5236,-7.4591,-7.4091,-7.3322,-7.2706,-7.2706,-7.2014,-7.1283,-7.0783,-7.0398,-7.0014,-6.9475,-6.9398,-6.9398,-6.9398,-6.9398,-6.9398,-6.9398,-6.9398,-6.9398,-6.9398,-6.986,-7.0167,-7.0167,-7.0937,-7.1398,-7.1398,-7.2245,-7.2706,-7.2706,-7.3553,-7.3976,-7.3976,-7.4406,-7.4474,-7.4153,-7.4989,-7.5427,-7.5427,-7.5967,-7.6198,-7.6198,-7.6198,-7.6198,-7.6198,-7.6198,-7.6198,-7.6198,-7.6198,-7.6198,-7.6198,-7.6238,-7.6263,-7.6263,-9.1875,-9.1875,-9.1863,-9.1863,-9.1863,-9.185,-9.1786,-9.1773,-9.1746,-9.1716,-9.1716,-9.1716,-9.1716,-9.1716,-9.1716,-9.1716,-9.1716,-9.1716,-9.1716,-9.1716,-9.1716,-9.1716,-9.1716,-9.1716,-9.1716,-9.1716,-9.1716,-9.1716,-9.1716,-9.1716,-9.1716,-9.1716,-9.129,-9.0516,-9.0439,-8.9511,-8.8002,-8.7925,-8.7422,-8.661,-8.661,-8.661,-8.661,-8.661,-8.661,-8.6494,-8.572,-8.5372,-8.5178,-8.4366,-8.3515,-8.2664,-8.1839,-8.153,-8.1233,-8.0421,-8.0043,-7.975,-7.8927,-7.8074,-7.74,-7.7323,-7.6092,-7.4899,-7.4822,-7.4207,-7.363,-7.363,-7.2937,-7.2322,-7.2322,-7.1668,-7.1129,-7.1129,-7.1129,-7.1129,-7.1129,-7.1129,-7.1129,-7.1129,-7.1129,-7.1129,-7.1129,-7.1129,-7.1129,-7.1129,-7.186,-7.2322,-7.2322,-7.3129,-7.363,-7.363,-7.4399,-7.4822,-7.4822,-7.5592,-7.5635,-7.4921,-7.576,-7.6172,-7.6172,-7.6172,-7.6172,-7.6172,-7.6172,-7.6172,-7.6172,-7.6172,-7.6172,-7.6172,-7.6172,-7.6172,-7.6172,-7.6185,-7.6185,-7.6185,-9.1812,-9.1759,-9.1719,-9.1719,-9.1719,-9.1757,-9.1705,-9.1744,-9.173,-9.1716,-9.1716,-9.1716,-9.1716,-9.1716,-9.1716,-9.1716,-9.1716,-9.1716,-9.1716,-9.1716,-9.1716,-9.1716,-9.1716,-9.1716,-9.1716,-9.1716,-9.1716,-9.1716,-9.1716,-9.1716,-9.1716,-9.1716,-9.16,-9.1406,-9.071,-8.9859,-8.8853,-8.8196,-8.7422,-8.661,-8.661,-8.661,-8.661,-8.661,-8.661,-8.6571,-8.6377,-8.5875,-8.5178,-8.4366,-8.3515,-8.278,-8.2522,-8.1955,-8.1335,-8.107,-8.0473,-7.9851,-7.9599,-7.8915,-7.8092,-7.7438,-7.7015,-7.6553,-7.5861,-7.5053,-7.4437,-7.4437,-7.3783,-7.3206,-7.3206,-7.3053,-7.2937,-7.2937,-7.2937,-7.2937,-7.2937,-7.2937,-7.2937,-7.2937,-7.2937,-7.2937,-7.2937,-7.2937,-7.2937,-7.2937,-7.3129,-7.3206,-7.3206,-7.4014,-7.4437,-7.4437,-7.5284,-7.5707,-7.5707,-7.5899,-7.5914,-7.5736,-7.5943,-7.602,-7.602,-7.602,-7.602,-7.602,-7.602,-7.602,-7.602,-7.602,-7.602,-7.602,-7.602,-7.602,-7.6034,-7.609,-7.6118,-7.6131,-9.1732,-9.1705,-9.1716,-9.1716,-9.1716,-9.1716,-9.1716,-9.1716,-9.1716,-9.1716,-9.1716,-9.1716,-9.1716,-9.1716,-9.1716,-9.1716,-9.1716,-9.1716,-9.1716,-9.1716,-9.1716,-9.1716,-9.1716,-9.1716,-9.1716,-9.1716,-9.1716,-9.1716,-9.1716,-9.1716,-9.1716,-9.1716,-9.1716,-9.1677,-9.1213,-9.0555,-8.9704,-8.8892,-8.8041,-8.719,-8.6764,-8.661,-8.661,-8.661,-8.661,-8.661,-8.661,-8.63,-8.5784,-8.4907,-8.4313,-8.3811,-8.2919,-8.2284,-8.1779,-8.1321,-8.0838,-8.0446,-8.0454,-7.9785,-7.9015,-7.8592,-7.8169,-7.7553,-7.6284,-7.5668,-7.5322,-7.5322,-7.4668,-7.4091,-7.4091,-7.3783,-7.3514,-7.3514,-7.3514,-7.3514,-7.3514,-7.3514,-7.3514,-7.3514,-7.3514,-7.3514,-7.3514,-7.3514,-7.3514,-7.3514,-7.386,-7.4091,-7.4091,-7.4861,-7.5322,-7.5322,-7.5745,-7.6015,-7.6015,-7.6015,-7.6015,-7.6015,-7.6015,-7.6015,-7.6015,-7.6015,-7.6015,-7.6015,-7.6015,-7.6015,-7.6015,-7.6015,-7.6015,-7.6015,-7.6015,-7.6015,-7.5976,-7.602,-7.6034,-7.6125,-9.1716,-9.1716,-9.1716,-9.1716,-9.1716,-9.1716,-9.1716,-9.1716,-9.1716,-9.1716,-9.1716,-9.1716,-9.1716,-9.1716,-9.1716,-9.1716,-9.1716,-9.1716,-9.1716,-9.1716,-9.1716,-9.1716,-9.1716,-9.1716,-9.1716,-9.1716,-9.1716,-9.1716,-9.1716,-9.1716,-9.1716,-9.1716,-9.1716,-9.1716,-9.1716,-9.1213,-9.0362,-8.9704,-8.8814,-8.7847,-8.7112,-8.6726,-8.661,-8.661,-8.661,-8.661,-8.661,-8.6596,-8.6467,-8.5664,-8.5327,-8.4927,-8.3452,-8.2839,-8.2447,-8.1623,-8.1331,-8.1285,-8.1131,-8.0554,-7.9977,-7.9862,-7.9246,-7.8323,-7.6784,-7.6322,-7.6169,-7.6015,-7.5438,-7.4938,-7.4938,-7.4399,-7.3937,-7.3937,-7.3937,-7.3937,-7.3937,-7.3937,-7.3937,-7.3937,-7.3937,-7.3937,-7.3937,-7.3937,-7.3937,-7.3937,-7.4553,-7.4938,-7.4938,-7.563,-7.6015,-7.6015,-7.6015,-7.6015,-7.6015,-7.6015,-7.6015,-7.6015,-7.6015,-7.6015,-7.6015,-7.6015,-7.6015,-7.6015,-7.6015,-7.6015,-7.6015,-7.6015,-7.6015,-7.6015,-7.6015,-7.6015,-7.6015,-7.6169,-7.6207,-7.6361,-9.1716,-9.1716,-9.1716,-9.1716,-9.1716,-9.1716,-9.1716,-9.1716,-9.1716,-9.1716,-9.1716,-9.1716,-9.1716,-9.1716,-9.1716,-9.1716,-9.1716,-9.1716,-9.1716,-9.1716,-9.1716,-9.1716,-9.1716,-9.1716,-9.1716,-9.1716,-9.1716,-9.1716,-9.1716,-9.1716,-9.1716,-9.1716,-9.1716,-9.1716,-9.1716,-9.1213,-9.04,-9.0284,-8.9317,-8.7886,-8.777,-8.7267,-8.661,-8.661,-8.661,-8.661,-8.661,-8.6569,-8.65,-8.6312,-8.5743,-8.5072,-8.4766,-8.4158,-8.3356,-8.2409,-8.2147,-8.1977,-8.1285,-8.1016,-8.0746,-7.9977,-7.9708,-7.9361,-7.84,-7.763,-7.6899,-7.6169,-7.5899,-7.5822,-7.5822,-7.5745,-7.5668,-7.5668,-7.5668,-7.5668,-7.5668,-7.5668,-7.5668,-7.5668,-7.5668,-7.5668,-7.5668,-7.5668,-7.5668,-7.5668,-7.5745,-7.5822,-7.5822,-7.5938,-7.6015,-7.6015,-7.6015,-7.6015,-7.6015,-7.6015,-7.6015,-7.6015,-7.6015,-7.6015,-7.6015,-7.6015,-7.6015,-7.6015,-7.6015,-7.6015,-7.6015,-7.6015,-7.6015,-7.6015,-7.6015,-7.6015,-7.6092,-7.6861,-7.713,-7.7246,-9.1716,-9.1716,-9.1716,-9.1716,-9.1716,-9.1716,-9.1716,-9.1716,-9.1716,-9.1716,-9.1716,-9.1716,-9.1716,-9.1716,-9.1716,-9.1716,-9.1716,-9.1716,-9.1716,-9.1716,-9.1716,-9.1716,-9.1716,-9.1716,-9.1716,-9.1716,-9.1716,-9.1716,-9.1716,-9.1716,-9.1716,-9.1716,-9.1716,-9.1716,-9.1716,-9.1484,-9.1097,-9.0594,-8.9975,-8.9201,-8.8273,-8.7693,-8.7267,-8.6803,-8.6583,-8.6542,-8.65,-8.6457,-8.6428,-8.63,-8.6054,-8.5614,-8.5097,-8.468,-8.418,-8.3301,-8.267,-8.2208,-8.1862,-8.1439,-8.1016,-8.0631,-8.0516,-8.0285,-7.94,-7.8938,-7.8438,-7.7592,-7.7053,-7.6746,-7.6746,-7.6322,-7.6015,-7.6015,-7.597,-7.594,-7.594,-7.5872,-7.5841,-7.5841,-7.5887,-7.594,-7.594,-7.5985,-7.6015,-7.6015,-7.6015,-7.6015,-7.6015,-7.6015,-7.6015,-7.6015,-7.6015,-7.6015,-7.6015,-7.6015,-7.6015,-7.6015,-7.6015,-7.6015,-7.6015,-7.6015,-7.6015,-7.6015,-7.6015,-7.6015,-7.6015,-7.6015,-7.6015,-7.6015,-7.6015,-7.6284,-7.6823,-7.7669,-7.7977,-7.8092]},{"header":{"parameterUnit":"m.s-1","parameterCategory":1,"la1":30.6,"la2":28.766,"lo1":-90.7593,"lo2":-88.6598,"dy":0.0162,"dx":0.0183,"nx":116,"ny":114,"refTime":"2024-05-06T12:00:00:Z","depth":0,"parameterNumber":3,"parameterNumberName":"V-component_of_WINDS"},"data":[0.0,0.0,0.0,0.0,0.0,0.0,0.0,0.0,0.0,0.0,0.0,0.0,0.0,0.0,0.0,0.0,0.0,0.0,0.0,0.0,0.0,0.0,0.0,0.0,0.0,0.0,0.0,0.0,0.0,0.0,0.0,0.0,0.0,0.0,0.0,0.0,0.0,0.0,0.0,0.0,0.0,0.0,0.0,0.0,0.0,0.0,0.0,0.0,0.0,0.0,0.0,0.0,0.0,0.0,0.0,0.0,0.0,0.0,0.0,0.0,0.0,0.0,0.0,0.0,0.0,0.0,0.0,0.0,0.0,0.0,0.0,0.0,0.0,0.0,0.0,0.0,0.0,0.0,0.0,0.0,0.0,0.0,0.0,0.0,0.0,0.0,0.0,0.0,0.0,0.0,0.0,0.0,0.0,0.0,0.0,0.0,0.0,0.0,0.0,0.0,0.0,0.0,0.0,0.0,0.0,0.0,0.0,0.0,0.0,0.0,0.0,0.0,0.0,0.0,0.0,0.0,0.0,0.0,0.0,0.0,0.0,0.0,0.0,0.0,0.0,0.0,0.0,0.0,0.0,0.0,0.0,0.0,0.0,0.0,0.0,0.0,0.0,0.0,0.0,0.0,0.0,0.0,0.0,0.0,0.0,0.0,0.0,0.0,0.0,0.0,0.0,0.0,0.0,0.0,0.0,0.0,0.0,0.0,0.0,0.0,0.0,0.0,0.0,0.0,0.0,0.0,0.0,0.0,0.0,0.0,0.0,0.0,0.0,0.0,0.0,0.0,0.0,0.0,0.0,0.0,0.0,0.0,0.0,0.0,0.0,0.0,0.0,0.0,0.0,0.0,0.0,0.0,0.0,0.0,0.0,0.0,0.0,0.0,0.0,0.0,0.0,0.0,0.0,0.0,0.0,0.0,0.0,0.0,0.0,0.0,0.0,0.0,0.0,0.0,0.0,0.0,0.0,0.0,0.0,0.0,0.0,0.0,0.0,0.0,0.0,0.0,0.0,0.0,0.0,0.0,0.0,0.0,0.0,0.0,0.0,0.0,0.0,0.0,0.0,0.0,0.0,0.0,0.0,0.0,0.0,0.0,0.0,0.0,0.0,0.0,0.0,0.0,0.0,0.0,0.0,0.0,0.0,0.0,0.0,0.0,0.0,0.0,0.0,0.0,0.0,0.0,0.0,0.0,0.0,0.0,0.0,0.0,0.0,0.0,0.0,0.0,0.0,0.0,0.0,0.0,0.0,0.0,0.0,0.0,0.0,0.0,0.0,0.0,0.0,0.0,0.0,0.0,0.0,0.0,0.0,0.0,0.0,0.0,0.0,0.0,0.0,0.0,0.0,0.0,0.0,0.0,0.0,0.0,0.0,0.0,0.0,0.0,0.0,0.0,0.0,0.0,0.0,0.0,0.0,0.0,0.0,0.0,0.0,0.0,0.0,0.0,0.0,0.0,0.0,0.0,0.0,0.0,0.0,0.0,0.0,0.0,0.0,0.0,0.0,0.0,0.0,0.0,0.0,0.0,0.0,0.0,0.0,0.0,0.0,0.0,0.0,0.0,0.0,0.0,0.0,0.0,0.0,0.0,0.0,0.0,0.0,0.0,0.0,0.0,0.0,0.0,0.0,0.0,0.0,0.0,0.0,0.0,0.0,0.0,0.0,0.0,0.0,0.0,0.0,0.0,0.0,0.0,0.0,0.0,0.0,0.0,0.0,0.0,0.0,0.0,0.0,0.0,0.0,0.0,0.0,0.0,0.0,0.0,0.0,0.0,0.0,0.0,0.0,0.0,0.0,0.0,0.0,0.0,0.0,0.0,0.0,0.0,0.0,0.0,0.0,0.0,0.0,0.0,0.0,0.0,0.0,0.0,0.0,0.0,0.0,0.0,0.0,0.0,0.0,0.0,0.0,0.0,0.0,0.0,0.0,0.0,0.0,0.0,0.0,0.0,0.0,0.0,0.0,0.0,0.0,0.0,0.0,0.0,0.0,0.0,0.0,0.0,0.0,0.0,0.0,0.0,0.0,0.0,0.0,0.0,0.0,0.0,0.0,0.0,0.0,0.0,0.0,0.0,0.0,0.0,0.0,0.0,0.0,0.0,0.0,0.0,0.0,0.0,0.0,0.0,0.0,0.0,0.0,0.0,0.0,0.0,0.0,0.0,0.0,0.0,0.0,0.0,0.0,0.0,0.0,0.0,0.0,0.0,0.0,0.0,0.0,0.0,0.0,0.0,0.0,0.0,0.0,0.0,0.0,0.0,0.0,0.0,0.0,0.0,0.0,0.0,0.0,0.0,0.0,0.0,0.0,0.0,0.0,0.0,0.0,0.0,0.0,0.0,0.0,0.0,0.0,0.0,0.0,0.0,0.0,0.0,0.0,0.0,0.0,0.0,0.0,0.0,0.0,0.0,0.0,0.0,0.0,0.0,0.0,0.0,0.0,0.0,0.0,0.0,0.0,0.0,0.0,0.0,0.0,0.0,0.0,0.0,0.0,0.0,0.0,0.0,0.0,0.0,0.0,0.0,0.0,0.0,0.0,0.0,0.0,0.0,0.0,0.0,0.0,0.0,0.0,0.0,0.0,0.0,0.0,0.0,0.0,0.0,0.0,0.0,0.0,0.0,0.0,0.0,0.0,0.0,0.0,0.0,0.0,0.0,0.0,0.0,0.0,0.0,0.0,0.0,0.0,0.0,0.0,0.0,0.0,0.0,0.0,0.0,0.0,0.0,0.0,0.0,0.0,0.0,0.0,0.0,0.0,0.0,0.0,0.0,0.0,0.0,0.0,0.0,0.0,0.0,0.0,0.0,0.0,0.0,0.0,0.0,0.0,0.0,0.0,0.0,0.0,0.0,0.0,0.0,0.0,0.0,0.0,0.0,0.0,0.0,0.0,0.0,0.0,0.0,0.0,0.0,0.0,0.0,0.0,0.0,0.0,0.0,0.0,0.0,0.0,0.0,0.0,0.0,0.0,0.0,0.0,0.0,0.0,0.0,0.0,0.0,0.0,0.0,0.0,0.0,0.0,0.0,0.0,0.0,0.0,0.0,0.0,0.0,0.0,0.0,0.0,0.0,0.0,0.0,0.0,0.0,0.0,0.0,0.0,0.0,0.0,0.0,0.0,0.0,0.0,0.0,0.0,0.0,0.0,0.0,0.0,0.0,0.0,0.0,0.0,0.0,0.0,0.0,0.0,0.0,0.0,0.0,0.0,0.0,0.0,0.0,0.0,0.0,0.0,0.0,0.0,0.0,0.0,0.0,0.0,0.0,0.0,0.0,0.0,0.0,0.0,0.0,0.0,0.0,0.0,0.0,0.0,0.0,0.0,0.0,0.0,0.0,0.0,0.0,0.0,0.0,0.0,0.0,0.0,0.0,0.0,0.0,0.0,0.0,0.0,0.0,0.0,0.0,0.0,0.0,0.0,0.0,0.0,0.0,0.0,0.0,0.0,0.0,0.0,0.0,0.0,0.0,0.0,0.0,0.0,0.0,0.0,0.0,0.0,0.0,0.0,0.0,0.0,0.0,0.0,0.0,0.0,0.0,0.0,0.0,0.0,0.0,0.0,0.0,0.0,0.0,0.0,0.0,0.0,0.0,0.0,0.0,0.0,0.0,0.0,0.0,0.0,0.0,0.0,0.0,0.0,0.0,0.0,0.0,0.0,0.0,0.0,0.0,0.0,0.0,0.0,0.0,0.0,0.0,0.0,0.0,0.0,0.0,0.0,0.0,0.0,0.0,0.0,0.0,0.0,0.0,0.0,0.0,0.0,0.0,0.0,0.0,0.0,0.0,0.0,0.0,0.0,0.0,0.0,0.0,0.0,0.0,0.0,0.0,0.0,0.0,0.0,0.0,0.0,0.0,0.0,0.0,0.0,0.0,0.0,0.0,0.0,0.0,0.0,0.0,0.0,0.0,0.0,0.0,0.0,0.0,0.0,0.0,0.0,0.0,0.0,0.0,0.0,0.0,0.0,0.0,0.0,0.0,0.0,0.0,0.0,0.0,0.0,0.0,0.0,0.0,0.0,0.0,0.0,0.0,0.0,0.0,0.0,0.0,0.0,0.0,0.0,0.0,0.0,0.0,0.0,0.0,0.0,0.0,0.0,0.0,0.0,0.0,0.0,0.0,0.0,0.0,0.0,0.0,0.0,0.0,0.0,0.0,0.0,0.0,0.0,0.0,0.0,0.0,0.0,0.0,0.0,0.0,0.0,0.0,0.0,0.0,0.0,0.0,0.0,0.0,0.0,0.0,0.0,0.0,0.0,0.0,0.0,0.0,0.0,0.0,0.0,0.0,0.0,0.0,0.0,0.0,0.0,0.0,0.0,0.0,0.0,0.0,0.0,0.0,0.0,0.0,0.0,0.0,0.0,0.0,0.0,0.0,0.0,0.0,0.0,0.0,0.0,0.0,0.0,0.0,0.0,0.0,0.0,0.0,0.0,0.0,0.0,0.0,0.0,0.0,0.0,0.0,0.0,0.0,0.0,0.0,0.0,0.0,0.0,0.0,0.0,0.0,0.0,0.0,0.0,0.0,0.0,0.0,0.0,0.0,0.0,0.0,0.0,0.0,0.0,0.0,0.0,0.0,0.0,0.0,0.0,0.0,0.0,0.0,0.0,0.0,0.0,0.0,0.0,0.0,0.0,0.0,0.0,0.0,0.0,0.0,0.0,0.0,0.0,0.0,0.0,0.0,0.0,0.0,0.0,0.0,0.0,0.0,0.0,0.0,0.0,0.0,0.0,0.0,0.0,0.0,0.0,0.0,0.0,0.0,0.0,0.0,0.0,0.0,0.0,0.0,0.0,0.0,0.0,0.0,0.0,0.0,0.0,0.0,0.0,0.0,0.0,0.0,0.0,0.0,0.0,0.0,0.0,0.0,0.0,0.0,0.0,0.0,0.0,0.0,0.0,0.0,0.0,0.0,0.0,0.0,0.0,0.0,0.0,0.0,0.0,0.0,0.0,0.0,0.0,0.0,0.0,0.0,0.0,0.0,0.0,0.0,0.0,0.0,0.0,0.0,0.0,0.0,0.0,0.0,0.0,0.0,0.0,0.0,0.0,0.0,0.0,0.0,0.0,0.0,0.0,0.0,0.0,0.0,0.0,0.0,0.0,0.0,0.0,0.0,0.0,0.0,0.0,0.0,0.0,0.0,0.0,0.0,0.0,0.0,0.0,0.0,0.0,0.0,0.0,0.0,0.0,0.0,0.0,0.0,0.0,0.0,0.0,0.0,0.0,0.0,0.0,0.0,0.0,0.0,0.0,0.0,0.0,0.0,0.0,0.0,0.0,0.0,0.0,0.0,0.0,0.0,0.0,0.0,0.0,0.0,0.0,0.0,0.0,0.0,0.0,0.0,0.0,0.0,0.0,0.0,0.0,0.0,0.0,0.0,0.0,0.0,0.0,0.0,0.0,0.0,0.0,0.0,0.0,0.0,0.0,0.0,0.0,0.0,0.0,0.0,0.0,0.0,0.0,0.0,0.0,0.0,0.0,0.0,0.0,0.0,0.0,0.0,0.0,0.0,0.0,0.0,0.0,0.0,0.0,0.0,0.0,0.0,0.0,0.0,0.0,0.0,0.0,0.0,0.0,0.0,0.0,0.0,0.0,0.0,0.0,0.0,0.0,0.0,0.0,0.0,0.0,0.0,0.0,0.0,0.0,0.0,0.0,0.0,0.0,0.0,0.0,0.0,0.0,0.0,0.0,0.0,0.0,0.0,0.0,0.0,0.0,0.0,0.0,0.0,0.0,0.0,0.0,0.0,0.0,0.0,0.0,0.0,0.0,0.0,0.0,0.0,0.0,0.0,0.0,0.0,0.0,0.0,0.0,0.0,0.0,0.0,0.0,0.0,0.0,0.0,0.0,0.0,0.0,0.0,0.0,0.0,0.0,0.0,0.0,0.0,0.0,0.0,0.0,0.0,0.0,0.0,0.0,0.0,0.0,0.0,0.0,0.0,0.0,0.0,0.0,0.0,0.0,0.0,0.0,0.0,0.0,0.0,0.0,0.0,0.0,0.0,0.0,0.0,0.0,0.0,0.0,0.0,0.0,0.0,0.0,0.0,0.0,0.0,0.0,0.0,0.0,0.0,0.0,0.0,0.0,0.0,0.0,0.0,0.0,0.0,0.0,0.0,0.0,0.0,0.0,0.0,0.0,0.0,0.0,0.0,0.0,0.0,0.0,0.0,0.0,0.0,0.0,0.0,0.0,0.0,0.0,0.126,0.1296,0.1296,0.1296,0.1296,0.1296,0.0,0.0,0.0,0.0,0.0,0.1158,0.0838,0.0631,0.0505,0.0168,0.0,0.0,0.0,0.0,0.0,0.0,0.0,0.0,0.0,0.0,0.0,0.0,0.0,0.0,0.0,0.0,0.0,0.0,0.0,0.0,0.0,0.0,0.0,0.0,0.0,0.0,0.0,0.0,0.0,0.0,0.0,0.0,0.0,0.0,0.0,0.0,0.0,0.0,0.0,0.0,0.0,0.0,0.0,0.0,0.0,0.0,0.0,0.0,0.0,0.0,0.0,0.0,0.0,0.0,0.0,0.0,0.0,0.0,0.0,0.0,0.0,0.0,0.0,0.0,0.0,0.0,0.0,0.0,0.0,0.0,0.0,0.0,0.0,0.0,0.0,0.0,0.0,0.0,0.0,0.0,0.0,0.0,0.0,0.0,0.0,0.0,0.0,0.0,0.0,0.0,0.0,0.0,0.0,0.0,0.0,0.0,0.0,0.0,0.1203,0.1203,0.126,0.1296,0.1296,0.1296,0.1299,0.1305,0.1288,0.1305,0.131,0.1297,0.1228,0.1016,0.0808,0.0554,0.03,0.0086,0.0,0.0,0.0,0.0,0.0,-0.0163,0.0,0.0,0.0,0.0,0.0,0.0,0.0,0.0,0.0,0.0,0.0,0.0,0.0,0.0,0.0,0.0,0.0,0.0,0.0,0.0,0.0,0.0,0.0,0.0,0.0,0.0,0.0,0.0,0.0,0.0,0.0,0.0,0.0,0.0,0.0,0.0,0.0,0.0,0.0,0.0,0.0,0.0,0.0,0.0,0.0,0.0,0.0,0.0,0.0,0.0,0.0,0.0,0.0,0.0,0.0,0.0,0.0,0.0,0.0,0.0,0.0,0.0,0.0,0.0,0.0,0.0,0.0,0.0,0.0,0.0,0.0,0.0,0.0,0.0,0.0,0.0,0.0,0.0,0.0,0.0,0.0,0.0,0.0,0.0,0.0,0.0,0.0,0.0,0.0,0.0,0.0,0.0,0.1203,0.1203,0.126,0.1296,0.1296,0.1296,0.1307,0.1295,0.1301,0.1314,0.13,0.1369,0.1255,0.0997,0.0794,0.0583,0.0366,0.014,0.0,0.0,0.0,0.0,0.0,-0.0043,-0.0125,-0.0291,0.0,0.0,0.0,0.0,0.0,0.0,0.0,0.0,0.0,0.0,0.0,0.0,0.0,0.0,0.0,0.0,0.0,0.0,0.0,0.0,0.0,0.0,0.0,0.0,0.0,0.0,0.0,0.0,0.0,0.0,0.0,0.0,0.0,0.0,0.0,0.0,0.0,0.0,0.0,0.0,0.0,0.0101,0.0105,0.0,0.0,0.0,0.0,0.0,0.0,0.0,0.0,0.0,0.0,0.0,0.0,0.0,0.0,0.0,0.0,0.0,0.0,0.0,0.0,0.0,0.0,0.0,0.0,0.0,0.0,0.0,0.0,0.0,0.0,0.0,0.0,0.0,0.0,0.0,0.0,0.0,0.0,0.0,0.0,0.0,0.0,0.0,0.0,0.0,0.0,0.0,0.0,0.0,0.126,0.1296,0.1296,0.1313,0.1288,0.1302,0.1333,0.1358,0.1371,0.14,0.1201,0.0856,0.0727,0.0507,0.0188,0.0047,0.0,0.0,0.0,0.0,0.0,0.0,-0.0045,-0.0131,-0.025,0.0,0.0,0.0,0.0,0.0,0.0,0.0,0.0,0.0,0.0,0.0,0.0,0.0,0.0,0.0,0.0,0.0,0.0,0.0,0.0,0.0,0.0,0.0,0.0,0.0,0.0,0.0,0.0,0.0,0.0,0.0,0.0,0.0,0.0,0.0,0.0,0.0,0.0,0.0,0.0,0.0,0.0,0.0,0.0,0.0,0.0,0.0,0.0,0.0,0.0,0.0,0.0,0.0,0.0,0.0,0.0,0.0,0.0,0.0,0.0,0.0,0.0,0.0,0.0,0.0,0.0,0.0,0.0,0.0,0.0,-0.0422,-0.1123,0.0,0.0,0.0,0.0,-0.2121,-0.2093,0.0,0.0,0.0,0.0,0.0,0.0,0.0,0.0,0.0,0.0,0.0,0.0,0.1203,0.126,0.1296,0.1296,0.1286,0.1306,0.1314,0.1362,0.1393,0.1401,0.1341,0.1139,0.0693,0.0561,0.0331,0.0,0.0,0.0,0.0,0.0,0.0,0.0,0.0,0.0,0.0,-0.0175,-0.0214,-0.0256,0.0,0.0,0.0,0.0,0.0,0.0,0.0,0.0,0.0,0.0,0.0,0.0,0.0,0.0,0.0,0.0,0.0,0.0,0.0,0.0,0.0,0.0,0.0,0.0,0.0,0.0,0.0,0.0,0.0,0.0,0.0,0.0,0.0,0.0,0.0,0.0,0.0,0.0,0.0,0.0,0.0,0.0,0.0,0.0,0.0,0.0,0.0,0.0,0.0,0.0,0.0,0.0,0.0,0.0,0.0,0.0,0.0,0.0,0.0,0.0,0.0,0.0,0.0,0.0,0.0,0.0,0.0,0.0,-0.0363,-0.1015,-0.1074,-0.1557,-0.2104,-0.2229,-0.2208,-0.2185,0.0,0.0,0.0,0.0,0.0,0.0,0.0,0.0,0.0,0.0,0.0,0.1203,0.1203,0.126,0.1296,0.1296,0.1286,0.1314,0.1302,0.1373,0.1403,0.1387,0.1233,0.0971,0.0694,0.024,0.0,0.0,0.0,0.0,0.0,0.0,0.0,0.0,0.0,0.0,0.0,0.0,0.0,0.0,-0.0043,0.0,0.0,0.0,0.0,0.0,0.0,0.0,0.0,0.0,0.0,0.0,0.0,0.0,0.0,0.0,0.0,0.0,0.0,0.0,0.0,0.0,0.0,0.0,0.0,0.0,0.0,0.0,0.0,0.0,0.0,0.0,0.0,0.0,0.0,0.0,0.0,0.0,0.0,0.0,0.0,0.0,0.0,0.0,0.0,0.0,0.0,0.0,0.0,0.0,0.0,0.0,0.0,0.0,0.0,0.0,0.0,0.0,0.0,0.0,0.0,0.0,0.0,0.0,0.0,0.0,0.0,0.0,-0.0227,-0.0679,-0.1042,-0.1481,-0.1845,-0.2163,-0.2285,-0.2279,0.0,0.0,0.0,0.0,0.0,0.0991,0.1003,0.1044,0.1109,0.1109,0.1164,0.1203,0.1203,0.126,0.1305,0.1284,0.1314,0.1302,0.1373,0.1403,0.1343,0.1234,0.1151,0.0937,0.0529,0.015,0.0,0.0,0.0,0.0,0.0,0.0,0.0,0.0,0.0,0.0,0.0,0.0,0.0,0.0,0.0,0.0,0.0,0.0,0.0,0.0,0.0,0.0,0.0,0.0,0.0,0.0,0.0,0.0,0.0,0.0,0.0,0.0,0.0,0.0,0.0,0.0,0.0,0.0,0.0,0.0,0.0,0.0,0.0,0.0,0.0,0.0,0.0,0.0,0.0,0.0,0.0,0.0,0.0,0.0,0.0,0.0,0.0,0.0,0.0,0.0,0.0,0.0,0.0,0.0,0.0,0.0,0.0,0.0,0.0,0.0,0.0,0.0,0.0,0.0,0.0,0.0,0.0,0.0,0.0,0.0,0.0,0.0,-0.0236,-0.0619,-0.0758,-0.1053,-0.1427,-0.1862,-0.2005,-0.2002,0.0,0.0,0.0,0.0897,0.0947,0.0988,0.0988,0.107,0.1109,0.1109,0.1164,0.1203,0.1203,0.126,0.1309,0.1299,0.1247,0.1233,0.1259,0.1197,0.1087,0.0971,0.089,0.0673,0.025,0.0103,0.0,0.0,0.0,0.0,0.0,0.0,0.0,0.0,0.0,0.0,0.0,0.0,0.0,0.0,0.0,0.0,0.0,0.0,0.0,0.0,0.0,0.0,0.0,0.0,0.0,0.0,0.0,0.0,0.0,0.0,0.0,0.0,0.0,0.0,0.0,0.0,0.0,0.0,0.0,0.0,0.0,0.0,0.0,0.0,0.0,0.0,0.0,0.0,0.0,0.0,0.0,0.0,0.0,0.0,0.0,0.0,0.0,0.0,0.0,0.0,0.0,0.0,0.0,0.0,0.0,0.0,0.0,0.0,0.0,0.0,0.0,0.0,0.0,0.0,0.0,0.0,0.0,0.0,0.0,0.0,0.0,0.0,-0.0162,-0.0399,-0.0548,-0.0774,-0.108,-0.1459,-0.1683,-0.1825,0.0,0.0897,0.0897,0.0897,0.0947,0.0988,0.0988,0.107,0.1109,0.1109,0.1164,0.1203,0.1203,0.126,0.1269,0.1301,0.1123,0.0978,0.1001,0.0799,0.068,0.0695,0.0481,0.025,0.0,0.0,0.0,0.0,0.0,0.0,0.0,0.0,0.0,0.0,0.0,0.0,0.0,0.0,0.0,0.0,0.0,0.0,0.0,0.0,0.0,0.0,0.0,0.0,0.0,0.0,0.0,0.0,0.0,0.0,0.0,0.0,0.0,0.0,0.0,0.0,0.0,0.0,0.0,0.0,0.0,0.0,0.0,0.0,0.0,0.0,0.0,0.0,0.0,0.0,0.0,0.0,0.0,0.0,0.0,0.0,0.0,0.0,0.0,0.0,0.0,0.0,0.0,0.0,0.0,0.0,0.0,0.0,0.0,0.0,0.0,0.0,0.0,0.0,0.0,0.0,0.0,0.0,0.0,0.0,0.0,0.0,0.0,0.0,0.0,0.0,-0.0409,-0.0566,-0.0639,-0.1026,-0.1405,-0.185,0.0897,0.0897,0.0897,0.0897,0.0947,0.0988,0.0988,0.107,0.1109,0.1109,0.1023,0.0984,0.0984,0.0877,0.0798,0.0873,0.0797,0.077,0.0798,0.0725,0.0652,0.0482,0.0251,0.0051,0.0,0.0,0.0,0.0,0.0,0.0,0.0,0.0,0.0,0.0,0.0,0.0,0.0,0.0,0.0,0.0,0.0,0.0,0.0,0.0,0.0,0.0,0.0,0.0,0.0,0.0,0.0,0.0,0.0,0.0,0.0,0.0,0.0,0.0,0.0,0.0,0.0,0.0,0.0,0.0,0.0,0.0,0.0,0.0,0.0,0.0,0.0,0.0,0.0,0.0,0.0,0.0,0.0,0.0,0.0,0.0,0.0,0.0,0.0,0.0,0.0,0.0,0.0,0.0,0.0,0.0,0.0,0.0,0.0,0.0,0.0,0.0,0.0,0.0,0.0,0.0,0.0,0.0,0.0,0.0,0.0,0.0,0.0,0.0,0.0,0.0,-0.0082,-0.0162,-0.0243,-0.0646,-0.104,-0.15,0.0897,0.0897,0.0897,0.0897,0.0947,0.0988,0.0988,0.0974,0.0976,0.0976,0.0847,0.0765,0.0765,0.0686,0.0641,0.0713,0.0589,0.0557,0.0581,0.0461,0.0333,0.0245,0.0102,0.0,0.0,0.0,0.0,0.0,0.0,0.0,0.0,0.0,0.0,0.0,0.0,0.0,0.0,0.0,0.0,0.0,0.0,0.0,0.0,0.0,0.0,0.0,0.0,0.0,0.0,0.0,0.0,0.0,0.0,0.0,0.0,0.0,0.0,0.0,0.0,0.0,0.0,0.0,0.0,0.0,0.0,0.0,0.0,0.0,0.0,0.0,0.0,0.0,0.0,0.0,0.0,0.0,0.0,0.0,0.0,0.0,0.0,0.0,0.0,0.0,0.0,0.0,0.0,0.0,0.0,0.0,0.0,0.0,0.0,0.0,0.0,0.0,0.0,0.0,0.0,0.0,0.0,0.0,0.0,0.0,0.0,0.0,0.0,0.0,0.0,0.0,0.0,0.0,0.0,0.0,-0.081,-0.1045,0.0897,0.0897,0.0898,0.0902,0.095,0.099,0.0992,0.0879,0.0776,0.0778,0.0637,0.0584,0.0549,0.0534,0.0561,0.0629,0.0421,0.0301,0.036,0.014,0.0,0.0,0.0,0.0,0.0,0.0,0.0,0.0,0.0,0.0,0.0,0.0,0.0,0.0,0.0,0.0,0.0,0.0,0.0,0.0,0.0,0.0,0.0,0.0,0.0,0.0,0.0,0.0,0.0,0.0,0.0,0.0,0.0,0.0,0.0,0.0,0.0,0.0,0.0,0.0,0.0,0.0,0.0,0.0,0.0,0.0,0.0,0.0,0.0,0.0,0.0,0.0,0.0,0.0,0.0,0.0,0.0,0.0,0.0,0.0,0.0,0.0,0.0,0.0,0.0,0.0,0.0,0.0,0.0,0.0,0.0,0.0,0.0,0.0,0.0,0.0,0.0,0.0,0.0,0.0,0.0,0.0,0.0,0.0,0.0,0.0,0.0,0.0,0.0,0.0,0.0,0.0,-0.0083,-0.0409,-0.0571,-0.0571,0.0897,0.0897,0.0905,0.0901,0.0964,0.0965,0.0862,0.0824,0.0747,0.059,0.0429,0.0367,0.0375,0.0232,0.012,0.0126,0.0084,0.0044,0.0094,0.0047,0.0,0.0,0.0,0.0,0.0,0.0,0.0,0.0,0.0,0.0,0.0,0.0,0.0,0.0,0.0,0.0,0.0,0.0,0.0,0.0,0.0,0.0,0.0,0.0,0.0,0.0,0.0,0.0,0.0,0.0,0.0,0.0,0.0,0.0,0.0,0.0,0.0,0.0,0.0,0.0,0.0,0.0,0.0,0.0,0.0,0.0,0.0,0.0,0.0,0.0,0.0,0.0,0.0,0.0,0.0,0.0,0.0,0.0,0.0,0.0,0.0,0.0,0.0,0.0,0.0,0.0,0.0,0.0,0.0,0.0,0.0,0.0,0.0,0.0,0.0,0.0,0.0,0.0,0.0,0.0,0.0,0.0,0.0,0.0,0.0,0.0,0.0,0.0,0.0,0.0,0.0,0.0,0.0,-0.0083,-0.0083,-0.0165,0.0897,0.0897,0.0907,0.0909,0.0877,0.0842,0.0804,0.0662,0.0511,0.0419,0.0251,0.0147,0.0151,0.0077,0.0,0.0,0.0,0.0,0.0,0.0,0.0,0.0,0.0,0.0,0.0,0.0,0.0,0.0,0.0,0.0,0.0,0.0,0.0,0.0,0.0,0.0,0.0,0.0,0.0,0.0,0.0,0.0,0.0,0.0,0.0,0.0,0.0,0.0,0.0,0.0,0.0,0.0,0.0,0.0,0.0,0.0,0.0,0.0,0.0,0.0,0.0,0.0,0.0,0.0,0.0,0.0,0.0,0.0,0.0,0.0,0.0,0.0,0.0,0.0,0.0,0.0,0.0,0.0,0.0,0.0,0.0,0.0,0.0,0.0,0.0,0.0,0.0,0.0,0.0,0.0,0.0,0.0,0.0,0.0,0.0,0.0,0.0,0.0,0.0,0.0,0.0,0.0,0.0,0.0,0.0,0.0,0.0,0.0,0.0,0.0,0.0,0.0,0.0,0.0,0.0,0.0,0.0905,0.0907,0.0887,0.0857,0.0793,0.0724,0.0713,0.0465,0.0273,0.0246,0.0108,0.0,0.0,0.0,0.0,0.0,0.0,0.0,0.0,0.0,0.0,0.0,0.0,0.0,0.0,0.0,0.0,0.0,0.0,0.0,0.0,0.0,0.0,0.0,0.0,0.0,0.0,0.0,0.0,0.0,0.0,0.0,0.0,0.0,0.0,0.0,0.0,0.0,0.0,0.0,0.0,0.0,0.0,0.0,0.0,0.0,0.0,0.0,0.0,0.0,0.0,0.0,0.0,0.0,0.0,0.0,0.0,0.0,0.0,0.0,0.0,0.0,0.0,0.0,0.0,0.0,0.0,0.0,0.0,0.0,0.0,0.0,0.0,0.0,0.0,0.0,0.0,0.0,0.0,0.0,0.0,0.0,0.0,0.0,0.0,0.0,0.0,0.0,0.0,0.0,0.0,0.0,0.0,0.0,0.0,0.0,0.0,0.0,0.0,0.0,0.0,0.0,0.0,0.0,0.0,0.0,0.0903,0.0909,0.0859,0.0733,0.0757,0.0682,0.0401,0.0337,0.024,0.0072,0.0,0.0,0.0,0.0,0.0,0.0,0.0,0.0,0.0,0.0,0.0,0.0,0.0,0.0,0.0,0.0,0.0,0.0,0.0,0.0,0.0,0.0,0.0,0.0,0.0,0.0,0.0,0.0,0.0,0.0,0.0,0.0,0.0,0.0,0.0,0.0,0.0,0.0,0.0,0.0,0.0,0.0,0.0,0.0,0.0,0.0,0.0,0.0,0.0,0.0,0.0,0.0,0.0,0.0,0.0,0.0,0.0,0.0,0.0,0.0,0.0,0.0,0.0,0.0,0.0,0.0,0.0,0.0,0.0,0.0,0.0,0.0,0.0,0.0,0.0,0.0,0.0,0.0,0.0,0.0,0.0,0.0,0.0,0.0,0.0,0.0,0.0,0.0,0.0,0.0,0.0,0.0,0.0,0.0,0.0,0.0,0.0,0.0,0.0,0.0,0.0,0.0,0.0,0.0,0.0,0.0,0.0911,0.0942,0.0874,0.0632,0.0609,0.0554,0.0336,0.0205,0.0105,0.0,0.0,0.0,0.0,0.0,0.0,0.0,0.0,0.0,0.0,0.0,0.0,0.0,0.0,0.0,0.0,0.0,0.0,0.0,0.0,0.0,0.0,0.0,0.0,0.0,0.0,0.0,0.0,0.0,0.0,0.0,0.0,0.0,0.0,0.0,0.0,0.0,0.0,0.0,0.0,0.0,0.0,0.0,0.0,0.0,0.0,0.0,0.0,0.0,0.0,0.0,0.0,0.0,0.0,0.0,0.0,0.0,0.0,0.0,0.0,0.0,0.0,0.0,0.0,0.0,0.0,0.0,0.0,0.0,0.0,0.0,0.0,0.0,0.0,0.0,0.0,0.0,0.0,0.0,0.0,0.0,0.0,0.0,0.0,0.0,0.0,0.0,0.0,0.0,0.0,0.0,0.0,0.0,0.0,0.0,0.0,0.0,0.0,0.0,0.0,0.0,0.0,0.0,0.0,0.0,0.0,0.0,0.0934,0.0972,0.0907,0.0555,0.0493,0.0433,0.0238,0.0104,0.0,0.0,0.0,0.0,0.0,0.0,0.0,0.0,0.0,0.0,0.0,0.0,0.0,0.0,0.0,0.0,0.0,0.0,0.0,0.0,0.0,0.0,0.0,0.0,0.0,0.0,0.0,0.0,0.0,0.0,0.0,0.0,0.0,0.0,0.0,0.0,0.0,0.0,0.0,0.0,0.0,0.0,0.0,0.0,0.0,0.0,0.0,0.0,0.0,0.0,0.0,0.0,0.0,0.0,0.0,0.0,0.0,0.0,0.0,0.0,0.0,0.0,0.0,0.0,0.0,0.0,0.0,0.0,0.0,0.0,0.0,0.0,0.0,0.0,0.0,0.0,0.0,0.0,0.0,0.0,0.0,0.0,0.0,0.0,0.0,0.0,0.0,0.0,0.0,0.0,0.0,0.0,0.0,0.0,0.0,0.0,0.0,0.0,0.0,0.0,0.0,0.0,0.0,0.0,0.0,0.0,0.0,0.0,0.0988,0.1,0.088,0.0569,0.0516,0.0385,0.007,0.0,0.0,0.0,0.0,0.0,0.0,0.0,0.0,0.0,0.0,0.0,0.0,0.0,0.0,0.0,0.0,0.0,0.0,0.0,0.0,0.0,0.0,0.0,0.0,0.0,0.0,0.0,0.0,0.0,0.0,0.0,0.0,0.0,0.0,0.0,0.0,0.0,0.0,0.0,0.0,0.0,0.0,0.0,0.0,0.0,0.0,0.0,0.0,0.0,0.0,0.0,0.0,0.0,0.0,0.0,0.0,0.0,0.0,0.0,0.0,0.0,0.0,0.0,0.0,0.0,0.0,0.0,0.0,0.0,0.0,0.0,0.0,0.0,0.0,0.0,0.0,0.0,0.0,0.0,0.0,0.0,0.0,0.0,0.0,0.0,0.0,0.0,0.0,0.0,0.0,0.0,0.0,0.0,0.0,0.0,0.0,0.0,0.0,0.0,0.0,0.0,0.0,0.0,0.0,0.0,0.0,0.0,0.0,0.0,0.0997,0.1048,0.1005,0.0792,0.0627,0.0425,0.022,0.0074,0.0,0.0,0.0,0.0,0.0,0.0,0.0,0.0,0.0,0.0,0.0,0.0,0.0,0.0,0.0,0.0,0.0,0.0,0.0,0.0,0.0,0.0,0.0,0.0,0.0,0.0,0.0,0.0,0.0,0.0,0.0,0.0,0.0,0.0,0.0,0.0,0.0,0.0,0.0,0.0,0.0,0.0,0.0,0.0,0.0,0.0,0.0,0.0,0.0,0.0,0.0,0.0,0.0,0.0,0.0,0.0,0.0,0.0,0.0,0.0,0.0,0.0,0.0,0.0,0.0,0.0,0.0,0.0,0.0,0.0,0.0,0.0,0.0,0.0,0.0,0.0,0.0,0.0,0.0,0.0,0.0,0.0,0.0,0.0,0.0,0.0,0.0,0.0,0.0,0.0,0.0,0.0,0.0,0.0,0.0,0.0,0.0,0.0,0.0,0.0,0.0,0.0,0.0,0.0,0.0,0.0,0.0,0.0,0.0,0.1072,0.1063,0.0908,0.0712,0.0,0.0,0.0,0.0,0.0,0.0,0.0,0.0,0.0,0.0,0.0,0.0,0.0,0.0,0.0,0.0,0.0,0.0,0.0,0.0,0.0,0.0,0.0,0.0,0.0,0.0,0.0,0.0,0.0,0.0,0.0,0.0,0.0,0.0,0.0,0.0,0.0,0.0,0.0,0.0,0.0,0.0,0.0,0.0,0.0,0.0,0.0,0.0,0.0,0.0,0.0,0.0,0.0,0.0,0.0,0.0,0.0,0.0,0.0,0.0,0.0,0.0,0.0,0.0,0.0,0.0,0.0,0.0,0.0,0.0,0.0,0.0,0.0,0.0,0.0,0.0,0.0,0.0,0.0,0.0,0.0,0.0,0.0,0.0,0.0,0.0,0.0,0.0,0.0,0.0,0.0,0.0,0.0,0.0,0.0,0.0,0.0,0.0,0.0,0.0,0.0,0.0,0.0,0.0,0.0,0.0,0.0,0.0,0.0,0.0,0.0,0.0,0.0,0.1051,0.0,0.0,0.0,0.0,0.0,0.0,0.0,0.0,0.0,0.0,0.0,0.0,0.0,0.0,0.0,0.0,0.0,0.0,0.0,0.0,0.0,0.0,0.0,0.0,0.0,0.0,0.0,0.0,0.0,0.0,0.0,0.0,0.0,0.0,0.0,0.0,0.0,0.0,0.0,0.0,0.0,0.0,0.0,0.0,0.0,0.0,0.0,0.0,0.0,0.0,0.0,0.0,0.0,0.0,0.0,0.0,0.0,0.0,0.0,0.0,0.0,0.0,0.0,0.0,0.0,0.0,0.0,0.0,0.0,0.0,0.0,0.0,0.0,0.0,0.0,0.0,0.0,0.0,0.0,0.0,0.0,0.0,0.0,0.0,0.0,0.0,0.0,0.0,0.0,0.0,0.0,0.0,0.0,0.0,0.0,0.0,0.0,0.0,0.0,0.0,0.0,0.0,0.0,0.0,0.0,0.0,0.0,0.0,0.0,0.0,0.0,0.0,0.0,0.0,0.0,0.0,0.0,0.0,0.0,0.0,0.0,0.0,0.0,0.0,0.0,0.0,0.0,0.0,0.0,0.0,0.0,0.0,0.0,0.0,0.0,0.0,0.0,0.0,0.0,0.0,0.0,0.0,0.0,0.0,0.0,0.0,0.0,0.0,0.0,0.0,0.0,0.0,0.0,0.0,0.0,0.0,0.0,0.0,0.0,0.0,0.0,0.0,0.0,0.0,0.0,0.0,0.0,0.0,0.0,0.0,0.0,0.0,0.0,0.0,0.0,0.0,0.0,0.0,0.0,0.0,0.0,0.0,0.0,0.0,0.0,0.0,0.0,0.0,0.0,0.0,0.0,0.0,0.0,0.0,0.0,0.0,0.0,0.0,0.0,0.0,0.0,0.0,0.0,0.0,0.0,0.0,0.0,0.0,0.0,0.0,0.0,0.0,0.0,0.0,0.0,0.0,0.0,0.0,0.0,0.0,0.0,0.0,0.0,0.0,0.0,0.0,0.0,0.0,0.0,0.0,0.0,0.0,0.0,0.0,0.0,0.0,0.0,0.0,0.0,0.0,0.0,0.0,0.0,0.0,0.0,0.0,0.0,0.0,0.0,0.0,0.0,0.0,0.0,0.0,0.0,0.0,0.0,0.0,0.0,0.0,0.0,0.0,0.0,0.0,0.0,0.0,0.0,0.0,0.0,0.0,0.0,0.0,0.0,0.0,0.0,0.0,0.0,0.0,0.0,0.0,0.0,0.0,0.0,0.0,0.0,0.0,0.0,0.0,0.0,0.0,0.0,0.0,0.0,0.0,0.0,0.0,0.0,0.0,0.0,0.0,0.0,0.0,0.0,0.0,0.0,0.0,0.0,0.0,0.0,0.0,0.0,0.0,0.0,0.0,0.0,0.0,0.0,0.0,0.0,0.0,0.0,0.0,0.0,0.0,0.0,0.0,0.0,0.0,0.0,0.0,0.0,0.0,0.0,0.0,0.0,0.0,0.0,0.0,0.0,0.0,0.0,0.0,0.0,0.0,0.0,0.0,0.0,0.0,0.0,0.0,0.0,0.0,0.0,0.0,0.0,0.0,0.0,0.0,0.0,0.0,0.0,0.0,0.0,0.0,0.0,0.0,0.0,0.0,0.0,0.0,0.0,0.0,0.0,0.0,0.0,0.0,0.0,0.0,0.0,0.0,0.0,0.0,0.0,0.0,0.0,0.0,0.0,0.0,0.0,0.0,0.0,0.0,0.0,0.0,0.0,0.0,0.0,0.0,0.0,0.0,0.0,0.0,0.0,0.0,0.0,0.0,0.0,0.0,0.0,0.0,0.0,0.0,0.0,0.0,0.0,0.0,0.0,0.0,0.0,0.0,0.0,0.0,0.0,0.0,0.0,0.0,0.0,0.0,0.0,0.0,0.0,0.0,0.0,0.0,0.0,0.0,0.0,0.0,0.0,0.0,0.0,0.0,0.0,0.0,0.0,0.0,0.0,0.0,0.0,0.0,0.0,0.0,0.0,0.0,0.0,0.0,0.0,0.0,0.0,0.0,0.0,0.0,0.0,0.0,0.0,0.0,0.0,0.0,0.0,0.0,0.0,0.0,0.0,0.0,0.0,0.0,0.0,0.0,0.0,0.0,0.0,0.0,0.0,0.0,0.0,0.0,0.0,0.0,0.0,0.0,0.0,0.0,0.0,0.0,0.0,0.0,0.0,0.0,0.0,0.0,0.0,0.0,0.0,0.0,0.0,0.0,0.0,0.0,0.0,0.0,0.0,0.0,0.0,0.0,0.0,0.0,0.0,0.0,0.0,0.0,0.0,0.0,0.0,0.0,0.0,0.0,0.0,0.0,0.0,0.0,0.0,0.0,0.0,0.0,0.0,0.0,0.0,0.0,0.0,0.0,0.0,0.0,0.0,0.0,0.0,0.0,0.0,0.0,0.0,0.0,0.0,0.0,0.0,0.0,0.0,0.0,0.0,0.0,0.0,0.0,0.0,0.0,0.0,0.0,0.0,0.0,0.0,0.0,0.0,0.0,0.0,0.0,0.0,0.0,0.0,0.0,0.0,0.0,0.0,0.0,0.0,0.0,0.0,0.0,0.0703,0.049,0.0228,0.0228,0.0137,0.0,0.0,0.0,0.0,0.0,0.0,0.0,0.0,0.0,0.0,0.0,0.0,0.0,0.0,0.0,0.0,0.0,0.0,0.0,0.0,0.0,0.0,0.0,0.0,0.0,0.0,0.0,0.0,0.0,0.0,0.0,0.0,0.0,0.0,0.0,0.0,0.0,0.0,0.0,0.0,0.0,0.0,0.0,0.0,0.0,0.0,0.0,0.0,0.0,0.0,0.0,0.0,0.0,0.0,0.0,0.0,0.0,0.0,0.0,0.0,0.0,0.0,0.0,0.0,0.0,0.0,0.0,0.0,0.0,0.0,0.0,0.0,0.0,0.0,0.0,0.0,0.0,0.0,0.0,0.0,0.0,0.0,0.0,0.0,0.0,0.0,0.0,0.0,0.0,0.0,0.0,0.0,0.0,0.0,0.0,0.0,0.0,0.0,0.0,0.0,0.0,0.0,0.0,0.0,0.0,0.0,0.0,0.0,0.0,0.0,0.1048,0.0891,0.0727,0.0508,0.0466,0.0375,0.0094,0.0048,0.0,0.0,0.0,0.0,0.0,0.0,0.0,0.0,0.0,0.0,0.0,0.0,0.0,0.0,0.0,0.0,0.0,0.0,0.0,0.0,0.0,0.0,0.0,0.0,0.0,0.0,0.0,0.0,0.0,0.0,0.0,0.0,0.0,0.0,0.0,0.0,0.0,0.0,0.0,0.0,0.0,0.0,0.0,0.0,0.0,0.0,0.0,0.0,0.0,0.0,0.0,0.0,0.0,0.0,0.0,0.0,0.0,0.0,0.0,0.0,0.0,0.0,0.0,0.0,0.0,0.0,0.0,0.0,0.0,0.0,0.0,0.0,0.0,0.0,0.0,0.0,0.0,0.0,0.0,0.0,0.0,0.0,0.0,0.0,0.0,0.0,0.0,0.0,0.0,0.0,0.0,0.0,0.0,0.0,0.0,0.0,0.0,0.0,0.0,0.0,0.0,0.0,0.0,0.0,0.0,0.0,0.0,0.0,0.1114,0.1092,0.0969,0.0786,0.0764,0.0684,0.0391,0.0147,0.0,0.0,0.0,0.0,0.0,0.0,0.0,0.0,0.0,0.0,0.0,0.0,0.0,0.0,0.0,0.0,0.0,0.0,0.0,0.0,0.0,0.0,0.0,0.0,0.0,0.0,0.0,0.0,0.0,0.0,0.0,0.0,0.0,0.0,0.0,0.0,0.0,0.0,0.0,0.0,0.0,0.0,0.0,0.0,0.0,0.0,0.0,0.0,0.0,0.0,0.0,0.0,0.0,0.0,0.0,0.0,0.0,0.0,0.0,0.0,0.0,0.0,0.0,0.0,0.0,0.0,0.0,0.0,0.0,0.0,0.0,0.0,0.0,0.0,0.0,0.0,0.0,0.0,0.0,0.0,0.0,0.0,0.0,0.0,0.0,0.0,0.0,0.0,0.0,0.0,0.0,0.0,0.0,0.0,0.0,0.0,0.0,0.0,0.0,0.0,0.0,0.0,0.0,0.0,0.0,0.0,0.0,0.0,0.1364,0.1334,0.1261,0.1052,0.1021,0.0937,0.0649,0.0605,0.0408,0.0051,0.0,0.0,0.0,0.0,0.0,0.0,0.0,0.0,0.0,0.0,0.0,0.0,0.0,0.0,0.0,0.0,0.0,0.0,0.0,0.0,0.0,0.0,0.0,0.0,0.0,0.0,0.0,0.0,0.0,0.0,0.0,0.0,0.0,0.0,0.0,0.0,0.0,0.0,0.0,0.0,0.0,0.0,0.0,0.0,0.0,0.0,0.0,0.0,0.0,0.0,0.0,0.0,0.0,0.0,0.0,0.0,0.0,0.0,0.0,0.0,0.0,0.0,0.0,0.0,0.0,0.0,0.0,0.0,0.0,0.0,0.0,0.0,0.0,0.0,0.0,0.0,0.0,0.0,0.0,0.0,0.0,0.0,0.0,0.0,0.0,0.0,0.0,0.0,0.0,0.0,0.0,0.0,0.0,0.0,0.0,0.0,0.0,0.0,0.0,0.0,0.0,0.0,0.0,0.0,0.0,0.1421,0.1472,0.1489,0.1466,0.1321,0.1332,0.1194,0.0958,0.0976,0.0832,0.0314,0.0158,0.0,0.0,0.0,0.0,0.0,0.0,0.0,0.0,0.0,0.0,0.0,0.0,0.0,0.0,0.0,0.0,0.0,0.0,0.0,0.0,0.0,0.0,0.0,0.0,0.0,0.0,0.0,0.0,0.0,0.0,0.0,0.0,0.0,0.0,0.0,0.0,0.0,0.0,0.0,0.0,0.0,0.0,0.0,0.0,0.0,0.0,0.0,0.0,0.0,0.0,0.0,0.0,0.0,0.0,0.0,0.0,0.0,0.0,0.0,0.0,0.0,0.0,0.0,0.0,0.0,0.0,0.0,0.0,0.0,0.0,0.0,0.0,0.0,0.0,0.0,0.0,0.0,0.0,0.0,0.0,0.0,0.0,0.0,0.0,0.0,0.0,0.0,0.0,0.0,0.0,0.0,0.0,0.0,0.0,0.0,0.0,0.0,0.0,0.0,0.0,0.0,0.0,0.0,0.0,0.1445,0.1476,0.1506,0.1536,0.1568,0.1598,0.1516,0.1213,0.1233,0.1203,0.0905,0.0596,0.0,0.0,0.0,0.0,0.0,0.0,0.0,0.0,0.0,0.0,0.0,0.0,0.0,0.0,0.0,0.0,0.0,0.0,0.0,0.0,0.0,0.0,0.0,0.0,0.0,0.0,0.0,0.0,0.0,0.0,0.0,0.0,0.0,0.0,0.0,0.0,0.0,0.0,0.0,0.0,0.0,0.0,0.0,0.0,0.0,0.0,0.0,0.0,0.0,0.0,0.0,0.0,0.0,0.0,0.0,0.0,0.0,0.0,0.0,0.0,0.0,0.0,0.0,0.0,0.0,0.0,0.0,0.0,0.0,0.0,0.0,0.0,0.0,0.0,0.0,0.0,0.0,0.0,0.0,0.0,0.0,0.0,0.0,0.0,0.0,0.0,0.0,0.0,0.0,0.0,0.0,0.0,0.0,0.0,0.0,0.0,0.0,0.0,0.0,0.0,0.0,0.0,0.0,0.0,0.0,0.1504,0.152,0.1545,0.1596,0.1611,0.1574,0.1543,0.1569,0.149,0.1191,0.0926,0.0,0.0,0.0,0.0,0.0,0.0,0.0,0.0,0.0,0.0,0.0,0.0,0.0,0.0,0.0,0.0,0.0,0.0,0.0,0.0,0.0,0.0,0.0,0.0,0.0,0.0,0.0,0.0,0.0,0.0,0.0,0.0,0.0,0.0,0.0,0.0,0.0,0.0,0.0,0.0,0.0,0.0,0.0,0.0,0.0,0.0,0.0,0.0,0.0,0.0,0.0,0.0,0.0,0.0,0.0,0.0,0.0,0.0,0.0,0.0,0.0,0.0,0.0,0.0,0.0,0.0,0.0,0.0,0.0,0.0,0.0,0.0,0.0,0.0,0.0,0.0,0.0,0.0,0.0,0.0,0.0,0.0,0.0,0.0,0.0,0.0,0.0,0.0,0.0,0.0,0.0,0.0,0.0,0.0,0.0,0.0,0.0,0.0,0.0,0.0,0.0,0.0,0.0,0.0,0.0,0.1469,0.1478,0.1549,0.1609,0.1617,0.1628,0.1711,0.1688,0.1663,0.1528,0.132,0.0,0.0,0.0,0.0,0.0,0.0,0.0,0.0174,0.0058,0.0,0.0,0.0,0.0,0.0,0.0,0.0,0.0,0.0,0.0,0.0,0.0,0.0,0.0,0.0,0.0,0.0,0.0,0.0,0.0,0.0,0.0,0.0,0.0,0.0,0.0,0.0,0.0,0.0,0.0,0.0,0.0,0.0,0.0,0.0,0.0,0.0,0.0,0.0,0.0,0.0,0.0,0.0,0.0,0.0,0.0,0.0,0.0,0.0,0.0,0.0,0.0,0.0,0.0,0.0,0.0,0.0,0.0,0.0,0.0,0.0,0.0,0.0,0.0,0.0,0.0,0.0,0.0,0.0,0.0,0.0,0.0,0.0,0.0,0.0,0.0,0.0,0.0,0.0,0.0,0.0,0.0,0.0,0.0,0.0,0.0,0.0,0.0,0.0,0.0,0.0,0.0,0.0,0.0,0.0,0.0,0.0,0.1528,0.155,0.1609,0.1617,0.1629,0.1714,0.1689,0.1718,0.1805,0.1779,0.0,0.0,0.0,0.0,0.0,0.0,0.0464,0.0531,0.0236,0.0059,0.006,0.0,0.0,0.0,0.0,0.0,0.0,0.0,0.0,0.0,0.0,0.0,0.0,0.0,0.0,0.0,0.0,0.0,0.0,0.0,0.0,0.0,0.0,0.0,0.0,0.0,0.0,0.0,0.0,0.0,0.0,0.0,0.0,0.0,0.0,0.0,0.0,0.0,0.0,0.0,0.0,0.0,0.0,0.0,0.0,0.0,0.0,0.0,0.0,0.0,0.0,0.0,0.0,0.0,0.0,0.0,0.0,0.0,0.0,0.0,0.0,0.0,0.0,0.0,0.0,0.0,0.0,0.0,0.0,0.0,0.0,0.0,0.0,0.0,0.0,0.0,0.0,0.0,0.0,0.0,0.0,0.0,0.0,0.0,0.0,0.0,0.0,0.0,0.0,0.0,0.0,0.0,0.0,0.0,0.0,0.0,0.0,0.0,0.0,0.1617,0.1637,0.1689,0.17,0.1726,0.0,0.0,0.0,0.0,0.0,0.0,0.0,0.0977,0.0816,0.0899,0.054,0.0363,0.0368,0.0123,0.0,0.0,0.0,0.0,0.0,0.0,0.0,0.0,0.0,0.0,0.0,0.0,0.0,0.0,0.0,0.0,0.0,0.0,0.0,0.0,0.0,0.0,0.0,0.0,0.0,0.0,0.0,0.0,0.0,0.0,0.0,0.0,0.0,0.0,0.0,0.0,0.0,0.0,0.0,0.0,0.0,0.0,0.0,0.0,0.0,0.0,0.0,0.0,0.0,0.0,0.0,0.0,0.0,0.0,0.0,0.0,0.0,0.0,0.0,0.0,0.0,0.0,0.0,0.0,0.0,0.0,0.0,0.0,0.0,0.0,0.0,0.0,0.0,0.0,0.0,0.0,0.0,0.0,0.0,0.0,0.0,0.0,0.0,0.0,0.0,0.0,0.0,0.0,0.0,0.0,0.0,0.0,0.0,0.0,0.0,0.0,0.0,0.1617,0.1639,0.1697,0.1704,0.1729,0.0,0.0,0.0,0.0,0.0,0.0,0.1627,0.1289,0.119,0.1219,0.0915,0.0735,0.0741,0.0556,0.037,0.0247,0.0247,0.0123,0.0,0.0,0.0,0.0,0.0,0.0,0.0,0.0,0.0,0.0,0.0,0.0,0.0,0.0,0.0,0.0,0.0,0.0,0.0,0.0,0.0,0.0,0.0,0.0,0.0,0.0,0.0,0.0,0.0,0.0,0.0,0.0,0.0,0.0,0.0,0.0,0.0,0.0,0.0,0.0,0.0,0.0,0.0,0.0,0.0,0.0,0.0,0.0,0.0,0.0,0.0,0.0,0.0,0.0,0.0,0.0,0.0,0.0,0.0,0.0,0.0,0.0,0.0,0.0,0.0,0.0,0.0,0.0,0.0,0.0,0.0,0.0,0.0,0.0,0.0,0.0,0.0,0.0,0.0,0.0,0.0253,0.0337,0.0337,0.0,0.0,0.0,0.0,0.0,0.0,0.0,0.0,0.0,0.0,0.0,0.0,0.0,0.0,0.0,0.0,0.0,0.0,0.0,0.0,0.0,0.1884,0.1615,0.152,0.1605,0.1235,0.105,0.105,0.105,0.0864,0.0556,0.0556,0.037,0.0062,0.0,0.0,0.0,0.0,0.0,0.0,0.0,0.0,0.0,0.0,0.0,0.0,0.0,0.0,0.0,0.0,0.0,0.0,0.0,0.0,0.0,0.0,0.0,0.0,0.0,0.0,0.0,0.0,0.0,0.0,0.0,0.0,0.0,0.0,0.0,0.0,0.0,0.0,0.0,0.0,0.0,0.0,0.0,0.0,0.0,0.0,0.0,0.0,0.0,0.0,0.0,0.0,0.0,0.0,0.0,0.0,0.0,0.0,0.0,0.0,0.0,0.0,0.0,0.0,0.0,0.0,0.0,0.0,0.0,0.0,0.0,0.0,0.0,0.0,0.0084,0.0084,0.0084,0.0168,0.0253,0.0674,0.0758,0.0842,0.0,0.0,0.0,0.0,0.0,0.0,0.0,0.0,0.0,0.0,0.0,0.0,0.0,0.0,0.0,0.0,0.0,0.0,0.0,0.0,0.0,0.1884,0.1854,0.1885,0.1914,0.1606,0.142,0.142,0.1111,0.0988,0.0926,0.0926,0.0741,0.0432,0.0122,0.0,0.0,0.0,0.0,0.0,0.0,0.0,0.0,0.0,0.0,0.0,0.0,0.0,0.0,0.0,0.0,0.0,0.0,0.0,0.0,0.0,0.0,0.0,0.0,0.0,0.0,0.0,0.0,0.0,0.0,0.0,0.0,0.0,0.0,0.0,0.0,0.0,0.0,0.0,0.0,0.0,0.0,0.0,0.0,0.0,0.0,0.0,0.0,0.0,0.0,0.0,0.0,0.0,0.0,0.0,0.0,0.0,0.0,0.0,0.0,0.0,0.0,0.0,0.0,0.0,0.0,0.0,0.0,0.0,0.0,0.0,0.0,0.0,0.0253,0.0589,0.0589,0.0842,0.1093,0.1178,0.1178,0.126,0.0,0.0,0.0,0.0,0.0,0.0,0.0,0.0,0.0,0.0,0.0,0.0,0.0,0.0,0.0,0.0,0.0,0.0,0.0,0.1824,0.1854,0.1884,0.1914,0.1945,0.1975,0.1853,0.1791,0.1791,0.1606,0.142,0.1296,0.1111,0.0803,0.0494,0.0368,0.0181,0.0,0.0,0.0,0.0,0.0,0.0,0.0,0.0,0.0,0.0,0.0,0.0,0.0,0.0,0.0,0.0,0.0,0.0,0.0,0.0,0.0,0.0,0.0,0.0,0.0,0.0,0.0,0.0,0.0,0.0,0.0,0.0,0.0,0.0,0.0,0.0,0.0,0.0,0.0,0.0,0.0,0.0,0.0,0.0,0.0,0.0,0.0,0.0,0.0,0.0,0.0,0.0,0.0337,0.0589,0.0673,0.0673,0.0673,0.0673,0.0673,0.068,0.0597,0.034,0.034,0.0508,0.0673,0.0673,0.0673,0.0673,0.0,0.0673,0.0673,0.0673,0.0842,0.101,0.101,0.1178,0.1346,0.1598,0.1844,0.1997,0.0,0.0,0.0,0.0,0.0,0.0,0.0,0.0,0.0,0.0,0.0,0.0,0.0,0.0,0.0,0.0,0.0,0.0,0.0,0.1817,0.1843,0.1874,0.1904,0.1939,0.1975,0.1977,0.1977,0.1977,0.1977,0.1853,0.1606,0.1296,0.0988,0.0741,0.0679,0.0425,0.0118,0.0118,0.0058,0.0,0.0,0.0,0.0,0.0,0.0,0.0,0.0,0.0,0.0,0.0,0.0,0.0,0.0,0.0,0.0,0.0,0.0,0.0,0.0,0.0,0.0,0.0,0.0,0.0,0.0,0.0,0.0,0.0,0.0,0.0,0.0,0.0,0.0,0.0,0.0,0.0,0.0,0.0,0.0,0.0,0.0,0.0,0.0,0.0,0.0,0.0,0.0,0.0,0.0842,0.1094,0.1262,0.1262,0.1262,0.1262,0.1262,0.1262,0.1178,0.0842,0.0842,0.101,0.1262,0.1262,0.1262,0.1262,0.1262,0.1262,0.1262,0.1262,0.1346,0.143,0.143,0.1514,0.1682,0.2018,0.2339,0.2561,0.0,0.0,0.0,0.0,0.0,0.0,0.0,0.0,0.0,0.0,0.0,0.0,0.0,0.0,0.0,0.0,0.0,0.0,0.0,0.1797,0.1812,0.1784,0.1873,0.1917,0.1975,0.1977,0.1977,0.1977,0.1977,0.1977,0.1977,0.1606,0.142,0.142,0.1111,0.0789,0.0471,0.0471,0.0289,0.0,0.0,0.0,0.0,0.0,0.0,0.0,0.0,0.0,0.0,0.0,0.0,0.0,0.0,0.0,0.0,0.0,0.0,0.0,0.0,0.0,0.0,0.0,0.0,0.0,0.0,0.0,0.0,0.0,0.0,0.0,0.0,0.0,0.0,0.0,0.0,0.0,0.0,0.0,0.0,0.0,0.0,0.0,0.0,0.0,0.0,0.0,0.0,0.0,0.1262,0.1262,0.1262,0.1262,0.1262,0.1262,0.1262,0.1262,0.1262,0.1262,0.1262,0.1262,0.1262,0.1262,0.1262,0.1262,0.1262,0.1262,0.1262,0.1262,0.1598,0.1934,0.1934,0.2188,0.2608,0.2608,0.259,0.2561,0.0,0.0,0.0,0.0,0.0,0.0,0.0,0.0,0.0,0.0,0.0,0.0,0.0,0.0,0.0,0.0,0.0,0.0,0.1795,0.1795,0.1809,0.1782,0.1869,0.1906,0.1948,0.1967,0.1977,0.1977,0.1977,0.1977,0.1977,0.1853,0.173,0.1482,0.1358,0.1092,0.0766,0.0589,0.0405,0.0224,0.0056,0.0,0.0,0.0,0.0,0.0,0.0,0.0,0.0,0.0,0.0,0.0,0.0,0.0,0.0,0.0,0.0,0.0,0.0,0.0,0.0,0.0,0.0,0.0,0.0,0.0,0.0,0.0,0.0,0.0,0.0,0.0,0.0,0.0,0.0,0.0,0.0,0.0,0.0,0.0,0.0,0.0,0.0,0.0,0.0,0.0,0.0,0.0,0.1766,0.2018,0.2188,0.2188,0.2188,0.2188,0.2188,0.2188,0.2188,0.2188,0.185,0.185,0.2188,0.2188,0.2188,0.2188,0.2188,0.2188,0.2188,0.2188,0.2272,0.244,0.244,0.2524,0.269,0.2671,0.2645,0.2615,0.0,0.0,0.0,0.0,0.0,0.0,0.0,0.0,0.0,0.0,0.0,0.0,0.0,0.0,0.0,0.0,0.0,0.0,0.1795,0.1795,0.1805,0.1825,0.1855,0.1885,0.1917,0.1947,0.1967,0.1977,0.1977,0.1977,0.1977,0.1977,0.1853,0.1668,0.1668,0.1457,0.1061,0.0884,0.0636,0.0393,0.0224,0.0055,0.0,0.0,0.0,0.0,0.0,0.0,0.0,0.0,0.0,0.0,0.0,0.0,0.0,0.0,0.0,0.0,0.0,0.0,0.0,0.0,0.0,0.0065,0.0131,0.0067,0.0,0.0,0.0,0.0073,0.0149,0.0,0.0,0.0,0.0,0.0,0.0,0.0,0.0,0.0,0.0,0.0,0.0,0.0,0.0,0.0,0.0,0.0,0.0,0.2524,0.2692,0.2692,0.2692,0.2692,0.2692,0.2692,0.2692,0.2692,0.2356,0.2356,0.2692,0.2692,0.2692,0.2692,0.2692,0.2692,0.2692,0.2692,0.2692,0.2692,0.2692,0.2692,0.2688,0.2658,0.2628,0.2597,0.0,0.0,0.0,0.0,0.0,0.0,0.0,0.0,0.1617,0.1617,0.1617,0.0,0.0,0.0,0.0,0.0,0.0,0.0,0.1795,0.1795,0.1795,0.1795,0.1824,0.1854,0.1884,0.1915,0.1947,0.1977,0.1977,0.1977,0.1977,0.1977,0.1977,0.1977,0.1977,0.1761,0.1414,0.1414,0.1041,0.0393,0.0393,0.022,0.0,0.0,0.0,0.0,0.0,0.0,0.0,0.0,0.0,0.0,0.0,0.0,0.0,0.0,0.0,0.0,0.0,0.0,0.0,0.0,0.0,0.013,0.0535,0.0272,0.0,0.0,0.0,0.0149,0.0529,0.0612,0.0,0.1254,0.0,0.0,0.0,0.0,0.0,0.0,0.0,0.0,0.0,0.0,0.0,0.0,0.0,0.0,0.2692,0.2692,0.2692,0.2692,0.2692,0.2692,0.2692,0.2692,0.2692,0.2692,0.2692,0.2692,0.2692,0.2692,0.2692,0.2692,0.2692,0.2692,0.2692,0.2692,0.2692,0.2692,0.2692,0.2692,0.2688,0.2658,0.2627,0.2597,0.0,0.0,0.0,0.0,0.0,0.0,0.0,0.0,0.1869,0.1869,0.1718,0.0,0.0,0.0,0.0,0.0,0.0,0.0,0.1794,0.1795,0.1795,0.1795,0.1824,0.1787,0.1854,0.1904,0.1947,0.1977,0.1977,0.1977,0.1977,0.1977,0.1977,0.1977,0.1977,0.1882,0.1709,0.1473,0.1272,0.1009,0.0841,0.055,0.0267,0.0,0.0,0.0,0.0,0.0,0.0,0.0,0.0,0.0,0.0,0.0,0.0,0.0,0.0,0.0054,0.0218,0.0341,0.0,0.0661,0.0,0.0,0.0937,0.0686,0.0492,0.0799,0.0817,0.0907,0.1071,0.1085,0.0,0.127,0.1286,0.1301,0.0,0.0,0.0,0.0,0.0,0.0,0.0,0.0,0.0,0.0,0.0,0.2692,0.2692,0.2692,0.2692,0.2692,0.2692,0.2692,0.2692,0.2692,0.2692,0.2692,0.2692,0.2692,0.2692,0.2692,0.2692,0.2692,0.2692,0.2692,0.2692,0.2692,0.2692,0.2692,0.2692,0.2679,0.2657,0.2627,0.2597,0.2568,0.0,0.0,0.0,0.0,0.0,0.0,0.0,0.0,0.2172,0.2172,0.2019,0.1926,0.0,0.0,0.0,0.0,0.0,0.0,0.1776,0.1789,0.1795,0.1795,0.1812,0.1828,0.1783,0.1841,0.194,0.1959,0.1971,0.1977,0.1977,0.1977,0.1977,0.1977,0.1977,0.1943,0.1885,0.1709,0.1503,0.129,0.1121,0.0879,0.0587,0.0,0.0,0.0,0.0,0.0,0.0,0.0,0.0,0.0,0.0,0.005,0.0152,0.0154,0.0262,0.0374,0.054,0.0622,0.0,0.0901,0.0999,0.1043,0.1289,0.0,0.0,0.0,0.1201,0.1292,0.1462,0.1559,0.0,0.1756,0.1776,0.1797,0.0,0.0,0.0,0.0,0.0,0.0,0.0,0.0,0.0,0.0,0.2692,0.2692,0.2692,0.2692,0.2692,0.2692,0.2692,0.2692,0.2692,0.2692,0.2692,0.2692,0.2692,0.2692,0.2692,0.2692,0.2692,0.2692,0.2692,0.2692,0.2692,0.2692,0.2692,0.2691,0.2679,0.2662,0.2559,0.26,0.2574,0.2556,0.0,0.0,0.2932,0.2664,0.0,0.0,0.0,0.0,0.2421,0.2421,0.2421,0.2421,0.0,0.0,0.0,0.0,0.0,0.0,0.0,0.183,0.1849,0.1851,0.1795,0.1809,0.1782,0.1836,0.1865,0.1871,0.1962,0.1977,0.1977,0.1977,0.1977,0.1977,0.1977,0.1944,0.1889,0.1887,0.1679,0.1349,0.1347,0.1156,0.0963,0.0961,0.0,0.0,0.0,0.0,0.0,0.0,0.0,0.0,0.005,0.0252,0.0454,0.0454,0.0674,0.0907,0.0907,0.0953,0.0,0.0961,0.1063,0.0,0.1664,0.1489,0.1298,0.1333,0.0,0.1444,0.185,0.1949,0.2129,0.2555,0.2583,0.2612,0.2561,0.0,0.0,0.0,0.0,0.0,0.0,0.0,0.0,0.2692,0.2692,0.2692,0.2692,0.2692,0.2692,0.2692,0.2692,0.2692,0.2692,0.2692,0.2692,0.2692,0.2692,0.2692,0.2692,0.2692,0.2692,0.2692,0.2692,0.2692,0.2692,0.2692,0.2692,0.269,0.2658,0.2562,0.2637,0.2581,0.2557,0.2552,0.0,0.0,0.2992,0.3004,0.0,0.0,0.0,0.0,0.0,0.2725,0.2521,0.0,0.0,0.0,0.0,0.0,0.0,0.0,0.0,0.2249,0.2103,0.213,0.1908,0.1809,0.1782,0.1795,0.1824,0.1871,0.1962,0.1977,0.1977,0.1977,0.1977,0.1977,0.1977,0.1956,0.1919,0.1896,0.1807,0.1714,0.1692,0.1495,0.1194,0.1232,0.1052,0.0,0.0,0.0,0.0,0.0,0.0,0.0,0.0606,0.0656,0.0707,0.0707,0.0778,0.096,0.1173,0.1233,0.0,0.0,0.1843,0.1952,0.209,0.2056,0.2097,0.2097,0.2116,0.2212,0.2339,0.2353,0.0,0.0,0.0,0.0,0.0,0.0,0.0,0.0,0.0,0.0,0.0,0.0,0.0,0.2692,0.2692,0.2692,0.2692,0.2692,0.2692,0.2692,0.2692,0.2692,0.2692,0.2692,0.2692,0.2692,0.2692,0.2692,0.2692,0.2692,0.2692,0.2692,0.2692,0.2692,0.2692,0.2692,0.2692,0.269,0.2658,0.2632,0.2607,0.2572,0.2545,0.2523,0.0,0.0,0.0,0.0,0.0,0.0,0.0,0.0,0.0,0.0,0.0,0.0,0.0,0.0,0.0,0.0,0.0,0.0,0.0,0.2438,0.2425,0.241,0.23,0.214,0.1989,0.2005,0.1973,0.1829,0.1933,0.1962,0.1977,0.1977,0.1977,0.1977,0.1977,0.196,0.193,0.1914,0.1881,0.1782,0.1823,0.1678,0.1529,0.1515,0.1327,0.1089,0.1028,0.0,0.0,0.0,0.0,0.0,0.0,0.0,0.1011,0.1011,0.1141,0.1332,0.1438,0.0,0.0,0.1915,0.0,0.2153,0.2159,0.2268,0.2312,0.0,0.0,0.0,0.0,0.0,0.0,0.0,0.0,0.0,0.0,0.0,0.0,0.0,0.0,0.0,0.0,0.0,0.0,0.2692,0.2692,0.2692,0.2692,0.2692,0.2692,0.2692,0.2692,0.2692,0.2692,0.2692,0.2692,0.2692,0.2692,0.2692,0.2692,0.2692,0.2692,0.2692,0.2692,0.2692,0.2692,0.2692,0.2684,0.2668,0.2637,0.2607,0.2658,0.2787,0.2842,0.2826,0.0,0.0,0.0,0.0,0.0,0.0,0.0,0.0,0.0,0.0,0.0,0.0,0.0,0.0,0.0,0.0,0.0,0.0,0.0,0.0,0.0,0.268,0.2682,0.2574,0.23,0.2332,0.2236,0.1955,0.195,0.1993,0.2092,0.2036,0.1977,0.1977,0.1977,0.1963,0.1939,0.1933,0.1842,0.1797,0.1787,0.181,0.1819,0.1808,0.1612,0.1363,0.1358,0.1186,0.0964,0.0964,0.0,0.0,0.0,0.0,0.1263,0.1263,0.1451,0.1704,0.1704,0.0,0.1911,0.2022,0.0,0.0,0.0,0.0,0.0,0.0,0.0,0.0,0.0,0.0,0.0,0.0,0.0,0.0,0.0,0.0,0.0,0.0,0.0,0.0,0.0,0.0,0.0,0.2692,0.2692,0.2692,0.2692,0.2692,0.2692,0.2692,0.2692,0.2692,0.2692,0.2692,0.2692,0.2692,0.2692,0.2692,0.2692,0.2692,0.2692,0.2692,0.2692,0.2692,0.2692,0.2687,0.2669,0.2643,0.2689,0.274,0.2714,0.3075,0.3217,0.3297,0.0,0.0,0.0,0.0,0.0,0.0,0.0,0.0,0.0,0.0,0.3181,0.3181,0.0,0.0,0.3128,0.3128,0.3136,0.3112,0.3213,0.0,0.0,0.2633,0.2635,0.2598,0.2636,0.2642,0.2608,0.2589,0.2368,0.2293,0.2359,0.2086,0.1977,0.1977,0.1977,0.1974,0.1969,0.1943,0.1866,0.1854,0.1804,0.1778,0.1823,0.1825,0.1799,0.1734,0.1655,0.1628,0.1605,0.1605,0.1536,0.0,0.0,0.0,0.1566,0.1566,0.1606,0.1704,0.0,0.0,0.0,0.0,0.0,0.0,0.0,0.0,0.0,0.0,0.0,0.0,0.0,0.0,0.0,0.0,0.0,0.0,0.0,0.0,0.0,0.0,0.0,0.0,0.0,0.0,0.0,0.269,0.2692,0.2692,0.2692,0.2692,0.2692,0.2692,0.2692,0.2692,0.2692,0.2692,0.2692,0.2692,0.2692,0.2692,0.2692,0.2692,0.2692,0.2692,0.2692,0.2692,0.269,0.2664,0.2567,0.2642,0.2988,0.312,0.3191,0.3548,0.3689,0.3689,0.0,0.0,0.0,0.0,0.0,0.0,0.0,0.0,0.0,0.0,0.0,0.3181,0.3181,0.3181,0.3181,0.3181,0.3181,0.3205,0.3316,0.3242,0.3123,0.307,0.31,0.3074,0.2932,0.2903,0.2871,0.2723,0.2578,0.256,0.2618,0.2357,0.2143,0.1977,0.1977,0.1977,0.1975,0.1962,0.1947,0.1869,0.1842,0.1881,0.1862,0.1836,0.1861,0.1774,0.176,0.1725,0.1685,0.1685,0.1666,0.1643,0.1643,0.0,0.0,0.0,0.1658,0.1715,0.1767,0.0,0.0,0.0,0.0,0.0,0.0,0.0,0.0,0.0,0.0,0.0,0.0,0.0,0.0,0.0,0.0,0.0,0.0,0.0,0.0,0.0,0.0,0.0,0.0,0.0,0.0,0.0,0.2642,0.2642,0.2642,0.2658,0.2667,0.2667,0.2684,0.2692,0.2692,0.2692,0.2692,0.2692,0.2692,0.2692,0.2692,0.2945,0.2945,0.2692,0.2692,0.285,0.3,0.2984,0.3119,0.3323,0.3451,0.3501,0.3557,0.4012,0.4162,0.416,0.0,0.0,0.0,0.0,0.0,0.0,0.0,0.0,0.0,0.0,0.0,0.3224,0.3224,0.0,0.0,0.0,0.3203,0.3216,0.3297,0.3297,0.3324,0.3387,0.3428,0.3358,0.3226,0.3208,0.3126,0.2917,0.2841,0.2824,0.2867,0.2616,0.2418,0.221,0.2096,0.1977,0.1977,0.1977,0.1963,0.1941,0.1934,0.1918,0.1896,0.1888,0.1858,0.1819,0.1819,0.1779,0.1727,0.1727,0.1703,0.1725,0.1725,0.1652,0.0,0.0,0.0,0.0,0.0,0.0,0.0,0.0,0.0,0.0,0.0,0.0,0.0,0.0,0.0,0.0,0.0,0.0,0.0,0.0,0.0,0.0,0.0,0.0,0.0,0.0,0.0,0.0,0.0,0.0,0.0,0.0,0.2601,0.2601,0.2601,0.2623,0.2635,0.2635,0.2665,0.2682,0.2682,0.2772,0.2861,0.2861,0.2945,0.3029,0.3029,0.3365,0.336,0.3017,0.3017,0.3169,0.3474,0.3453,0.3572,0.3835,0.3903,0.3957,0.4003,0.4397,0.4554,0.4633,0.0,0.0,0.0,0.0,0.0,0.0,0.0,0.0,0.0,0.0,0.0,0.3403,0.3403,0.3403,0.3379,0.3322,0.3316,0.3294,0.3189,0.3184,0.3211,0.3324,0.333,0.0,0.3493,0.3499,0.3529,0.3533,0.3253,0.3113,0.3164,0.2924,0.2793,0.2839,0.227,0.1977,0.1977,0.1977,0.1975,0.1971,0.1943,0.193,0.1925,0.1896,0.1884,0.1881,0.1881,0.1842,0.179,0.179,0.175,0.1703,0.1703,0.1682,0.1712,0.0,0.0,0.0,0.0,0.0,0.0,0.0,0.0,0.0,0.0,0.0,0.0,0.0,0.0,0.0,0.0,0.0,0.0,0.0,0.0,0.0,0.0,0.0,0.0,0.0,0.0,0.0,0.0,0.0,0.0,0.0,0.2601,0.2601,0.2601,0.2602,0.2604,0.2604,0.2634,0.2566,0.2566,0.3097,0.3367,0.3367,0.3785,0.3952,0.3952,0.3952,0.393,0.3811,0.3811,0.3809,0.3884,0.3797,0.3759,0.3831,0.4185,0.44,0.4397,0.4787,0.4944,0.4941,0.0,0.0,0.0,0.0,0.0,0.0,0.0,0.0,0.0,0.0,0.0,0.0,0.0,0.3412,0.3403,0.3382,0.3379,0.3354,0.3292,0.3289,0.3281,0.3213,0.33,0.3341,0.3384,0.3458,0.3507,0.3529,0.3456,0.3449,0.3506,0.3272,0.3146,0.3198,0.2574,0.2346,0.2284,0.2099,0.1988,0.2003,0.1992,0.1999,0.2015,0.2004,0.1977,0.1944,0.1944,0.1904,0.1853,0.1853,0.1813,0.1763,0.1763,0.1729,0.1693,0.1766,0.178,0.1742,0.0,0.0,0.0,0.0,0.0,0.0,0.0,0.0,0.0,0.0,0.0,0.0,0.0,0.0,0.0,0.0,0.0,0.0,0.0,0.0,0.0,0.0,0.0,0.0,0.0,0.0,0.0,0.0,0.0,0.2545,0.2545,0.2564,0.2735,0.2974,0.3009,0.311,0.3437,0.3615,0.372,0.3747,0.3884,0.3966,0.3912,0.4212,0.427,0.4334,0.4545,0.4531,0.4208,0.4172,0.4375,0.4579,0.4716,0.4787,0.4787,0.4944,0.5022,0.5022,0.0,0.0,0.0,0.0,0.0,0.3327,0.3349,0.3403,0.3441,0.3441,0.0,0.0,0.0,0.0,0.3463,0.3441,0.3422,0.3395,0.3354,0.3352,0.3324,0.3213,0.33,0.3322,0.3322,0.3417,0.3477,0.3496,0.3556,0.3608,0.3649,0.3535,0.3474,0.3532,0.3039,0.2762,0.2652,0.2296,0.2189,0.2145,0.2093,0.2046,0.2128,0.2128,0.2103,0.2005,0.2005,0.1967,0.1917,0.1917,0.1876,0.1824,0.1813,0.1768,0.1723,0.1798,0.1804,0.1811,0.1787,0.0,0.0,0.0,0.0,0.0,0.0,0.0,0.0,0.0,0.0,0.0,0.0,0.0,0.0,0.0,0.0,0.0,0.0,0.0,0.0,0.0,0.0,0.0,0.0,0.0,0.0,0.0,0.0,0.0,0.2905,0.3008,0.3105,0.3356,0.3381,0.3565,0.3905,0.4065,0.4082,0.4112,0.4243,0.4327,0.4358,0.4648,0.4702,0.4683,0.4968,0.4952,0.4633,0.4616,0.4742,0.5022,0.5022,0.5022,0.5022,0.5022,0.5022,0.5022,0.0,0.0,0.3203,0.3311,0.3324,0.3346,0.3406,0.3463,0.3499,0.3499,0.0,0.0,0.0,0.0,0.0,0.3507,0.345,0.3417,0.3414,0.3414,0.3387,0.3327,0.3322,0.3322,0.3322,0.3379,0.3439,0.3493,0.3556,0.3586,0.3589,0.3649,0.3711,0.3771,0.3532,0.3284,0.3028,0.2633,0.2525,0.2467,0.2245,0.2131,0.2133,0.2133,0.2133,0.2133,0.2131,0.2093,0.2043,0.1979,0.1939,0.1883,0.1851,0.1801,0.1807,0.1807,0.1807,0.1812,0.0,0.0,0.0,0.0,0.0,0.0,0.0,0.0,0.0,0.0,0.0,0.0,0.0,0.0,0.0,0.0,0.0,0.0,0.0,0.0,0.0,0.0,0.0,0.0,0.0,0.0,0.0,0.0,0.3086,0.3333,0.3764,0.3846,0.3788,0.3833,0.3833,0.3856,0.3901,0.4304,0.4548,0.4548,0.4953,0.5199,0.5199,0.5199,0.5164,0.5109,0.5109,0.5109,0.5104,0.5046,0.5022,0.5022,0.5022,0.5022,0.5022,0.5022,0.5022,0.5022,0.0,0.3216,0.3303,0.3319,0.3392,0.3452,0.3471,0.3523,0.3561,0.0,0.0,0.0,0.3654,0.3654,0.3646,0.363,0.3572,0.3521,0.3477,0.3474,0.3447,0.339,0.3346,0.3322,0.3322,0.3338,0.3376,0.3436,0.3493,0.3545,0.3589,0.3649,0.3711,0.3771,0.3771,0.3732,0.3698,0.3149,0.2939,0.2998,0.2944,0.292,0.2971,0.2971,0.2971,0.2967,0.2672,0.2501,0.2457,0.2176,0.2,0.1943,0.1889,0.1847,0.1814,0.1814,0.18,0.1785,0.1793,0.0,0.0,0.0,0.0,0.0,0.1902,0.1934,0.0,0.0,0.0,0.0,0.0,0.0,0.0,0.0,0.0,0.0,0.0,0.0,0.0,0.0,0.0,0.0,0.0,0.0,0.0,0.0,0.3499,0.3519,0.3717,0.4064,0.4247,0.4261,0.4495,0.466,0.4675,0.4834,0.4854,0.4976,0.5013,0.5093,0.5136,0.509,0.5063,0.5046,0.5046,0.5046,0.5044,0.5027,0.5022,0.5022,0.5022,0.5022,0.5022,0.5022,0.5022,0.5022,0.3213,0.3297,0.3338,0.3387,0.345,0.3515,0.3564,0.3602,0.3635,0.0,0.0,0.0,0.3717,0.3717,0.3717,0.3717,0.3684,0.3638,0.3575,0.3572,0.3534,0.345,0.3414,0.3384,0.336,0.3382,0.3412,0.3447,0.3504,0.3553,0.3589,0.3624,0.3687,0.383,0.3866,0.3916,0.4007,0.3692,0.3486,0.343,0.3272,0.3251,0.3298,0.3318,0.3393,0.3391,0.309,0.2987,0.2944,0.2705,0.2566,0.2421,0.2362,0.2318,0.2284,0.2269,0.2238,0.221,0.221,0.22,0.2193,0.2158,0.0,0.0,0.2213,0.2244,0.2276,0.0,0.0,0.0,0.0,0.0,0.0,0.0,0.0,0.0,0.0,0.0,0.0,0.0,0.0,0.0,0.0,0.3463,0.3629,0.3797,0.3818,0.3935,0.416,0.4425,0.4608,0.463,0.4865,0.5022,0.5022,0.5022,0.5038,0.5074,0.5038,0.5038,0.5074,0.5036,0.5022,0.5022,0.5022,0.5022,0.5022,0.5022,0.5022,0.5022,0.5022,0.5022,0.5022,0.5022,0.5022,0.5022,0.0,0.3332,0.3373,0.3477,0.3507,0.3553,0.3662,0.3684,0.3709,0.0,0.3782,0.3793,0.3807,0.3804,0.3796,0.379,0.3782,0.3811,0.3692,0.3687,0.3638,0.3521,0.351,0.348,0.3422,0.3466,0.3491,0.3496,0.355,0.358,0.3589,0.3589,0.3651,0.3827,0.3827,0.3902,0.4125,0.4125,0.3971,0.3779,0.3537,0.3439,0.3454,0.3497,0.3516,0.352,0.3516,0.3486,0.3441,0.3314,0.3216,0.3105,0.3055,0.3003,0.3013,0.2911,0.2863,0.2822,0.2822,0.2733,0.2701,0.2701,0.2727,0.0,0.2696,0.2728,0.2817,0.0,0.0,0.0,0.0,0.0,0.0,0.0,0.0,0.0,0.0,0.0,0.0,0.0,0.0,0.0,0.3433,0.3473,0.3727,0.4131,0.4192,0.4419,0.4834,0.4924,0.4954,0.5008,0.5011,0.5014,0.5022,0.5022,0.5022,0.5022,0.5022,0.5022,0.5022,0.5022,0.5022,0.5022,0.5022,0.5022,0.5022,0.5022,0.5022,0.5022,0.5022,0.5022,0.5022,0.5022,0.5022,0.5022,0.3319,0.3398,0.3469,0.3493,0.3578,0.3651,0.3676,0.3719,0.3755,0.3827,0.3856,0.3951,0.4046,0.4011,0.3965,0.3913,0.3869,0.3877,0.3813,0.3752,0.3719,0.3646,0.3597,0.3542,0.348,0.3447,0.345,0.3496,0.3507,0.354,0.3589,0.3589,0.3651,0.3827,0.3827,0.3902,0.4125,0.4125,0.4152,0.4229,0.4182,0.4247,0.4327,0.4338,0.4371,0.4408,0.4004,0.3914,0.3813,0.3405,0.3279,0.3241,0.3095,0.3013,0.3007,0.2999,0.2936,0.287,0.287,0.2838,0.2805,0.2803,0.2725,0.0,0.2707,0.2684,0.2716,0.0,0.0,0.0,0.0,0.0,0.0,0.0,0.0,0.0,0.0,0.0,0.0,0.0,0.0,0.0,0.4195,0.4283,0.4293,0.4447,0.4547,0.464,0.4788,0.4837,0.4815,0.4951,0.4954,0.4976,0.5019,0.5022,0.5022,0.5022,0.5022,0.5022,0.5022,0.5022,0.5022,0.5022,0.5022,0.5022,0.5022,0.5022,0.5022,0.5022,0.5022,0.5022,0.5022,0.5022,0.5022,0.5022,0.3398,0.3455,0.3515,0.3575,0.3638,0.3698,0.3819,0.382,0.3869,0.3897,0.3981,0.3997,0.412,0.4098,0.4068,0.3973,0.4008,0.3954,0.3867,0.3861,0.3818,0.3728,0.3665,0.3619,0.3589,0.3529,0.3512,0.3542,0.3542,0.3556,0.3589,0.3589,0.3651,0.3827,0.3827,0.3902,0.4125,0.4125,0.4248,0.4442,0.4442,0.4512,0.4621,0.4651,0.4703,0.4749,0.4501,0.4381,0.432,0.4092,0.3959,0.3893,0.3723,0.3653,0.3665,0.3548,0.3458,0.3377,0.3377,0.3379,0.3311,0.3282,0.3198,0.0,0.0,0.3162,0.3124,0.0,0.0,0.0,0.0,0.0,0.0,0.0,0.0,0.0,0.0,0.0,0.0,0.0,0.0,0.0,0.4297,0.436,0.442,0.4477,0.4567,0.4646,0.4779,0.4768,0.4828,0.4812,0.4921,0.4951,0.4978,0.5006,0.5022,0.5022,0.5022,0.5022,0.5022,0.5022,0.5022,0.5022,0.5022,0.5022,0.5022,0.5022,0.5022,0.5022,0.5022,0.5022,0.5022,0.5022,0.5022,0.5022,0.3477,0.3515,0.3561,0.3659,0.3709,0.3763,0.3864,0.3937,0.3946,0.4079,0.4139,0.4183,0.4194,0.4194,0.4191,0.418,0.4166,0.4115,0.3946,0.3927,0.3929,0.3809,0.3758,0.3719,0.3698,0.3635,0.3605,0.3605,0.3594,0.3589,0.3589,0.36,0.3662,0.383,0.3793,0.3924,0.4128,0.415,0.4286,0.4485,0.4507,0.4583,0.476,0.481,0.4793,0.4769,0.4769,0.4782,0.4695,0.4673,0.46,0.4496,0.4379,0.4324,0.0,0.0,0.0,0.0,0.0,0.0,0.0,0.0,0.0,0.3679,0.0,0.0,0.0,0.0,0.0,0.0,0.0,0.0,0.0,0.0,0.0,0.0,0.0,0.0,0.0,0.0,0.0,0.0,0.4106,0.4218,0.4335,0.4442,0.4504,0.4572,0.4643,0.4768,0.4755,0.4826,0.4875,0.4913,0.4937,0.4981,0.5011,0.5022,0.5022,0.5022,0.5022,0.5022,0.5022,0.5022,0.5022,0.5022,0.5022,0.5022,0.5022,0.5022,0.5022,0.5022,0.5022,0.5022,0.5022,0.51,0.3493,0.3583,0.3662,0.3676,0.3812,0.3863,0.3876,0.3973,0.4147,0.4262,0.433,0.4387,0.4436,0.4442,0.4422,0.4371,0.4319,0.4259,0.4191,0.4136,0.3989,0.3873,0.3863,0.3869,0.376,0.37,0.3668,0.3668,0.3613,0.3589,0.3589,0.3643,0.3703,0.3774,0.3883,0.394,0.4134,0.424,0.4362,0.0,0.46,0.4757,0.4821,0.4826,0.4793,0.4769,0.4769,0.4761,0.4809,0.47,0.4654,0.4621,0.0,0.4392,0.4305,0.4292,0.0,0.0,0.0,0.0,0.0,0.0,0.3858,0.0,0.0,0.0,0.3651,0.36,0.0,0.0,0.0,0.0,0.0,0.0,0.0,0.0,0.0,0.0,0.0,0.0,0.0,0.0,0.0,0.4155,0.4256,0.4322,0.4384,0.4466,0.4578,0.4591,0.4646,0.4763,0.4771,0.4828,0.4935,0.4943,0.497,0.5022,0.5022,0.5022,0.5022,0.5022,0.5022,0.5022,0.5022,0.5022,0.5022,0.5022,0.5022,0.5022,0.5022,0.5022,0.5022,0.5022,0.5257,0.5651,0.3602,0.3643,0.3711,0.3818,0.3838,0.3911,0.3978,0.4155,0.4286,0.4442,0.4485,0.4523,0.458,0.4589,0.4564,0.4504,0.4477,0.4422,0.4327,0.4264,0.4194,0.4109,0.394,0.3863,0.3875,0.3779,0.373,0.373,0.3706,0.3692,0.3695,0.3719,0.3822,0.3885,0.3913,0.3954,0.4134,0.4256,0.4376,0.0,0.0,0.4722,0.0,0.4848,0.4897,0.4948,0.4948,0.4927,0.4891,0.4839,0.4777,0.4776,0.0,0.0,0.0,0.4382,0.0,0.0,0.0,0.0,0.0,0.0,0.0,0.0,0.37,0.0,0.3659,0.0,0.0,0.0,0.0,0.0,0.0,0.0,0.3556,0.0,0.0,0.0,0.0,0.0,0.0,0.0,0.0,0.0,0.0,0.0,0.4292,0.4368,0.4417,0.4518,0.4597,0.4649,0.4793,0.4779,0.4831,0.4902,0.4948,0.4973,0.5006,0.5022,0.5022,0.5022,0.5022,0.5022,0.5022,0.5022,0.5022,0.5022,0.5179,0.5414,0.5414,0.5414,0.5414,0.5414,0.5648,0.604,0.3747,0.3752,0.3796,0.3865,0.3943,0.4024,0.4204,0.4327,0.4452,0.458,0.4627,0.4665,0.4709,0.4714,0.4698,0.4651,0.4632,0.4589,0.4501,0.4422,0.4352,0.4292,0.4131,0.3975,0.3962,0.3888,0.3818,0.3818,0.3785,0.3827,0.383,0.3844,0.3877,0.3924,0.3956,0.3983,0.4136,0.0,0.4403,0.4496,0.4651,0.4862,0.4976,0.4943,0.4984,0.5022,0.5022,0.5073,0.5114,0.5094,0.5106,0.5164,0.5082,0.5008,0.4935,0.0,0.0,0.0,0.4525,0.0,0.0,0.0,0.0,0.0,0.0,0.0,0.0,0.0,0.0,0.0,0.0,0.0,0.3772,0.3723,0.0,0.3674,0.0,0.0,0.0,0.0,0.0,0.0,0.0,0.0,0.0,0.0,0.0,0.4273,0.4305,0.4431,0.4523,0.4572,0.466,0.4796,0.4829,0.4842,0.4905,0.4937,0.4978,0.5006,0.5022,0.5022,0.5022,0.5022,0.5022,0.51,0.5179,0.5179,0.5414,0.5883,0.5883,0.5965,0.6043,0.5886,0.6118,0.6431,0.3857,0.3881,0.3881,0.3889,0.4142,0.4335,0.4452,0.4575,0.4654,0.466,0.4763,0.4764,0.4764,0.4764,0.4764,0.4761,0.4782,0.4821,0.4818,0.4632,0.4537,0.4477,0.436,0.4267,0.421,0.3973,0.3884,0.3884,0.3828,0.3827,0.383,0.3888,0.3919,0.3927,0.4044,0.4123,0.4142,0.4376,0.448,0.4504,0.4744,0.514,0.5564,0.0,0.5019,0.5022,0.5022,0.5257,0.5636,0.5572,0.5855,0.6135,0.5985,0.5883,0.0,0.0,0.0,0.0,0.0,0.0,0.0,0.5073,0.0,0.0,0.0,0.0,0.4623,0.0,0.0,0.0,0.0,0.4367,0.4266,0.4266,0.4203,0.0,0.0,0.0,0.0,0.0,0.0,0.0,0.0,0.0,0.0,0.0,0.4002,0.4183,0.43,0.4313,0.4395,0.4567,0.4578,0.4635,0.4829,0.4835,0.482,0.4937,0.4937,0.4967,0.5022,0.5022,0.5022,0.5022,0.5022,0.5257,0.5651,0.5573,0.5883,0.6275,0.6275,0.6509,0.6826,0.6431,0.6509,0.6904,0.3981,0.4131,0.4188,0.4188,0.4253,0.4442,0.4932,0.5366,0.5637,0.5727,0.5823,0.5902,0.5947,0.5953,0.5934,0.5886,0.5939,0.5887,0.5717,0.5622,0.5516,0.5398,0.5328,0.5127,0.5012,0.4894,0.4788,0.4693,0.4645,0.46,0.4555,0.4581,0.4616,0.4723,0.4779,0.4884,0.0,0.0,0.0,0.0,0.0,0.5835,0.604,0.0,0.5676,0.5947,0.5899,0.5991,0.6181,0.6105,0.6129,0.6159,0.6184,0.608,0.596,0.5884,0.5716,0.5614,0.5488,0.54,0.5318,0.5281,0.5177,0.0,0.0,0.0,0.0,0.0,0.0,0.0,0.0,0.446,0.4412,0.4314,0.4276,0.4225,0.0,0.0,0.0,0.0,0.0,0.0,0.0,0.0,0.0,0.0,0.4271,0.0,0.418,0.4264,0.4354,0.4455,0.4531,0.4594,0.4635,0.4788,0.4777,0.4818,0.4899,0.4946,0.4965,0.5003,0.5179,0.5414,0.5414,0.5727,0.6118,0.604,0.6275,0.6669,0.6669,0.6978,0.7213,0.6822,0.6978,0.7291,0.4361,0.445,0.4507,0.4507,0.4717,0.5069,0.5539,0.5902,0.6253,0.6377,0.6484,0.6566,0.6537,0.6564,0.6642,0.6594,0.6563,0.6508,0.6411,0.6284,0.6163,0.6063,0.5863,0.5708,0.5612,0.5386,0.5326,0.5226,0.517,0.5119,0.5011,0.5011,0.5035,0.5146,0.5226,0.5329,0.5389,0.5543,0.5665,0.0,0.0,0.6319,0.0,0.0,0.6267,0.6383,0.6363,0.6449,0.6619,0.6569,0.658,0.6663,0.6638,0.6553,0.6447,0.6338,0.625,0.6155,0.6023,0.5909,0.5807,0.5723,0.5602,0.5478,0.5372,0.0,0.5185,0.0,0.0,0.0,0.0,0.4812,0.4731,0.46,0.4556,0.449,0.0,0.4329,0.4362,0.0,0.0,0.0,0.0,0.0,0.0,0.4434,0.4473,0.4515,0.0,0.4503,0.4681,0.4703,0.4899,0.4908,0.4789,0.4892,0.4955,0.4977,0.5083,0.5222,0.5322,0.5384,0.557,0.5883,0.5883,0.6118,0.6509,0.6509,0.6744,0.7138,0.7138,0.7291,0.7447,0.7217,0.7291,0.7525,0.483,0.4996,0.5002,0.5014,0.5517,0.5994,0.6208,0.6318,0.6401,0.6553,0.67,0.6797,0.6797,0.6864,0.6909,0.6909,0.6839,0.6794,0.6787,0.6498,0.6367,0.6353,0.6152,0.5988,0.5974,0.5619,0.5463,0.5453,0.5301,0.529,0.5222,0.5219,0.5219,0.5226,0.5305,0.0,0.5467,0.5619,0.577,0.6005,0.6153,0.6523,0.6919,0.7005,0.6796,0.6487,0.6556,0.678,0.7039,0.7031,0.7212,0.7517,0.7423,0.739,0.7358,0.7186,0.7072,0.6974,0.6956,0.6733,0.6578,0.6551,0.639,0.628,0.6041,0.0,0.59,0.0,0.0,0.0,0.0,0.5369,0.5172,0.5128,0.5035,0.4941,0.4796,0.4784,0.4784,0.0,0.0,0.0,0.0,0.0,0.0,0.4582,0.4729,0.4848,0.0,0.5073,0.5223,0.5302,0.5522,0.5427,0.5143,0.521,0.5275,0.5339,0.5484,0.5708,0.6089,0.6234,0.6271,0.6353,0.6353,0.6587,0.6904,0.6904,0.7138,0.7525,0.7525,0.7525,0.7525,0.7525,0.7525,0.7525,0.5527,0.5859,0.621,0.6391,0.6492,0.6645,0.6707,0.7256,0.7686,0.7706,0.778,0.789,0.789,0.7909,0.7921,0.7921,0.7902,0.7835,0.7785,0.7714,0.7479,0.7224,0.7127,0.6962,0.6704,0.6614,0.6473,0.6281,0.6239,0.6086,0.6019,0.5953,0.5956,0.6023,0.6113,0.6238,0.6387,0.6493,0.6677,0.6978,0.7033,0.7251,0.7481,0.0,0.7564,0.7534,0.7491,0.7584,0.7681,0.7549,0.7568,0.7611,0.7517,0.7444,0.7382,0.7333,0.7211,0.7072,0.6978,0.6872,0.6749,0.6594,0.6488,0.639,0.6276,0.6065,0.5932,0.0,0.0,0.0,0.0,0.5471,0.539,0.518,0.5075,0.4941,0.4796,0.0,0.0,0.4784,0.0,0.0,0.0,0.0,0.493,0.4841,0.5002,0.5036,0.4926,0.0,0.5195,0.5228,0.5444,0.549,0.5494,0.5564,0.5637,0.571,0.5783,0.5934,0.6087,0.6162,0.6379,0.6747,0.6747,0.6978,0.7369,0.7369,0.7369,0.7525,0.7525,0.7525,0.7525,0.7525,0.7525,0.7525,0.6069,0.6626,0.7052,0.724,0.7365,0.744,0.744,0.7769,0.8089,0.817,0.8342,0.8456,0.8456,0.8522,0.857,0.857,0.8497,0.8411,0.8309,0.0,0.0,0.777,0.7684,0.7513,0.7231,0.7109,0.0,0.6766,0.6635,0.6545,0.6492,0.6443,0.6447,0.65,0.0,0.6651,0.6794,0.6962,0.7141,0.7325,0.7415,0.7533,0.0,0.7766,0.7856,0.7934,0.7917,0.7921,0.7913,0.777,0.7697,0.7648,0.7554,0.7488,0.7439,0.7399,0.7292,0.7166,0.7076,0.6954,0.6902,0.6729,0.6607,0.6488,0.6398,0.6268,0.6069,0.594,0.5904,0.5786,0.5602,0.5533,0.5451,0.5217,0.5092,0.4953,0.0,0.0,0.0,0.0,0.4784,0.0,0.0,0.5079,0.5114,0.5036,0.5199,0.5295,0.0,0.0,0.5552,0.5602,0.5834,0.5909,0.5813,0.5891,0.5969,0.6047,0.6124,0.6351,0.6661,0.6666,0.6825,0.7138,0.7138,0.7291,0.7525,0.7525,0.7525,0.7525,0.7525,0.7525,0.7525,0.7525,0.7525,0.7525,0.6638,0.7168,0.7607,0.7701,0.7917,0.8093,0.813,0.8134,0.8191,0.835,0.853,0.8644,0.8644,0.8779,0.8873,0.8873,0.873,0.8632,0.8607,0.8383,0.8199,0.8085,0.7921,0.775,0.7566,0.7309,0.7133,0.7043,0.6851,0.6762,0.6762,0.6737,0.6725,0.6725,0.0,0.0,0.0,0.717,0.7321,0.7399,0.7501,0.7599,0.7693,0.7782,0.7872,0.7962,0.8036,0.8015,0.7938,0.7848,0.7754,0.7664,0.7574,0.7533,0.7509,0.7431,0.7346,0.726,0.724,0.7092,0.7027,0.7073,0.6869,0.6719,0.6694,0.6523,0.6402,0.6168,0.6123,0.6002,0.5814,0.5693,0.5564,0.0,0.0,0.0,0.0,0.0,0.0,0.0,0.0,0.0,0.0,0.0,0.5141,0.5164,0.5402,0.0,0.0,0.0,0.5998,0.6174,0.6345,0.6393,0.6163,0.6304,0.6391,0.6486,0.6554,0.6786,0.7264,0.7337,0.7427,0.7525,0.7525,0.7525,0.7525,0.7525,0.7525,0.7525,0.7525,0.7525,0.7525,0.7537,0.7542,0.7542,0.7455,0.7645,0.0,0.0,0.0,0.8252,0.8477,0.8513,0.8526,0.8554,0.8713,0.8824,0.8824,0.8852,0.8873,0.8873,0.8844,0.0,0.0,0.0,0.0,0.8183,0.8072,0.7934,0.7754,0.7558,0.7411,0.7317,0.7068,0.6941,0.6941,0.6794,0.6725,0.0,0.0,0.0,0.7092,0.7284,0.0,0.7403,0.757,0.7693,0.7787,0.7876,0.7966,0.8044,0.8056,0.8052,0.8027,0.7942,0.7852,0.7758,0.7668,0.7586,0.7521,0.7505,0.7435,0.7426,0.7636,0.7603,0.7624,0.775,0.7687,0.7571,0.7538,0.7369,0.7136,0.7015,0.6909,0.6836,0.663,0.638,0.6186,0.0,0.0,0.0,0.0,0.0,0.0,0.0,0.0,0.4784,0.0,0.0,0.0,0.0,0.0,0.0,0.0,0.0,0.5998,0.0,0.6284,0.6397,0.0,0.0,0.6689,0.6918,0.6934,0.7027,0.7264,0.728,0.7374,0.7525,0.7525,0.7525,0.7525,0.7525,0.7525,0.7525,0.7525,0.7525,0.7533,0.7611,0.764,0.764,0.7844,0.0,0.0,0.0,0.0,0.8468,0.8648,0.8754,0.8799,0.875,0.886,0.8942,0.8942,0.8983,0.9011,0.9011,0.8971,0.8905,0.882,0.8726,0.8595,0.8419,0.8321,0.8166,0.7942,0.7807,0.7648,0.746,0.7284,0.7174,0.7129,0.7043,0.7007,0.7007,0.0,0.7137,0.0,0.0,0.7444,0.7537,0.7627,0.7746,0.7872,0.7917,0.7987,0.806,0.806,0.806,0.8048,0.7962,0.7872,0.7863,0.7928,0.7914,0.792,0.8076,0.8083,0.8058,0.8111,0.8085,0.8044,0.804,0.7998,0.7888,0.7779,0.7636,0.7484,0.7322,0.7207,0.705,0.6849,0.6565,0.6389,0.6289,0.0,0.0,0.0,0.0,0.0,0.0,0.0,0.0,0.0,0.0,0.0,0.0,0.0,0.55,0.5576,0.0,0.59,0.0,0.0,0.0,0.6725,0.0,0.6815,0.699,0.699,0.7084,0.7264,0.7264,0.7358,0.7525,0.7525,0.7525,0.7525,0.7525,0.7525,0.7525,0.7525,0.7554,0.7603,0.7648,0.7721,0.7795,0.813,0.8223,0.0,0.0,0.8603,0.8693,0.8779,0.893,0.9011,0.8938,0.9007,0.9073,0.9089,0.9154,0.9199,0.9199,0.9118,0.9056,0.9036,0.8885,0.8746,0.864,0.855,0.8391,0.8154,0.8027,0.7856,0.764,0.7493,0.7382,0.7317,0.728,0.7264,0.0,0.0,0.0,0.0,0.7431,0.7529,0.7664,0.7705,0.7807,0.7938,0.7954,0.8003,0.806,0.806,0.8148,0.8219,0.8069,0.797,0.7948,0.8273,0.8326,0.8393,0.87,0.8721,0.8631,0.8673,0.8566,0.846,0.8431,0.8304,0.8177,0.8069,0.7957,0.7887,0.7675,0.7523,0.7345,0.7064,0.6852,0.6647,0.6603,0.0,0.0,0.0,0.0,0.0,0.0,0.0,0.0,0.5403,0.0,0.0,0.0,0.0,0.5459,0.5576,0.5584,0.581,0.0,0.0,0.6357,0.6725,0.0,0.6815,0.699,0.699,0.7084,0.7264,0.7264,0.7358,0.7525,0.7525,0.7525,0.7525,0.7525,0.7525,0.7525,0.7525,0.7582,0.7664,0.7684,0.7795,0.7929,0.0,0.0,0.0,0.0,0.0,0.8877,0.8967,0.9069,0.9126,0.9118,0.9199,0.9285,0.9359,0.9379,0.9383,0.9383,0.9305,0.922,0.9138,0.9036,0.8905,0.873,0.864,0.8546,0.8436,0.8183,0.804,0.8011,0.7676,0.7509,0.7497,0.7337,0.7264,0.7268,0.0,0.7382,0.7399,0.7566,0.7648,0.7676,0.7844,0.7921,0.7942,0.8019,0.8056,0.806,0.806,0.8315,0.8654,0.8645,0.8518,0.8361,0.8352,0.8543,0.8778,0.8778,0.8774,0.8818,0.9091,0.9061,0.9025,0.9282,0.9157,0.8959,0.8842,0.8718,0.8636,0.8333,0.8167,0.7962,0.7822,0.7692,0.7477,0.7257,0.0,0.0,0.0,0.0,0.0,0.0,0.0,0.0,0.0,0.5978,0.0,0.0,0.549,0.5459,0.5576,0.5584,0.581,0.617,0.6182,0.6357,0.6725,0.6725,0.6815,0.699,0.699,0.7084,0.7264,0.7264,0.7358,0.7525,0.7525,0.7525,0.7525,0.7525,0.7525,0.7525,0.7525,0.7582,0.7672,0.7754,0.7848,0.7946,0.0,0.0,0.0,0.8881,0.8975,0.9065,0.9158,0.9244,0.9322,0.9375,0.9367,0.9371,0.9403,0.9408,0.9408,0.9408,0.9375,0.9318,0.9232,0.9138,0.9032,0.8901,0.8758,0.8644,0.8554,0.8391,0.8228,0.0,0.0,0.7795,0.7689,0.7615,0.7586,0.7586,0.7619,0.7635,0.764,0.7713,0.7774,0.7831,0.7905,0.7966,0.8015,0.8048,0.806,0.8148,0.8399,0.8571,0.8738,0.8989,0.9059,0.8929,0.9112,0.9232,0.9331,0.95,0.9558,0.9527,0.9566,0.9526,0.9414,0.9519,0.9362,0.9204,0.9019,0.8965,0.8829,0.8666,0.8383,0.8127,0.8065,0.7828,0.7671,0.7573,0.0,0.0,0.0,0.0,0.0,0.0,0.0,0.0,0.0,0.0,0.0,0.0,0.0,0.5684,0.558,0.5696,0.5867,0.617,0.0,0.6357,0.6725,0.6725,0.6815,0.699,0.699,0.7084,0.7264,0.7264,0.7358,0.7525,0.7525,0.7525,0.7525,0.7525,0.7525,0.7529,0.7586,0.7664,0.7754,0.7848,0.7938,0.8015,0.8795,0.8889,0.8979,0.9073,0.9163,0.9244,0.931,0.9391,0.9469,0.9534,0.951,0.9485,0.9485,0.9485,0.9485,0.9485,0.9461,0.942,0.9363,0.9248,0.9142,0.9052,0.8897,0.0,0.8648,0.8558,0.8403,0.8183,0.8101,0.0,0.7876,0.7823,0.7799,0.7799,0.7799,0.7799,0.7799,0.7827,0.7876,0.7938,0.7962,0.8007,0.806,0.806,0.8148,0.8315,0.8571,0.8905,0.9156,0.949,0.9687,0.968,0.9703,0.9742,0.9787,0.9979,1.0019,1.0003,0.9916,0.9807,0.9693,0.9574,0.9449,0.9318,0.9166,0.8998,0.8959,0.8802,0.8513,0.8253,0.8127,0.7943,0.778,0.7714,0.0,0.0,0.0,0.7192,0.0,0.0,0.6959,0.6851,0.6631,0.6681,0.0,0.0,0.0,0.0,0.5936,0.5936,0.0,0.0,0.0,0.0,0.6725,0.6725,0.6815,0.699,0.699,0.7084,0.7264,0.7317,0.7407,0.7525,0.7525,0.7525,0.7525,0.7525,0.7603,0.7694,0.7865,0.8037,0.8212,0.8311,0.8401,0.8483,0.8987,0.9077,0.9171,0.9261,0.9346,0.9403,0.9403,0.9481,0.9542,0.9542,0.962,0.9677,0.9677,0.9677,0.9677,0.9677,0.9595,0.9542,0.9538,0.9375,0.924,0.0,0.0,0.8918,0.8738,0.8648,0.8562,0.8468,0.0,0.0,0.8056,0.788,0.7799,0.7799,0.7799,0.7799,0.7807,0.7897,0.7934,0.7942,0.8027,0.806,0.806,0.806,0.8315,0.8654,0.8738,0.9323,1.007,1.007,1.032,1.061,0.9891,0.9902,1.0177,1.0057,1.0019,1.0019,1.0019,0.9927,0.9807,0.9699,0.9574,0.9421,0.9188,0.9133,0.9063,0.8823,0.8584,0.8378,0.8253,0.8133,0.8037,0.7741,0.7698,0.0,0.0,0.7277,0.0,0.7221,0.7204,0.7204,0.7204,0.7258,0.0,0.0,0.0,0.0,0.0,0.0,0.0,0.669,0.6467,0.0,0.6725,0.6725,0.6815,0.699,0.699,0.7084,0.7268,0.7444,0.7521,0.7525,0.7525,0.7525,0.7525,0.7525,0.7764,0.8167,0.826,0.8593,0.9097,0.9207,0.9312,0.9407,0.9248,0.9301,0.9334,0.9363,0.944,0.9501,0.9501,0.9579,0.9636,0.9636,0.9661,0.9681,0.9681,0.9681,0.9681,0.0,0.9653,0.9608,0.0,0.9489,0.9391,0.9244,0.915,0.9044,0.8922,0.8771,0.8652,0.8566,0.8415,0.8309,0.8248,0.8191,0.813,0.8072,0.8072,0.8036,0.7978,0.8011,0.8023,0.8023,0.8052,0.806,0.8148,0.8399,0.8571,0.8822,0.9407,0.9824,1.0153,1.0404,1.057,1.0627,1.0388,1.0341,1.0302,1.0182,1.0085,1.0019,1.0019,0.9932,0.9813,0.9699,0.9579,0.9443,0.9285,0.9122,0.8965,0.8802,0.8584,0.8405,0.8367,0.8193,0.8092,0.8015,0.7807,0.0,0.7595,0.0,0.7448,0.0,0.7404,0.7404,0.7404,0.7437,0.0,0.0,0.0,0.0,0.0,0.0,0.0,0.0,0.7121,0.0,0.7139,0.7138,0.709,0.699,0.7052,0.7178,0.7354,0.7472,0.7681,0.7998,0.7998,0.8154,0.8388,0.8388,0.8508,0.8735,0.8837,0.9021,0.9207,0.9316,0.9378,0.9407,0.9383,0.9432,0.9457,0.9457,0.9534,0.9595,0.9595,0.9644,0.9681,0.9681,0.9681,0.9681,0.9681,0.9681,0.9681,0.9681,0.9681,0.9657,0.9599,0.9563,0.9481,0.9334,0.9244,0.9138,0.9011,0.8893,0.8795,0.8705,0.8583,0.8456,0.8334,0.8334,0.8305,0.8248,0.8248,0.8219,0.8166,0.8166,0.8166,0.8166,0.8166,0.8166,0.8247,0.8675,0.8906,0.9127,0.9884,1.0273,1.032,1.0654,1.0737,1.0721,1.065,1.0541,1.0416,1.0253,1.015,1.0079,1.003,0.9965,0.9878,0.9764,0.9644,0.9508,0.934,0.9155,0.8986,0.9068,0.8884,0.8783,0.8824,0.8676,0.8603,0.8506,0.8234,0.7983,0.7894,0.0,0.7573,0.0,0.0,0.7519,0.0,0.7562,0.7606,0.0,0.0,0.0,0.0,0.0,0.7351,0.7453,0.7607,0.7596,0.7488,0.7588,0.7545,0.7425,0.756,0.7703,0.7855,0.795,0.8154,0.8393,0.8393,0.8549,0.8783,0.8821,0.9031,0.9263,0.933,0.9596,0.9835,0.9863,0.9903,0.9903,0.9424,0.9493,0.955,0.955,0.9624,0.9681,0.9681,0.9681,0.9681,0.9681,0.9681,0.9681,0.9681,0.9681,0.9681,0.9681,0.9681,0.9681,0.9681,0.9599,0.951,0.942,0.9334,0.9207,0.9032,0.9016,0.8962,0.8873,0.8705,0.8534,0.8362,0.8362,0.8354,0.8342,0.8342,0.8342,0.8334,0.8334,0.8334,0.8334,0.8334,0.8334,0.842,0.8939,0.9311,0.9658,1.0163,1.0509,1.0748,1.0737,1.0737,1.0737,1.0737,1.0661,1.052,1.0286,1.021,1.0177,1.0052,1.0019,0.9992,0.9867,0.9748,0.9595,0.9356,0.9215,0.9242,0.9463,0.94,0.9373,0.952,0.9531,0.9438,0.918,0.8881,0.8538,0.8294,0.8025,0.7741,0.0,0.0,0.7546,0.7557,0.766,0.7774,0.0,0.0,0.0,0.0,0.0,0.7796,0.7958,0.7843,0.7805,0.7841,0.795,0.806,0.8101,0.8378,0.8526,0.8636,0.8736,0.8778,0.8856,0.8856,0.8856,0.8866,0.9046,0.9332,0.9685,0.9896,1.0235,1.0579,1.0693,1.0737,1.0737,0.9599,0.9632,0.9648,0.9648,0.9665,0.9681,0.9681,0.9681,0.9681,0.9681,0.9681,0.9681,0.9681,0.9681,0.9681,0.9681,0.9681,0.9681,0.9681,0.9661,0.9608,0.9514,0.9424,0.9326,0.922,0.9081,0.8962,0.8873,0.8828,0.875,0.864,0.864,0.8566,0.844,0.844,0.8399,0.8334,0.8334,0.8334,0.8334,0.868,0.8852,0.8939,0.9711,1.0128,1.0265,1.0609,1.0815,1.0862,1.077,1.0737,1.0737,1.0737,1.0715,1.0645,1.0411,1.0275,1.0177,1.0052,1.0019,0.9992,0.9867,0.9682,0.9566,0.9696,0.9644,0.9665,0.988,0.988,0.9734,0.9643,0.9592,0.95,0.9432,0.927,0.9085,0.8915,0.8835,0.8608,0.0,0.8159,0.8132,0.7982,0.8015,0.8019,0.0,0.0,0.8247,0.8367,0.8393,0.8387,0.8413,0.8575,0.8547,0.8303,0.8489,0.8499,0.8388,0.8517,0.8636,0.874,0.8769,0.8934,0.9246,0.9246,0.9397,0.9719,0.9835,1.002,1.0196,1.0416,1.053,1.0699,1.0726,1.0737,1.0737,0.9669,0.9681,0.9681,0.9681,0.9681,0.9681,0.9681,0.9681,0.9681,0.9681,0.9681,0.9681,0.9681,0.9681,0.9681,0.9681,0.9681,0.9681,0.9681,0.9681,0.964,0.9546,0.9497,0.9412,0.9285,0.9183,0.9069,0.8934,0.8934,0.8885,0.8795,0.8795,0.8746,0.8652,0.8611,0.8562,0.8513,0.8477,0.8548,0.8807,0.907,0.9246,0.9509,1.0297,1.0524,1.0559,1.0929,1.1047,1.0987,1.0862,1.0819,1.0808,1.0753,1.0737,1.0699,1.052,1.0378,1.0259,1.0139,1.0063,0.9992,0.9867,0.9779,0.9831,1.0,1.0017,1.0102,1.0391,1.0316,1.0246,1.0248,1.0174,1.0051,0.9987,0.978,0.955,0.9412,0.9268,0.9123,0.8857,0.8789,0.8688,0.8443,0.8391,0.8378,0.8312,0.8367,0.0,0.8573,0.8687,0.8731,0.8671,0.891,0.8922,0.8773,0.8941,0.9065,0.9061,0.9122,0.9213,0.9324,0.9324,0.948,0.9708,0.9708,0.9818,1.0112,1.0237,1.0356,1.0476,1.059,1.0677,1.0737,1.0737,1.0737,1.0737,0.9681,0.9681,0.9681,0.9681,0.9681,0.9681,0.9681,0.9681,0.9681,0.9681,0.9681,0.9681,0.9681,0.9681,0.9681,0.9681,0.9681,0.9681,0.9681,0.9681,0.9644,0.9567,0.955,0.9473,0.9326,0.9293,0.9199,0.9028,0.9028,0.8983,0.8893,0.8893,0.8885,0.8869,0.8791,0.8754,0.875,0.8754,0.8986,0.9339,0.9505,0.9763,1.0119,1.0654,1.077,1.0771,1.1193,1.121,1.1112,1.0987,1.0933,1.09,1.0797,1.0753,1.0715,1.0612,1.0503,1.0378,1.0242,1.0112,0.9992,0.9944,1.0067,1.0254,1.0252,1.0426,1.0659,1.0857,1.0798,1.0737,1.0941,1.086,1.0711,1.0582,1.028,1.0084,0.994,0.0,0.9468,0.9379,0.9379,0.9258,0.8962,0.8852,0.8792,0.8525,0.8579,0.8687,0.8791,0.891,0.8932,0.8829,0.9024,0.915,0.9188,0.9421,0.9639,0.9835,0.9856,0.9921,1.0019,1.0019,1.0019,1.0019,1.0041,1.0106,1.0215,1.0356,1.0471,1.065,1.0688,1.0737,1.0737,1.0737,1.0737,1.0737,0.9681,0.9681,0.9681,0.9681,0.9681,0.9681,0.9681,0.9681,0.9681,0.9681,0.9681,0.9681,0.9681,0.9681,0.9681,0.9681,0.9681,0.9681,0.9681,0.9681,0.9673,0.9661,0.9583,0.953,0.9501,0.9354,0.9228,0.9122,0.9122,0.9077,0.8987,0.8987,0.8946,0.8869,0.8856,0.8848,0.8936,0.9213,0.9445,0.9527,1.0247,1.0565,1.0654,1.1188,1.1355,1.1323,1.1308,1.1259,1.1226,1.1112,1.1003,1.0916,1.0895,1.0819,1.0732,1.0715,1.0623,1.0481,1.0264,1.0112,1.007,1.0326,1.0433,1.0585,1.1013,1.1158,1.1213,1.1308,1.1305,1.1237,1.1158,1.1009,1.084,1.0813,1.0705,1.0563,1.0415,0.0,1.0154,0.9774,0.9697,0.9614,0.9417,0.9192,0.9111,0.9176,0.896,0.8836,0.8852,0.8971,0.9101,0.9079,0.9117,0.9231,0.9432,0.9666,0.9802,0.984,0.9943,1.0003,1.0019,1.0019,1.0019,1.0025,1.0128,1.0182,1.0221,1.0438,1.0541,1.065,1.0688,1.0737,1.0737,1.0737,1.0737,1.0737,0.9681,0.9681,0.9697,0.9746,0.9755,0.9771,0.982,0.9783,0.9755,0.9755,0.971,0.9681,0.9681,0.9681,0.9681,0.9681,0.9681,0.9681,0.9681,0.9681,0.9681,0.9681,0.964,0.9595,0.9542,0.9416,0.9305,0.9216,0.9216,0.9171,0.9081,0.9081,0.906,0.9016,0.9246,0.9406,0.9402,0.9858,1.0091,1.0355,1.07,1.0924,1.1188,1.1393,1.1543,1.1449,1.1389,1.1373,1.1351,1.1232,1.1156,1.1085,1.096,1.0878,1.0824,1.0759,1.065,1.0503,1.0269,1.0161,1.0168,1.0506,1.0656,1.0878,1.1433,1.1508,1.1577,1.1581,1.1504,1.1369,1.1301,1.1165,1.1063,1.1063,1.1002,1.0934,1.086,1.0853,1.0826,1.0558,1.0552,1.0445,1.0107,0.9968,0.9825,0.9755,0.9469,0.9333,0.9333,0.9297,0.9323,0.9323,0.9323,0.9438,0.9671,0.978,0.9873,0.9938,0.9992,1.0019,1.0019,1.0019,1.0057,1.0123,1.0177,1.0275,1.04,1.0509,1.0596,1.0661,1.0715,1.0737,1.0737,1.0737,1.0737,1.0737,0.9681,0.9697,0.9734,0.9804,0.9836,0.9873,0.9942,0.9877,0.9816,0.9816,0.9738,0.9681,0.9681,0.9681,0.9681,0.9681,0.9782,0.9882,0.9882,0.9982,0.9982,0.9681,0.9681,0.9636,0.9546,0.9473,0.9395,0.931,0.9386,0.9436,0.927,0.9439,0.9427,0.9517,0.9821,0.9973,1.0062,1.0421,1.0742,1.1105,1.1089,1.1299,1.1629,1.1531,1.1482,1.1543,1.1543,1.1543,1.1438,1.1346,1.1297,1.1243,1.1058,1.0965,1.09,1.0808,1.0693,1.0552,1.034,1.0327,1.0419,1.071,1.0975,1.1339,1.1765,1.1883,1.1918,1.1843,1.1653,1.1484,1.145,1.1321,1.1212,1.1212,1.1185,1.1234,1.1234,1.1234,1.1234,1.1234,1.1234,1.1096,1.075,1.0707,1.0518,1.0246,1.0018,0.9894,0.9929,0.9826,0.9735,0.9717,0.9642,0.9655,0.9835,0.9867,0.9927,1.0019,1.0019,1.0036,1.0063,1.0063,1.0128,1.0248,1.0275,1.0389,1.0639,1.0585,1.0655,1.0737,1.0737,1.0737,1.0737,1.0737,1.0737,1.0737,0.9681,0.9746,0.9808,0.9816,0.9885,0.9947,0.9847,0.9877,0.9816,0.9816,0.9738,0.9681,0.9681,0.9681,0.9681,0.9681,1.0183,1.0485,1.0485,1.0881,1.0781,0.9782,0.9681,0.9636,0.9546,0.9538,0.9489,0.9395,0.9801,0.9946,0.9937,1.0421,1.0564,1.0564,1.0649,1.0645,1.064,1.0998,1.1139,1.1222,1.1575,1.1646,1.1634,1.1629,1.1552,1.1543,1.1543,1.1543,1.1543,1.1533,1.1368,1.127,1.1253,1.1096,1.0916,1.0911,1.0819,1.0693,1.0563,1.0689,1.0832,1.1215,1.1582,1.1914,1.2166,1.2271,1.2176,1.1891,1.1816,1.1755,1.1626,1.1477,1.1375,1.1375,1.1253,0.0,1.1234,1.1234,1.1234,1.1234,1.1234,1.1165,1.1165,1.0938,1.0812,1.0741,1.0578,1.0498,1.0627,1.0651,1.0551,1.041,0.9965,0.9818,0.9835,0.9949,1.0014,1.0019,1.0019,1.0079,1.0188,1.0188,1.0259,1.0378,1.0481,1.0541,1.0563,1.0677,1.0726,1.0737,1.0737,1.0737,1.0737,1.0737,1.0737,1.0737,0.9681,0.971,0.9751,0.9808,0.9844,0.9889,0.9942,0.9877,0.9816,0.9816,0.9738,0.9782,1.0183,1.0183,1.0284,1.0681,1.0881,1.0982,1.0982,1.1182,1.1082,1.0681,1.0685,1.0663,1.0627,1.0627,1.0577,1.0473,1.0633,1.068,1.0616,1.071,1.0759,1.0754,1.1067,1.1132,1.1127,1.1647,1.182,1.1809,1.1878,1.1895,1.1846,1.1775,1.1672,1.1569,1.1569,1.152,1.1543,1.1543,1.1511,1.1373,1.1297,1.121,1.1112,1.0965,1.0835,1.0726,1.1014,1.1038,1.1108,1.1348,1.1742,1.2057,1.2377,1.2352,1.2257,1.2142,1.204,1.1932,1.1775,1.1701,1.1633,1.1545,1.1484,1.1443,1.1443,1.1443,1.1443,1.1443,1.1443,1.1443,1.1443,1.1435,1.1444,1.1444,1.1218,1.1174,1.1157,1.1021,1.0999,1.1023,1.0797,1.0489,0.9949,0.9998,1.0019,1.0019,1.0095,1.0161,1.0204,1.028,1.0378,1.0492,1.0618,1.0601,1.0672,1.0715,1.0737,1.0737,1.0737,1.0737,1.0737,1.0737,1.0737,1.0737,0.9681,0.9702,0.9742,0.9808,0.984,0.9881,1.0149,1.0078,1.0121,1.0325,1.0243,1.0384,1.0681,1.0781,1.0881,1.1282,1.1483,1.1583,1.1583,1.1683,1.1683,1.1282,1.1282,1.1282,1.1282,1.1282,1.1249,1.1173,1.1337,1.1284,1.1304,1.1299,1.1331,1.1296,1.1598,1.1731,1.17,1.2078,1.2172,1.2167,1.208,1.202,1.1982,1.19,1.1797,1.1688,1.165,1.1585,1.1509,1.1465,1.1543,1.1438,1.1357,1.1302,1.1226,1.0987,1.0946,1.1037,1.1331,1.1505,1.171,1.1727,1.2007,1.2312,1.2518,1.2461,1.2345,1.2298,1.2203,1.2088,1.1932,1.1904,1.187,1.1775,1.1762,1.1762,1.1762,1.1762,1.1762,1.1762,1.1762,1.1762,1.1762,1.1843,1.1904,1.1904,1.1777,1.1707,1.1753,1.1517,1.1401,1.1495,1.1383,1.1095,1.047,1.0314,1.0236,1.0236,1.0283,1.028,1.0318,1.04,1.0503,1.0612,1.0612,1.0661,1.0737,1.0737,1.0737,1.0737,1.0737,1.0737,1.0737,1.0737,1.0737,1.0737,0.9681,0.9755,0.9816,0.9816,0.9889,1.0157,1.0673,1.0692,1.0834,1.1338,1.1349,1.1282,1.1282,1.1282,1.1282,1.1282,1.1783,1.2084,1.2084,1.259,1.2389,1.1383,1.1282,1.1282,1.1282,1.1282,1.1282,1.1282,1.1674,1.1916,1.1916,1.2298,1.2471,1.2357,1.2357,1.2286,1.2172,1.2172,1.2172,1.2172,1.2172,1.2096,1.1987,1.1987,1.1917,1.1803,1.1683,1.1639,1.1618,1.1498,1.1455,1.1543,1.1543,1.1373,1.1226,1.0992,1.1261,1.1571,1.1438,1.2069,1.2701,1.2553,1.2628,1.2732,1.2732,1.2617,1.2461,1.2325,1.2291,1.2244,1.2169,1.206,1.206,1.2135,1.2135,1.2135,1.2135,1.2135,1.2135,1.2135,1.2135,1.2135,1.2135,1.206,1.206,1.206,1.2067,1.2135,1.2284,1.2042,1.1882,1.1882,1.1632,1.1549,1.1549,1.1075,1.0837,1.0837,1.057,1.0449,1.0639,1.0639,1.0623,1.0737,1.0737,1.0737,1.0737,1.0737,1.0737,1.0737,1.0737,1.0737,1.0737,1.0737,1.0737,1.0737,1.0284,1.0607,1.0827,1.0827,1.0854,1.0973,1.1074,1.1152,1.1129,1.133,1.1301,1.1483,1.1783,1.1884,1.1984,1.2384,1.2584,1.269,1.269,1.279,1.279,1.2489,1.2384,1.2384,1.2384,1.2384,1.2384,1.2384,1.2552,1.2631,1.2631,1.2612,1.2634,1.2591,1.2428,1.2335,1.2292,1.221,1.2172,1.2172,1.2172,1.215,1.2118,1.2118,1.2042,1.1933,1.1895,1.1775,1.1629,1.1596,1.1525,1.1543,1.1543,1.1373,1.1346,1.1622,1.1652,1.1757,1.2312,1.2643,1.2701,1.2553,1.2781,1.3017,1.2915,1.2773,1.2651,1.261,1.2515,1.2393,1.225,1.2223,1.2189,1.2155,1.2135,1.2135,1.2135,1.2135,1.2135,1.2135,1.2135,1.2135,1.2135,1.2155,1.2223,1.2223,1.2318,1.2393,1.2433,1.2427,1.2429,1.2429,1.2496,1.2575,1.2575,1.177,1.145,1.145,1.1421,1.1498,1.154,1.1635,1.17,1.1653,1.1653,1.1653,1.1653,1.1653,1.1653,1.1653,1.1653,1.1653,1.1653,1.132,1.1153,1.1153,1.0781,1.1082,1.1282,1.1282,1.1282,1.1383,1.1583,1.1583,1.1683,1.1884,1.1884,1.2089,1.2384,1.2384,1.2584,1.289,1.289,1.289,1.289,1.289,1.289,1.289,1.289,1.289,1.289,1.289,1.289,1.289,1.289,1.289,1.2884,1.2814,1.2754,1.27,1.2558,1.2439,1.2352,1.2275,1.2216,1.2172,1.2172,1.2172,1.2172,1.2172,1.2123,1.2053,1.2004,1.1895,1.177,1.1721,1.1629,1.152,1.1471,1.1583,1.1687,1.1899,1.2125,1.2423,1.2964,1.3095,1.3048,1.2962,1.3097,1.3152,1.3064,1.2929,1.282,1.282,1.2698,1.2569,1.2481,1.2413,1.2345,1.225,1.2237,1.2237,1.2237,1.2237,1.2237,1.2237,1.2237,1.2237,1.2237,1.2318,1.2372,1.2372,1.2508,1.2589,1.2589,1.2739,1.282,1.282,1.2969,1.3044,1.3044,1.2618,1.2212,1.1994,1.1961,1.1946,1.1946,1.2032,1.2069,1.2069,1.2069,1.2069,1.2069,1.2069,1.2069,1.2069,1.2069,1.2069,1.2069,1.1819,1.1653,1.1653,1.1383,1.1383,1.1483,1.1483,1.1483,1.1583,1.2084,1.2184,1.2384,1.289,1.289,1.289,1.289,1.289,1.289,1.289,1.289,1.289,1.289,1.289,1.289,1.289,1.289,1.289,1.289,1.289,1.289,1.289,1.289,1.289,1.289,1.289,1.283,1.2721,1.271,1.258,1.2368,1.2357,1.2286,1.2172,1.2172,1.2172,1.2172,1.2172,1.2172,1.2156,1.2047,1.1998,1.1971,1.1857,1.1737,1.1618,1.1593,1.1821,1.2231,1.2109,1.2767,1.3346,1.3296,1.3416,1.3648,1.3634,1.3417,1.3207,1.3193,1.3085,1.2983,1.2983,1.2861,1.2752,1.2752,1.2637,1.2542,1.2542,1.2542,1.2542,1.2542,1.2542,1.2542,1.2542,1.2542,1.2542,1.2542,1.2542,1.2542,1.2542,1.2671,1.2752,1.2752,1.2895,1.2983,1.2983,1.3119,1.3193,1.3193,1.3329,1.3081,1.2621,1.2338,1.2235,1.2235,1.2235,1.2235,1.2235,1.2235,1.2235,1.2235,1.2235,1.2235,1.2235,1.2235,1.2235,1.2235,1.2152,1.2152,1.2152,1.1884,1.2284,1.2584,1.2584,1.2584,1.259,1.2684,1.269,1.279,1.289,1.289,1.289,1.289,1.289,1.289,1.289,1.289,1.289,1.289,1.289,1.289,1.289,1.289,1.289,1.289,1.289,1.289,1.289,1.289,1.289,1.289,1.289,1.2873,1.2846,1.2748,1.2629,1.2487,1.2395,1.2286,1.2172,1.2172,1.2172,1.2172,1.2172,1.2172,1.2167,1.214,1.2069,1.1971,1.1857,1.1737,1.1634,1.2057,1.2157,1.2337,1.3022,1.3286,1.3452,1.3767,1.3826,1.377,1.3654,1.358,1.3498,1.3376,1.3234,1.3125,1.3125,1.301,1.2908,1.2908,1.2881,1.2861,1.2861,1.2861,1.2861,1.2861,1.2861,1.2861,1.2861,1.2861,1.2861,1.2861,1.2861,1.2861,1.2861,1.2895,1.2908,1.2908,1.3051,1.3125,1.3125,1.3275,1.3349,1.3349,1.3383,1.33,1.3184,1.3135,1.3148,1.3148,1.3148,1.3148,1.3148,1.3148,1.3148,1.3148,1.3148,1.3148,1.3148,1.3148,1.3148,1.3065,1.2733,1.2567,1.2484,1.2484,1.2684,1.289,1.289,1.289,1.289,1.289,1.289,1.289,1.289,1.289,1.289,1.289,1.289,1.289,1.289,1.289,1.289,1.289,1.289,1.289,1.289,1.289,1.289,1.289,1.289,1.289,1.289,1.289,1.289,1.289,1.289,1.289,1.2884,1.2819,1.2727,1.2607,1.2493,1.2373,1.2254,1.2194,1.2172,1.2172,1.2172,1.2172,1.2172,1.2172,1.2129,1.2152,1.2216,1.2225,1.2152,1.2577,1.2849,1.3044,1.3426,1.3709,1.3914,1.4096,1.4068,1.3933,1.3858,1.3783,1.3675,1.3451,1.3342,1.3281,1.3281,1.3166,1.3064,1.3064,1.301,1.2963,1.2963,1.2963,1.2963,1.2963,1.2963,1.2963,1.2963,1.2963,1.2963,1.2963,1.2963,1.2963,1.2963,1.3024,1.3064,1.3064,1.32,1.3281,1.3281,1.3356,1.3403,1.3403,1.3403,1.3403,1.3403,1.3403,1.3403,1.3403,1.3403,1.3403,1.3403,1.3403,1.3403,1.3403,1.3403,1.3403,1.3403,1.3403,1.3403,1.3397,1.3148,1.3065,1.2995,1.289,1.289,1.289,1.289,1.289,1.289,1.289,1.289,1.289,1.289,1.289,1.289,1.289,1.289,1.289,1.289,1.289,1.289,1.289,1.289,1.289,1.289,1.289,1.289,1.289,1.289,1.289,1.289,1.289,1.289,1.289,1.289,1.289,1.289,1.289,1.2819,1.27,1.2607,1.2482,1.2346,1.2243,1.2188,1.2172,1.2172,1.2172,1.2172,1.2172,1.2267,1.2345,1.2707,1.2847,1.2882,1.3217,1.3584,1.3797,1.3751,1.4067,1.4333,1.4306,1.4204,1.4102,1.4082,1.3973,1.381,1.3539,1.3458,1.3431,1.3403,1.3302,1.3214,1.3214,1.3119,1.3037,1.3037,1.3037,1.3037,1.3037,1.3037,1.3037,1.3037,1.3037,1.3037,1.3037,1.3037,1.3037,1.3037,1.3146,1.3214,1.3214,1.3336,1.3403,1.3403,1.3403,1.3403,1.3403,1.3403,1.3403,1.3403,1.3403,1.3403,1.3403,1.3403,1.3403,1.3403,1.3403,1.3403,1.3403,1.3403,1.3403,1.3403,1.3403,1.3403,1.3403,1.3431,1.3437,1.3464,1.289,1.289,1.289,1.289,1.289,1.289,1.289,1.289,1.289,1.289,1.289,1.289,1.289,1.289,1.289,1.289,1.289,1.289,1.289,1.289,1.289,1.289,1.289,1.289,1.289,1.289,1.289,1.289,1.289,1.289,1.289,1.289,1.289,1.289,1.289,1.2819,1.2705,1.2689,1.2553,1.2352,1.2335,1.2265,1.2172,1.2172,1.2172,1.2172,1.2172,1.2456,1.2928,1.3381,1.3484,1.3474,1.39,1.3989,1.4043,1.4253,1.4392,1.4455,1.4333,1.4285,1.4238,1.4102,1.4055,1.3994,1.3824,1.3688,1.3559,1.3431,1.3383,1.337,1.337,1.3356,1.3342,1.3342,1.3342,1.3342,1.3342,1.3342,1.3342,1.3342,1.3342,1.3342,1.3342,1.3342,1.3342,1.3342,1.3356,1.337,1.337,1.339,1.3403,1.3403,1.3403,1.3403,1.3403,1.3403,1.3403,1.3403,1.3403,1.3403,1.3403,1.3403,1.3403,1.3403,1.3403,1.3403,1.3403,1.3403,1.3403,1.3403,1.3403,1.3403,1.3417,1.3553,1.36,1.362,1.289,1.289,1.289,1.289,1.289,1.289,1.289,1.289,1.289,1.289,1.289,1.289,1.289,1.289,1.289,1.289,1.289,1.289,1.289,1.289,1.289,1.289,1.289,1.289,1.289,1.289,1.289,1.289,1.289,1.289,1.289,1.289,1.289,1.289,1.289,1.2857,1.2803,1.2732,1.2645,1.2536,1.2406,1.2324,1.2265,1.2199,1.2361,1.2644,1.2928,1.3211,1.3399,1.3958,1.4015,1.4039,1.4527,1.4646,1.4559,1.4595,1.4577,1.4496,1.4434,1.436,1.4285,1.4217,1.4197,1.4156,1.4,1.3919,1.3831,1.3682,1.3587,1.3532,1.3532,1.3458,1.3403,1.3403,1.3652,1.3818,1.3818,1.3976,1.4142,1.4142,1.3894,1.3818,1.3818,1.3569,1.3403,1.3403,1.3403,1.3403,1.3403,1.3403,1.3403,1.3403,1.3403,1.3403,1.3403,1.3403,1.3403,1.3403,1.3403,1.3403,1.3403,1.3403,1.3403,1.3403,1.3403,1.3403,1.3403,1.3403,1.3403,1.3403,1.3403,1.3451,1.3546,1.3695,1.3749,1.377]}]]